<?xml version="1.0" encoding="UTF-8" standalone="no" ?>
<gpx xmlns="http://www.topografix.com/GPX/1/1" xmlns:xsi="http://www.w3.org/2001/XMLSchema-instance" xsi:schemaLocation="http://www.topografix.com/GPX/1/1 http://www.topografix.com/GPX/1/1/gpx.xsd" version="1.1" creator="VisuGPX - https://www.visugpx.com">
  <metadata>
    <name>traversee_volcans_auvergne</name>
  </metadata>
  <trk>
    <name><![CDATA[traversee_volcans_auvergne]]></name>
    <trkseg>
      <trkpt lat="45.8728" lon="3.03399">
        <ele>590.3</ele>
        <time>2018-08-08T08:26:11Z</time>
      </trkpt>
      <trkpt lat="45.87181" lon="3.03356">
        <ele>567.4</ele>
        <time>2018-08-08T08:27:11Z</time>
      </trkpt>
      <trkpt lat="45.87193" lon="3.03175">
        <ele>569.3</ele>
        <time>2018-08-08T08:28:11Z</time>
      </trkpt>
      <trkpt lat="45.87038" lon="3.03098">
        <ele>563.4</ele>
        <time>2018-08-08T08:29:11Z</time>
      </trkpt>
      <trkpt lat="45.87134" lon="3.02682">
        <ele>587.4</ele>
        <time>2018-08-08T08:30:11Z</time>
      </trkpt>
      <trkpt lat="45.87152" lon="3.02442">
        <ele>606.2</ele>
        <time>2018-08-08T08:31:11Z</time>
      </trkpt>
      <trkpt lat="45.87247" lon="3.02309">
        <ele>612.4</ele>
        <time>2018-08-08T08:32:11Z</time>
      </trkpt>
      <trkpt lat="45.87208" lon="3.02">
        <ele>624</ele>
        <time>2018-08-08T08:33:11Z</time>
      </trkpt>
      <trkpt lat="45.87122" lon="3.01888">
        <ele>637</ele>
        <time>2018-08-08T08:34:11Z</time>
      </trkpt>
      <trkpt lat="45.8714" lon="3.01716">
        <ele>655.9</ele>
        <time>2018-08-08T08:35:11Z</time>
      </trkpt>
      <trkpt lat="45.87226" lon="3.0157">
        <ele>660.2</ele>
        <time>2018-08-08T08:36:11Z</time>
      </trkpt>
      <trkpt lat="45.87244" lon="3.01399">
        <ele>663.2</ele>
        <time>2018-08-08T08:37:11Z</time>
      </trkpt>
      <trkpt lat="45.87154" lon="3.01094">
        <ele>674</ele>
        <time>2018-08-08T08:38:11Z</time>
      </trkpt>
      <trkpt lat="45.87113" lon="3.00772">
        <ele>689.9</ele>
        <time>2018-08-08T08:39:11Z</time>
      </trkpt>
      <trkpt lat="45.8705" lon="3.00764">
        <ele>690.3</ele>
        <time>2018-08-08T08:40:11Z</time>
      </trkpt>
      <trkpt lat="45.87044" lon="3.00635">
        <ele>703.3</ele>
        <time>2018-08-08T08:41:11Z</time>
      </trkpt>
      <trkpt lat="45.87086" lon="3.00219">
        <ele>723.8</ele>
        <time>2018-08-08T08:42:11Z</time>
      </trkpt>
      <trkpt lat="45.87089" lon="2.99712">
        <ele>751.7</ele>
        <time>2018-08-08T08:43:11Z</time>
      </trkpt>
      <trkpt lat="45.8711" lon="2.99438">
        <ele>772.1</ele>
        <time>2018-08-08T08:44:11Z</time>
      </trkpt>
      <trkpt lat="45.8716" lon="2.99322">
        <ele>776.1</ele>
        <time>2018-08-08T08:45:11Z</time>
      </trkpt>
      <trkpt lat="45.87113" lon="2.99124">
        <ele>785.4</ele>
        <time>2018-08-08T08:46:11Z</time>
      </trkpt>
      <trkpt lat="45.87256" lon="2.99008">
        <ele>781.7</ele>
        <time>2018-08-08T08:47:11Z</time>
      </trkpt>
      <trkpt lat="45.8728" lon="2.98575">
        <ele>787.3</ele>
        <time>2018-08-08T08:48:11Z</time>
      </trkpt>
      <trkpt lat="45.87232" lon="2.98485">
        <ele>794.1</ele>
        <time>2018-08-08T08:49:11Z</time>
      </trkpt>
      <trkpt lat="45.87149" lon="2.98124">
        <ele>808.9</ele>
        <time>2018-08-08T08:50:11Z</time>
      </trkpt>
      <trkpt lat="45.86892" lon="2.98279">
        <ele>813.9</ele>
        <time>2018-08-08T08:51:11Z</time>
      </trkpt>
      <trkpt lat="45.86778" lon="2.98382">
        <ele>817</ele>
        <time>2018-08-08T08:52:11Z</time>
      </trkpt>
      <trkpt lat="45.86614" lon="2.98665">
        <ele>835.3</ele>
        <time>2018-08-08T08:53:11Z</time>
      </trkpt>
      <trkpt lat="45.86413" lon="2.98626">
        <ele>875.4</ele>
        <time>2018-08-08T08:54:11Z</time>
      </trkpt>
      <trkpt lat="45.86306" lon="2.98691">
        <ele>883.5</ele>
        <time>2018-08-08T08:55:11Z</time>
      </trkpt>
      <trkpt lat="45.86162" lon="2.98622">
        <ele>936.1</ele>
        <time>2018-08-08T08:56:11Z</time>
      </trkpt>
      <trkpt lat="45.86034" lon="2.98553">
        <ele>934</ele>
        <time>2018-08-08T08:57:11Z</time>
      </trkpt>
      <trkpt lat="45.85941" lon="2.98712">
        <ele>945.5</ele>
        <time>2018-08-08T08:58:11Z</time>
      </trkpt>
      <trkpt lat="45.85864" lon="2.98433">
        <ele>972.6</ele>
        <time>2018-08-08T08:59:11Z</time>
      </trkpt>
      <trkpt lat="45.85786" lon="2.98279">
        <ele>948.6</ele>
        <time>2018-08-08T09:00:11Z</time>
      </trkpt>
      <trkpt lat="45.85878" lon="2.98116">
        <ele>924.8</ele>
        <time>2018-08-08T09:01:11Z</time>
      </trkpt>
      <trkpt lat="45.85768" lon="2.9806">
        <ele>910.4</ele>
        <time>2018-08-08T09:02:11Z</time>
      </trkpt>
      <trkpt lat="45.85672" lon="2.98129">
        <ele>906.7</ele>
        <time>2018-08-08T09:03:11Z</time>
      </trkpt>
      <trkpt lat="45.85568" lon="2.97914">
        <ele>890.9</ele>
        <time>2018-08-08T09:04:11Z</time>
      </trkpt>
      <trkpt lat="45.85409" lon="2.97798">
        <ele>911</ele>
        <time>2018-08-08T09:05:11Z</time>
      </trkpt>
      <trkpt lat="45.85089" lon="2.97322">
        <ele>995.3</ele>
        <time>2018-08-08T09:06:11Z</time>
      </trkpt>
      <trkpt lat="45.85227" lon="2.97069">
        <ele>1006.2</ele>
        <time>2018-08-08T09:07:11Z</time>
      </trkpt>
      <trkpt lat="45.85227" lon="2.96841">
        <ele>1009</ele>
        <time>2018-08-08T09:08:11Z</time>
      </trkpt>
      <trkpt lat="45.85293" lon="2.96682">
        <ele>1006.4</ele>
        <time>2018-08-08T09:09:11Z</time>
      </trkpt>
      <trkpt lat="45.85164" lon="2.96421">
        <ele>1037.6</ele>
        <time>2018-08-08T09:10:11Z</time>
      </trkpt>
      <trkpt lat="45.84967" lon="2.96738">
        <ele>1074.5</ele>
        <time>2018-08-08T09:11:11Z</time>
      </trkpt>
      <trkpt lat="45.84871" lon="2.96858">
        <ele>1098.2</ele>
        <time>2018-08-08T09:12:11Z</time>
      </trkpt>
      <trkpt lat="45.8479" lon="2.96901">
        <ele>1123.7</ele>
        <time>2018-08-08T09:13:11Z</time>
      </trkpt>
      <trkpt lat="45.84662" lon="2.96682">
        <ele>1129.2</ele>
        <time>2018-08-08T09:14:11Z</time>
      </trkpt>
      <trkpt lat="45.84489" lon="2.96554">
        <ele>1129</ele>
        <time>2018-08-08T09:15:11Z</time>
      </trkpt>
      <trkpt lat="45.84426" lon="2.96463">
        <ele>1119.1</ele>
        <time>2018-08-08T09:16:11Z</time>
      </trkpt>
      <trkpt lat="45.84342" lon="2.96541">
        <ele>1137.7</ele>
        <time>2018-08-08T09:17:11Z</time>
      </trkpt>
      <trkpt lat="45.8419" lon="2.96378">
        <ele>1134</ele>
        <time>2018-08-08T09:18:11Z</time>
      </trkpt>
      <trkpt lat="45.83992" lon="2.96232">
        <ele>1109.6</ele>
        <time>2018-08-08T09:19:11Z</time>
      </trkpt>
      <trkpt lat="45.83738" lon="2.96215">
        <ele>1070.7</ele>
        <time>2018-08-08T09:20:11Z</time>
      </trkpt>
      <trkpt lat="45.83663" lon="2.9594">
        <ele>1029.1</ele>
        <time>2018-08-08T09:21:11Z</time>
      </trkpt>
      <trkpt lat="45.83559" lon="2.95884">
        <ele>1030.6</ele>
        <time>2018-08-08T09:22:11Z</time>
      </trkpt>
      <trkpt lat="45.83684" lon="2.95592">
        <ele>1022.8</ele>
        <time>2018-08-08T09:23:11Z</time>
      </trkpt>
      <trkpt lat="45.83448" lon="2.95425">
        <ele>1025</ele>
        <time>2018-08-08T09:24:11Z</time>
      </trkpt>
      <trkpt lat="45.83188" lon="2.95425">
        <ele>1025.6</ele>
        <time>2018-08-08T09:25:11Z</time>
      </trkpt>
      <trkpt lat="45.83104" lon="2.95502">
        <ele>1031.8</ele>
        <time>2018-08-08T09:26:11Z</time>
      </trkpt>
      <trkpt lat="45.82985" lon="2.95069">
        <ele>1011.5</ele>
        <time>2018-08-08T09:27:11Z</time>
      </trkpt>
      <trkpt lat="45.82641" lon="2.95197">
        <ele>1074</ele>
        <time>2018-08-08T09:28:11Z</time>
      </trkpt>
      <trkpt lat="45.8241" lon="2.95013">
        <ele>1095.6</ele>
        <time>2018-08-08T09:29:11Z</time>
      </trkpt>
      <trkpt lat="45.82381" lon="2.95167">
        <ele>1096.1</ele>
        <time>2018-08-08T09:30:11Z</time>
      </trkpt>
      <trkpt lat="45.82473" lon="2.95498">
        <ele>1094.9</ele>
        <time>2018-08-08T09:31:11Z</time>
      </trkpt>
      <trkpt lat="45.82545" lon="2.95785">
        <ele>1061.1</ele>
        <time>2018-08-08T09:32:11Z</time>
      </trkpt>
      <trkpt lat="45.82384" lon="2.96026">
        <ele>1014.5</ele>
        <time>2018-08-08T09:33:11Z</time>
      </trkpt>
      <trkpt lat="45.82473" lon="2.9615">
        <ele>993</ele>
        <time>2018-08-08T09:34:11Z</time>
      </trkpt>
      <trkpt lat="45.82461" lon="2.96279">
        <ele>975.8</ele>
        <time>2018-08-08T09:35:11Z</time>
      </trkpt>
      <trkpt lat="45.8227" lon="2.96318">
        <ele>979.9</ele>
        <time>2018-08-08T09:36:11Z</time>
      </trkpt>
      <trkpt lat="45.81953" lon="2.96468">
        <ele>968.5</ele>
        <time>2018-08-08T09:37:11Z</time>
      </trkpt>
      <trkpt lat="45.81633" lon="2.96768">
        <ele>972.8</ele>
        <time>2018-08-08T09:38:11Z</time>
      </trkpt>
      <trkpt lat="45.8151" lon="2.96403">
        <ele>967.3</ele>
        <time>2018-08-08T09:39:11Z</time>
      </trkpt>
      <trkpt lat="45.81435" lon="2.96043">
        <ele>965</ele>
        <time>2018-08-08T09:40:11Z</time>
      </trkpt>
      <trkpt lat="45.81382" lon="2.95661">
        <ele>952.5</ele>
        <time>2018-08-08T09:41:11Z</time>
      </trkpt>
      <trkpt lat="45.81358" lon="2.95438">
        <ele>952.3</ele>
        <time>2018-08-08T09:42:11Z</time>
      </trkpt>
      <trkpt lat="45.81402" lon="2.95331">
        <ele>954.1</ele>
        <time>2018-08-08T09:43:11Z</time>
      </trkpt>
      <trkpt lat="45.81397" lon="2.95249">
        <ele>960.8</ele>
        <time>2018-08-08T09:44:11Z</time>
      </trkpt>
      <trkpt lat="45.81319" lon="2.95228">
        <ele>960</ele>
        <time>2018-08-08T09:45:11Z</time>
      </trkpt>
      <trkpt lat="45.81187" lon="2.95086">
        <ele>957.2</ele>
        <time>2018-08-08T09:46:11Z</time>
      </trkpt>
      <trkpt lat="45.8096" lon="2.95094">
        <ele>962.7</ele>
        <time>2018-08-08T09:47:11Z</time>
      </trkpt>
      <trkpt lat="45.80625" lon="2.95026">
        <ele>958.8</ele>
        <time>2018-08-08T09:48:11Z</time>
      </trkpt>
      <trkpt lat="45.80499" lon="2.94996">
        <ele>953.9</ele>
        <time>2018-08-08T09:49:11Z</time>
      </trkpt>
      <trkpt lat="45.80272" lon="2.95125">
        <ele>974.2</ele>
        <time>2018-08-08T09:50:11Z</time>
      </trkpt>
      <trkpt lat="45.80044" lon="2.95094">
        <ele>994.8</ele>
        <time>2018-08-08T09:51:11Z</time>
      </trkpt>
      <trkpt lat="45.79898" lon="2.94987">
        <ele>1009.2</ele>
        <time>2018-08-08T09:52:11Z</time>
      </trkpt>
      <trkpt lat="45.79581" lon="2.95069">
        <ele>1010.8</ele>
        <time>2018-08-08T09:53:11Z</time>
      </trkpt>
      <trkpt lat="45.79323" lon="2.94704">
        <ele>1046.9</ele>
        <time>2018-08-08T09:54:11Z</time>
      </trkpt>
      <trkpt lat="45.79278" lon="2.94614">
        <ele>1053.4</ele>
        <time>2018-08-08T09:55:11Z</time>
      </trkpt>
      <trkpt lat="45.79425" lon="2.94421">
        <ele>1160</ele>
        <time>2018-08-08T09:56:11Z</time>
      </trkpt>
      <trkpt lat="45.79658" lon="2.94288">
        <ele>1233.6</ele>
        <time>2018-08-08T09:57:11Z</time>
      </trkpt>
      <trkpt lat="45.79527" lon="2.94309">
        <ele>1219.7</ele>
        <time>2018-08-08T09:58:11Z</time>
      </trkpt>
      <trkpt lat="45.79272" lon="2.94575">
        <ele>1059.4</ele>
        <time>2018-08-08T09:59:11Z</time>
      </trkpt>
      <trkpt lat="45.79183" lon="2.94494">
        <ele>1041.4</ele>
        <time>2018-08-08T10:00:11Z</time>
      </trkpt>
      <trkpt lat="45.78934" lon="2.94408">
        <ele>1046.8</ele>
        <time>2018-08-08T10:01:11Z</time>
      </trkpt>
      <trkpt lat="45.78707" lon="2.94446">
        <ele>1043.6</ele>
        <time>2018-08-08T10:02:11Z</time>
      </trkpt>
      <trkpt lat="45.78611" lon="2.94627">
        <ele>1046.7</ele>
        <time>2018-08-08T10:03:11Z</time>
      </trkpt>
      <trkpt lat="45.78653" lon="2.94931">
        <ele>1067.5</ele>
        <time>2018-08-08T10:04:11Z</time>
      </trkpt>
      <trkpt lat="45.78602" lon="2.95502">
        <ele>1094.1</ele>
        <time>2018-08-08T10:05:11Z</time>
      </trkpt>
      <trkpt lat="45.78587" lon="2.95841">
        <ele>1087.4</ele>
        <time>2018-08-08T10:06:11Z</time>
      </trkpt>
      <trkpt lat="45.78623" lon="2.96">
        <ele>1102.4</ele>
        <time>2018-08-08T10:07:11Z</time>
      </trkpt>
      <trkpt lat="45.78512" lon="2.96146">
        <ele>1094.4</ele>
        <time>2018-08-08T10:08:11Z</time>
      </trkpt>
      <trkpt lat="45.78402" lon="2.96288">
        <ele>1114.4</ele>
        <time>2018-08-08T10:09:11Z</time>
      </trkpt>
      <trkpt lat="45.78399" lon="2.96566">
        <ele>1131.7</ele>
        <time>2018-08-08T10:10:11Z</time>
      </trkpt>
      <trkpt lat="45.78225" lon="2.96566">
        <ele>1131</ele>
        <time>2018-08-08T10:11:11Z</time>
      </trkpt>
      <trkpt lat="45.78036" lon="2.96489">
        <ele>1176.4</ele>
        <time>2018-08-08T10:12:11Z</time>
      </trkpt>
      <trkpt lat="45.77923" lon="2.96391">
        <ele>1201.7</ele>
        <time>2018-08-08T10:13:11Z</time>
      </trkpt>
      <trkpt lat="45.77617" lon="2.96485">
        <ele>1231.2</ele>
        <time>2018-08-08T10:14:11Z</time>
      </trkpt>
      <trkpt lat="45.77375" lon="2.96639">
        <ele>1290.1</ele>
        <time>2018-08-08T10:15:11Z</time>
      </trkpt>
      <trkpt lat="45.77213" lon="2.96708">
        <ele>1328.4</ele>
        <time>2018-08-08T10:16:11Z</time>
      </trkpt>
      <trkpt lat="45.77076" lon="2.96614">
        <ele>1394.9</ele>
        <time>2018-08-08T10:17:11Z</time>
      </trkpt>
      <trkpt lat="45.77049" lon="2.96451">
        <ele>1426</ele>
        <time>2018-08-08T10:18:11Z</time>
      </trkpt>
      <trkpt lat="45.77103" lon="2.96266">
        <ele>1424.9</ele>
        <time>2018-08-08T10:19:11Z</time>
      </trkpt>
      <trkpt lat="45.77004" lon="2.96103">
        <ele>1409.2</ele>
        <time>2018-08-08T10:20:11Z</time>
      </trkpt>
      <trkpt lat="45.76926" lon="2.96124">
        <ele>1393.3</ele>
        <time>2018-08-08T10:21:11Z</time>
      </trkpt>
      <trkpt lat="45.76983" lon="2.96009">
        <ele>1387.2</ele>
        <time>2018-08-08T10:22:11Z</time>
      </trkpt>
      <trkpt lat="45.76932" lon="2.96004">
        <ele>1365.4</ele>
        <time>2018-08-08T10:23:11Z</time>
      </trkpt>
      <trkpt lat="45.76947" lon="2.9594">
        <ele>1345.7</ele>
        <time>2018-08-08T10:24:11Z</time>
      </trkpt>
      <trkpt lat="45.76878" lon="2.95983">
        <ele>1329.8</ele>
        <time>2018-08-08T10:25:11Z</time>
      </trkpt>
      <trkpt lat="45.76881" lon="2.95927">
        <ele>1307.5</ele>
        <time>2018-08-08T10:26:11Z</time>
      </trkpt>
      <trkpt lat="45.76764" lon="2.96056">
        <ele>1294.6</ele>
        <time>2018-08-08T10:27:11Z</time>
      </trkpt>
      <trkpt lat="45.76791" lon="2.9594">
        <ele>1265.9</ele>
        <time>2018-08-08T10:28:11Z</time>
      </trkpt>
      <trkpt lat="45.76707" lon="2.96034">
        <ele>1250.3</ele>
        <time>2018-08-08T10:29:11Z</time>
      </trkpt>
      <trkpt lat="45.76773" lon="2.95807">
        <ele>1206.2</ele>
        <time>2018-08-08T10:30:11Z</time>
      </trkpt>
      <trkpt lat="45.76692" lon="2.95743">
        <ele>1165.9</ele>
        <time>2018-08-08T10:31:11Z</time>
      </trkpt>
      <trkpt lat="45.76618" lon="2.9585">
        <ele>1160.4</ele>
        <time>2018-08-08T10:32:11Z</time>
      </trkpt>
      <trkpt lat="45.76507" lon="2.95764">
        <ele>1131.4</ele>
        <time>2018-08-08T10:33:11Z</time>
      </trkpt>
      <trkpt lat="45.76441" lon="2.95562">
        <ele>1094.6</ele>
        <time>2018-08-08T10:34:11Z</time>
      </trkpt>
      <trkpt lat="45.7636" lon="2.95609">
        <ele>1085.4</ele>
        <time>2018-08-08T10:35:11Z</time>
      </trkpt>
      <trkpt lat="45.76243" lon="2.95743">
        <ele>1064.4</ele>
        <time>2018-08-08T10:36:11Z</time>
      </trkpt>
      <trkpt lat="45.7613" lon="2.95803">
        <ele>1056.2</ele>
        <time>2018-08-08T10:37:11Z</time>
      </trkpt>
      <trkpt lat="45.76061" lon="2.95884">
        <ele>1046.4</ele>
        <time>2018-08-08T10:38:11Z</time>
      </trkpt>
      <trkpt lat="45.76091" lon="2.9606">
        <ele>1017.9</ele>
        <time>2018-08-08T10:39:11Z</time>
      </trkpt>
      <trkpt lat="45.75971" lon="2.96476">
        <ele>980</ele>
        <time>2018-08-08T10:40:11Z</time>
      </trkpt>
      <trkpt lat="45.75276" lon="2.96772">
        <ele>964.3</ele>
        <time>2018-08-08T10:41:11Z</time>
      </trkpt>
      <trkpt lat="45.74596" lon="2.97013">
        <ele>948.1</ele>
        <time>2018-08-08T10:42:11Z</time>
      </trkpt>
      <trkpt lat="45.74339" lon="2.9691">
        <ele>966.9</ele>
        <time>2018-08-08T10:43:11Z</time>
      </trkpt>
      <trkpt lat="45.74141" lon="2.96785">
        <ele>967.3</ele>
        <time>2018-08-08T10:44:11Z</time>
      </trkpt>
      <trkpt lat="45.74051" lon="2.96622">
        <ele>977.1</ele>
        <time>2018-08-08T10:45:11Z</time>
      </trkpt>
      <trkpt lat="45.74051" lon="2.96622">
        <ele>977.1</ele>
        <time>2018-08-08T10:46:11Z</time>
      </trkpt>
      <trkpt lat="45.74021" lon="2.96631">
        <ele>976.1</ele>
        <time>2018-08-08T08:26:02Z</time>
      </trkpt>
      <trkpt lat="45.73656" lon="2.96455">
        <ele>994.7</ele>
        <time>2018-08-08T08:27:02Z</time>
      </trkpt>
      <trkpt lat="45.73132" lon="2.96163">
        <ele>1017.9</ele>
        <time>2018-08-08T08:28:02Z</time>
      </trkpt>
      <trkpt lat="45.72982" lon="2.96021">
        <ele>1035.5</ele>
        <time>2018-08-08T08:29:02Z</time>
      </trkpt>
      <trkpt lat="45.72802" lon="2.95781">
        <ele>1059.8</ele>
        <time>2018-08-08T08:30:02Z</time>
      </trkpt>
      <trkpt lat="45.72721" lon="2.95652">
        <ele>1066</ele>
        <time>2018-08-08T08:31:02Z</time>
      </trkpt>
      <trkpt lat="45.72587" lon="2.95644">
        <ele>1067.3</ele>
        <time>2018-08-08T08:32:02Z</time>
      </trkpt>
      <trkpt lat="45.72221" lon="2.95236">
        <ele>1106.1</ele>
        <time>2018-08-08T08:33:02Z</time>
      </trkpt>
      <trkpt lat="45.71924" lon="2.9506">
        <ele>1084</ele>
        <time>2018-08-08T08:34:02Z</time>
      </trkpt>
      <trkpt lat="45.71358" lon="2.9473">
        <ele>1061.5</ele>
        <time>2018-08-08T08:35:02Z</time>
      </trkpt>
      <trkpt lat="45.71127" lon="2.94472">
        <ele>1057.4</ele>
        <time>2018-08-08T08:36:02Z</time>
      </trkpt>
      <trkpt lat="45.71055" lon="2.94279">
        <ele>1043.4</ele>
        <time>2018-08-08T08:37:02Z</time>
      </trkpt>
      <trkpt lat="45.70906" lon="2.94592">
        <ele>1050.1</ele>
        <time>2018-08-08T08:38:02Z</time>
      </trkpt>
      <trkpt lat="45.70735" lon="2.94858">
        <ele>1048.8</ele>
        <time>2018-08-08T08:39:02Z</time>
      </trkpt>
      <trkpt lat="45.70672" lon="2.95176">
        <ele>1052.6</ele>
        <time>2018-08-08T08:40:02Z</time>
      </trkpt>
      <trkpt lat="45.70486" lon="2.95442">
        <ele>1012.3</ele>
        <time>2018-08-08T08:41:02Z</time>
      </trkpt>
      <trkpt lat="45.7036" lon="2.95747">
        <ele>1014.9</ele>
        <time>2018-08-08T08:42:02Z</time>
      </trkpt>
      <trkpt lat="45.70237" lon="2.95957">
        <ele>1001.8</ele>
        <time>2018-08-08T08:43:02Z</time>
      </trkpt>
      <trkpt lat="45.70156" lon="2.95747">
        <ele>993.1</ele>
        <time>2018-08-08T08:44:02Z</time>
      </trkpt>
      <trkpt lat="45.70013" lon="2.95708">
        <ele>998.8</ele>
        <time>2018-08-08T08:45:02Z</time>
      </trkpt>
      <trkpt lat="45.69998" lon="2.95455">
        <ele>1014.9</ele>
        <time>2018-08-08T08:46:02Z</time>
      </trkpt>
      <trkpt lat="45.69911" lon="2.95163">
        <ele>997.7</ele>
        <time>2018-08-08T08:47:02Z</time>
      </trkpt>
      <trkpt lat="45.69761" lon="2.9473">
        <ele>1002.4</ele>
        <time>2018-08-08T08:48:02Z</time>
      </trkpt>
      <trkpt lat="45.69464" lon="2.95352">
        <ele>973.4</ele>
        <time>2018-08-08T08:49:02Z</time>
      </trkpt>
      <trkpt lat="45.69296" lon="2.9512">
        <ele>972.8</ele>
        <time>2018-08-08T08:50:02Z</time>
      </trkpt>
      <trkpt lat="45.68963" lon="2.95129">
        <ele>957.5</ele>
        <time>2018-08-08T08:51:02Z</time>
      </trkpt>
      <trkpt lat="45.68792" lon="2.95133">
        <ele>958.8</ele>
        <time>2018-08-08T08:52:02Z</time>
      </trkpt>
      <trkpt lat="45.68664" lon="2.95223">
        <ele>963.4</ele>
        <time>2018-08-08T08:53:02Z</time>
      </trkpt>
      <trkpt lat="45.68649" lon="2.95425">
        <ele>963.3</ele>
        <time>2018-08-08T08:54:02Z</time>
      </trkpt>
      <trkpt lat="45.68571" lon="2.95403">
        <ele>957.6</ele>
        <time>2018-08-08T08:55:02Z</time>
      </trkpt>
      <trkpt lat="45.68478" lon="2.95502">
        <ele>962.5</ele>
        <time>2018-08-08T08:56:02Z</time>
      </trkpt>
      <trkpt lat="45.6834" lon="2.9582">
        <ele>985.9</ele>
        <time>2018-08-08T08:57:02Z</time>
      </trkpt>
      <trkpt lat="45.68301" lon="2.95936">
        <ele>979.3</ele>
        <time>2018-08-08T08:58:02Z</time>
      </trkpt>
      <trkpt lat="45.68277" lon="2.95996">
        <ele>973.4</ele>
        <time>2018-08-08T08:59:02Z</time>
      </trkpt>
      <trkpt lat="45.68166" lon="2.95987">
        <ele>956.2</ele>
        <time>2018-08-08T09:00:02Z</time>
      </trkpt>
      <trkpt lat="45.68049" lon="2.95464">
        <ele>953.9</ele>
        <time>2018-08-08T09:01:02Z</time>
      </trkpt>
      <trkpt lat="45.67932" lon="2.95476">
        <ele>955.8</ele>
        <time>2018-08-08T09:02:02Z</time>
      </trkpt>
      <trkpt lat="45.67713" lon="2.95288">
        <ele>967.7</ele>
        <time>2018-08-08T09:03:02Z</time>
      </trkpt>
      <trkpt lat="45.67644" lon="2.95167">
        <ele>972</ele>
        <time>2018-08-08T09:04:02Z</time>
      </trkpt>
      <trkpt lat="45.67308" lon="2.95318">
        <ele>980.2</ele>
        <time>2018-08-08T09:05:02Z</time>
      </trkpt>
      <trkpt lat="45.67041" lon="2.9512">
        <ele>995.2</ele>
        <time>2018-08-08T09:06:02Z</time>
      </trkpt>
      <trkpt lat="45.66802" lon="2.95318">
        <ele>1004</ele>
        <time>2018-08-08T09:07:02Z</time>
      </trkpt>
      <trkpt lat="45.66661" lon="2.95348">
        <ele>1028.6</ele>
        <time>2018-08-08T09:08:02Z</time>
      </trkpt>
      <trkpt lat="45.66301" lon="2.9497">
        <ele>1030.6</ele>
        <time>2018-08-08T09:09:02Z</time>
      </trkpt>
      <trkpt lat="45.6616" lon="2.94833">
        <ele>1026.5</ele>
        <time>2018-08-08T09:10:02Z</time>
      </trkpt>
      <trkpt lat="45.66085" lon="2.94674">
        <ele>1023</ele>
        <time>2018-08-08T09:11:02Z</time>
      </trkpt>
      <trkpt lat="45.66055" lon="2.94369">
        <ele>1028.5</ele>
        <time>2018-08-08T09:12:02Z</time>
      </trkpt>
      <trkpt lat="45.65965" lon="2.94086">
        <ele>1026.3</ele>
        <time>2018-08-08T09:13:02Z</time>
      </trkpt>
      <trkpt lat="45.65827" lon="2.93841">
        <ele>1024.8</ele>
        <time>2018-08-08T09:14:02Z</time>
      </trkpt>
      <trkpt lat="45.65614" lon="2.93631">
        <ele>1028</ele>
        <time>2018-08-08T09:15:02Z</time>
      </trkpt>
      <trkpt lat="45.65329" lon="2.93296">
        <ele>1013.1</ele>
        <time>2018-08-08T09:16:02Z</time>
      </trkpt>
      <trkpt lat="45.65191" lon="2.92902">
        <ele>991.1</ele>
        <time>2018-08-08T09:17:02Z</time>
      </trkpt>
      <trkpt lat="45.649" lon="2.92979">
        <ele>1007.4</ele>
        <time>2018-08-08T09:18:02Z</time>
      </trkpt>
      <trkpt lat="45.64696" lon="2.92696">
        <ele>1022.2</ele>
        <time>2018-08-08T09:19:02Z</time>
      </trkpt>
      <trkpt lat="45.64525" lon="2.92429">
        <ele>1034.6</ele>
        <time>2018-08-08T09:20:02Z</time>
      </trkpt>
      <trkpt lat="45.64399" lon="2.92082">
        <ele>1043.7</ele>
        <time>2018-08-08T09:21:02Z</time>
      </trkpt>
      <trkpt lat="45.64333" lon="2.91919">
        <ele>1044.9</ele>
        <time>2018-08-08T09:22:02Z</time>
      </trkpt>
      <trkpt lat="45.64228" lon="2.91846">
        <ele>1039.8</ele>
        <time>2018-08-08T09:23:02Z</time>
      </trkpt>
      <trkpt lat="45.64108" lon="2.91837">
        <ele>1035.1</ele>
        <time>2018-08-08T09:24:02Z</time>
      </trkpt>
      <trkpt lat="45.63979" lon="2.9203">
        <ele>1033.7</ele>
        <time>2018-08-08T09:25:02Z</time>
      </trkpt>
      <trkpt lat="45.63508" lon="2.907">
        <ele>1090.1</ele>
        <time>2018-08-08T09:26:02Z</time>
      </trkpt>
      <trkpt lat="45.63697" lon="2.90554">
        <ele>1103.2</ele>
        <time>2018-08-08T09:27:02Z</time>
      </trkpt>
      <trkpt lat="45.63451" lon="2.89739">
        <ele>1127.4</ele>
        <time>2018-08-08T09:28:02Z</time>
      </trkpt>
      <trkpt lat="45.63451" lon="2.8952">
        <ele>1135</ele>
        <time>2018-08-08T09:29:02Z</time>
      </trkpt>
      <trkpt lat="45.63613" lon="2.89395">
        <ele>1141</ele>
        <time>2018-08-08T09:30:02Z</time>
      </trkpt>
      <trkpt lat="45.63439" lon="2.89168">
        <ele>1159.2</ele>
        <time>2018-08-08T09:31:02Z</time>
      </trkpt>
      <trkpt lat="45.63451" lon="2.89043">
        <ele>1168.6</ele>
        <time>2018-08-08T09:32:02Z</time>
      </trkpt>
      <trkpt lat="45.63631" lon="2.8897">
        <ele>1160.5</ele>
        <time>2018-08-08T09:33:02Z</time>
      </trkpt>
      <trkpt lat="45.63553" lon="2.88876">
        <ele>1172.1</ele>
        <time>2018-08-08T09:34:02Z</time>
      </trkpt>
      <trkpt lat="45.63484" lon="2.8888">
        <ele>1174.6</ele>
        <time>2018-08-08T09:35:02Z</time>
      </trkpt>
      <trkpt lat="45.63469" lon="2.88812">
        <ele>1178.5</ele>
        <time>2018-08-08T09:36:02Z</time>
      </trkpt>
      <trkpt lat="45.63367" lon="2.88795">
        <ele>1184</ele>
        <time>2018-08-08T09:37:02Z</time>
      </trkpt>
      <trkpt lat="45.63307" lon="2.88593">
        <ele>1200.9</ele>
        <time>2018-08-08T09:38:02Z</time>
      </trkpt>
      <trkpt lat="45.63112" lon="2.88537">
        <ele>1201</ele>
        <time>2018-08-08T09:39:02Z</time>
      </trkpt>
      <trkpt lat="45.6288" lon="2.88001">
        <ele>1247.9</ele>
        <time>2018-08-08T09:40:02Z</time>
      </trkpt>
      <trkpt lat="45.62802" lon="2.8791">
        <ele>1244.7</ele>
        <time>2018-08-08T09:41:02Z</time>
      </trkpt>
      <trkpt lat="45.62682" lon="2.87438">
        <ele>1265.1</ele>
        <time>2018-08-08T09:42:02Z</time>
      </trkpt>
      <trkpt lat="45.6261" lon="2.87413">
        <ele>1265.4</ele>
        <time>2018-08-08T09:43:02Z</time>
      </trkpt>
      <trkpt lat="45.62649" lon="2.8767">
        <ele>1259.2</ele>
        <time>2018-08-08T09:44:02Z</time>
      </trkpt>
      <trkpt lat="45.62556" lon="2.87971">
        <ele>1278.7</ele>
        <time>2018-08-08T09:45:02Z</time>
      </trkpt>
      <trkpt lat="45.62436" lon="2.87945">
        <ele>1303.6</ele>
        <time>2018-08-08T09:46:02Z</time>
      </trkpt>
      <trkpt lat="45.62544" lon="2.87713">
        <ele>1291.3</ele>
        <time>2018-08-08T09:47:02Z</time>
      </trkpt>
      <trkpt lat="45.62514" lon="2.8755">
        <ele>1295.1</ele>
        <time>2018-08-08T09:48:02Z</time>
      </trkpt>
      <trkpt lat="45.62052" lon="2.86996">
        <ele>1351.6</ele>
        <time>2018-08-08T09:49:02Z</time>
      </trkpt>
      <trkpt lat="45.62028" lon="2.86898">
        <ele>1354.1</ele>
        <time>2018-08-08T09:50:02Z</time>
      </trkpt>
      <trkpt lat="45.61914" lon="2.86885">
        <ele>1375.2</ele>
        <time>2018-08-08T09:51:02Z</time>
      </trkpt>
      <trkpt lat="45.61878" lon="2.86597">
        <ele>1383.3</ele>
        <time>2018-08-08T09:52:02Z</time>
      </trkpt>
      <trkpt lat="45.61785" lon="2.86511">
        <ele>1394.5</ele>
        <time>2018-08-08T09:53:02Z</time>
      </trkpt>
      <trkpt lat="45.61731" lon="2.8637">
        <ele>1399.5</ele>
        <time>2018-08-08T09:54:02Z</time>
      </trkpt>
      <trkpt lat="45.61392" lon="2.85975">
        <ele>1428.3</ele>
        <time>2018-08-08T09:55:02Z</time>
      </trkpt>
      <trkpt lat="45.61107" lon="2.85662">
        <ele>1418.7</ele>
        <time>2018-08-08T09:56:02Z</time>
      </trkpt>
      <trkpt lat="45.60911" lon="2.85447">
        <ele>1404.4</ele>
        <time>2018-08-08T09:57:02Z</time>
      </trkpt>
      <trkpt lat="45.60569" lon="2.85396">
        <ele>1393.4</ele>
        <time>2018-08-08T09:58:02Z</time>
      </trkpt>
      <trkpt lat="45.60419" lon="2.85147">
        <ele>1379.2</ele>
        <time>2018-08-08T09:59:02Z</time>
      </trkpt>
      <trkpt lat="45.59951" lon="2.84516">
        <ele>1352.3</ele>
        <time>2018-08-08T10:00:02Z</time>
      </trkpt>
      <trkpt lat="45.59728" lon="2.85018">
        <ele>1393.5</ele>
        <time>2018-08-08T10:01:02Z</time>
      </trkpt>
      <trkpt lat="45.59644" lon="2.85031">
        <ele>1397</ele>
        <time>2018-08-08T10:02:02Z</time>
      </trkpt>
      <trkpt lat="45.59545" lon="2.84855">
        <ele>1407.7</ele>
        <time>2018-08-08T10:03:02Z</time>
      </trkpt>
      <trkpt lat="45.59509" lon="2.84709">
        <ele>1423.7</ele>
        <time>2018-08-08T10:04:02Z</time>
      </trkpt>
      <trkpt lat="45.59449" lon="2.84739">
        <ele>1438.4</ele>
        <time>2018-08-08T10:05:02Z</time>
      </trkpt>
      <trkpt lat="45.59449" lon="2.84387">
        <ele>1473.3</ele>
        <time>2018-08-08T10:06:02Z</time>
      </trkpt>
      <trkpt lat="45.59386" lon="2.84512">
        <ele>1486.1</ele>
        <time>2018-08-08T10:07:02Z</time>
      </trkpt>
      <trkpt lat="45.59362" lon="2.84284">
        <ele>1524.9</ele>
        <time>2018-08-08T10:08:02Z</time>
      </trkpt>
      <trkpt lat="45.59218" lon="2.84494">
        <ele>1578.7</ele>
        <time>2018-08-08T10:09:02Z</time>
      </trkpt>
      <trkpt lat="45.59125" lon="2.84602">
        <ele>1596.3</ele>
        <time>2018-08-08T10:10:02Z</time>
      </trkpt>
      <trkpt lat="45.59044" lon="2.84602">
        <ele>1597.8</ele>
        <time>2018-08-08T10:11:02Z</time>
      </trkpt>
      <trkpt lat="45.58945" lon="2.8449">
        <ele>1580.8</ele>
        <time>2018-08-08T10:12:02Z</time>
      </trkpt>
      <trkpt lat="45.58791" lon="2.84499">
        <ele>1571.2</ele>
        <time>2018-08-08T10:13:02Z</time>
      </trkpt>
      <trkpt lat="45.58566" lon="2.8446">
        <ele>1557</ele>
        <time>2018-08-08T10:14:02Z</time>
      </trkpt>
      <trkpt lat="45.58524" lon="2.84597">
        <ele>1587.3</ele>
        <time>2018-08-08T10:15:02Z</time>
      </trkpt>
      <trkpt lat="45.58374" lon="2.84589">
        <ele>1633</ele>
        <time>2018-08-08T10:16:02Z</time>
      </trkpt>
      <trkpt lat="45.58158" lon="2.8443">
        <ele>1637.6</ele>
        <time>2018-08-08T10:17:02Z</time>
      </trkpt>
      <trkpt lat="45.58029" lon="2.84164">
        <ele>1627.8</ele>
        <time>2018-08-08T10:18:02Z</time>
      </trkpt>
      <trkpt lat="45.57806" lon="2.83975">
        <ele>1670.5</ele>
        <time>2018-08-08T10:19:02Z</time>
      </trkpt>
      <trkpt lat="45.57758" lon="2.83919">
        <ele>1679.4</ele>
        <time>2018-08-08T10:20:02Z</time>
      </trkpt>
      <trkpt lat="45.57308" lon="2.84005">
        <ele>1703.8</ele>
        <time>2018-08-08T10:21:02Z</time>
      </trkpt>
      <trkpt lat="45.57236" lon="2.83812">
        <ele>1672.8</ele>
        <time>2018-08-08T10:22:02Z</time>
      </trkpt>
      <trkpt lat="45.57182" lon="2.83894">
        <ele>1708.5</ele>
        <time>2018-08-08T10:23:02Z</time>
      </trkpt>
      <trkpt lat="45.57139" lon="2.83713">
        <ele>1665.3</ele>
        <time>2018-08-08T10:24:02Z</time>
      </trkpt>
      <trkpt lat="45.57203" lon="2.83585">
        <ele>1599.8</ele>
        <time>2018-08-08T10:25:02Z</time>
      </trkpt>
      <trkpt lat="45.56992" lon="2.83404">
        <ele>1555.7</ele>
        <time>2018-08-08T10:26:02Z</time>
      </trkpt>
      <trkpt lat="45.56944" lon="2.83263">
        <ele>1523.7</ele>
        <time>2018-08-08T10:27:02Z</time>
      </trkpt>
      <trkpt lat="45.5677" lon="2.83366">
        <ele>1512.6</ele>
        <time>2018-08-08T10:28:02Z</time>
      </trkpt>
      <trkpt lat="45.56397" lon="2.83091">
        <ele>1440.3</ele>
        <time>2018-08-08T10:29:02Z</time>
      </trkpt>
      <trkpt lat="45.56088" lon="2.82842">
        <ele>1434.5</ele>
        <time>2018-08-08T10:30:02Z</time>
      </trkpt>
      <trkpt lat="45.56322" lon="2.82529">
        <ele>1383</ele>
        <time>2018-08-08T10:31:02Z</time>
      </trkpt>
      <trkpt lat="45.56393" lon="2.82295">
        <ele>1356.7</ele>
        <time>2018-08-08T10:32:02Z</time>
      </trkpt>
      <trkpt lat="45.56555" lon="2.82087">
        <ele>1337.7</ele>
        <time>2018-08-08T10:33:02Z</time>
      </trkpt>
      <trkpt lat="45.56587" lon="2.82025">
        <ele>1320.2</ele>
        <time>2018-08-08T10:34:02Z</time>
      </trkpt>
      <trkpt lat="45.56576" lon="2.81977">
        <ele>1300</ele>
        <time>2018-08-08T10:35:02Z</time>
      </trkpt>
      <trkpt lat="45.56597" lon="2.8193">
        <ele>1276.2</ele>
        <time>2018-08-08T10:36:02Z</time>
      </trkpt>
      <trkpt lat="45.56669" lon="2.81997">
        <ele>1330.8</ele>
        <time>2018-08-08T10:37:02Z</time>
      </trkpt>
      <trkpt lat="45.56791" lon="2.81984">
        <ele>1337.2</ele>
        <time>2018-08-08T10:38:02Z</time>
      </trkpt>
      <trkpt lat="45.56917" lon="2.81992">
        <ele>1339.6</ele>
        <time>2018-08-08T10:39:02Z</time>
      </trkpt>
      <trkpt lat="45.57034" lon="2.8201">
        <ele>1326.4</ele>
        <time>2018-08-08T10:40:02Z</time>
      </trkpt>
      <trkpt lat="45.57099" lon="2.8202">
        <ele>1314.9</ele>
        <time>2018-08-08T10:41:02Z</time>
      </trkpt>
      <trkpt lat="45.57237" lon="2.82175">
        <ele>1301.2</ele>
        <time>2018-08-08T10:42:02Z</time>
      </trkpt>
      <trkpt lat="45.57102" lon="2.82048">
        <ele>1318.5</ele>
        <time>2018-08-08T10:43:02Z</time>
      </trkpt>
      <trkpt lat="45.57039" lon="2.82035">
        <ele>1328.2</ele>
        <time>2018-08-08T10:44:02Z</time>
      </trkpt>
      <trkpt lat="45.56955" lon="2.82016">
        <ele>1337.8</ele>
        <time>2018-08-08T10:45:02Z</time>
      </trkpt>
      <trkpt lat="45.56874" lon="2.82016">
        <ele>1345.3</ele>
        <time>2018-08-08T10:46:02Z</time>
      </trkpt>
      <trkpt lat="45.56806" lon="2.82016">
        <ele>1347.5</ele>
        <time>2018-08-08T10:47:02Z</time>
      </trkpt>
      <trkpt lat="45.5668" lon="2.8202">
        <ele>1340.4</ele>
        <time>2018-08-08T10:48:02Z</time>
      </trkpt>
      <trkpt lat="45.56705" lon="2.81954">
        <ele>1310.8</ele>
        <time>2018-08-08T10:49:02Z</time>
      </trkpt>
      <trkpt lat="45.56779" lon="2.81851">
        <ele>1281.2</ele>
        <time>2018-08-08T10:50:02Z</time>
      </trkpt>
      <trkpt lat="45.56708" lon="2.81885">
        <ele>1276.4</ele>
        <time>2018-08-08T10:51:02Z</time>
      </trkpt>
      <trkpt lat="45.56731" lon="2.81816">
        <ele>1252.3</ele>
        <time>2018-08-08T10:52:02Z</time>
      </trkpt>
      <trkpt lat="45.56797" lon="2.81722">
        <ele>1226</ele>
        <time>2018-08-08T10:53:02Z</time>
      </trkpt>
      <trkpt lat="45.56886" lon="2.81583">
        <ele>1173.7</ele>
        <time>2018-08-08T10:54:02Z</time>
      </trkpt>
      <trkpt lat="45.57021" lon="2.81529">
        <ele>1168.8</ele>
        <time>2018-08-08T10:55:02Z</time>
      </trkpt>
      <trkpt lat="45.56902" lon="2.81497">
        <ele>1132.1</ele>
        <time>2018-08-08T10:56:02Z</time>
      </trkpt>
      <trkpt lat="45.57075" lon="2.81435">
        <ele>1134.5</ele>
        <time>2018-08-08T10:57:02Z</time>
      </trkpt>
      <trkpt lat="45.57353" lon="2.81261">
        <ele>1110.4</ele>
        <time>2018-08-08T10:58:02Z</time>
      </trkpt>
      <trkpt lat="45.5735" lon="2.81164">
        <ele>1073.1</ele>
        <time>2018-08-08T10:59:02Z</time>
      </trkpt>
      <trkpt lat="45.57354" lon="2.81093">
        <ele>1053.3</ele>
        <time>2018-08-08T11:00:02Z</time>
      </trkpt>
      <trkpt lat="45.57239" lon="2.81153">
        <ele>1057.6</ele>
        <time>2018-08-08T11:01:02Z</time>
      </trkpt>
      <trkpt lat="45.57204" lon="2.81003">
        <ele>1048</ele>
        <time>2018-08-08T11:02:02Z</time>
      </trkpt>
      <trkpt lat="45.57201" lon="2.80924">
        <ele>1044.6</ele>
        <time>2018-08-08T11:03:02Z</time>
      </trkpt>
      <trkpt lat="45.57249" lon="2.80842">
        <ele>1042.1</ele>
        <time>2018-08-08T11:04:02Z</time>
      </trkpt>
      <trkpt lat="45.57254" lon="2.80835">
        <ele>1041.7</ele>
        <time>2018-08-08T08:25:49Z</time>
      </trkpt>
      <trkpt lat="45.572" lon="2.80927">
        <ele>1044.8</ele>
        <time>2018-08-08T08:26:49Z</time>
      </trkpt>
      <trkpt lat="45.57168" lon="2.80815">
        <ele>1052</ele>
        <time>2018-08-08T08:27:49Z</time>
      </trkpt>
      <trkpt lat="45.57145" lon="2.80718">
        <ele>1072.8</ele>
        <time>2018-08-08T08:28:49Z</time>
      </trkpt>
      <trkpt lat="45.57182" lon="2.80564">
        <ele>1106.4</ele>
        <time>2018-08-08T08:29:49Z</time>
      </trkpt>
      <trkpt lat="45.57251" lon="2.80517">
        <ele>1093.2</ele>
        <time>2018-08-08T08:30:49Z</time>
      </trkpt>
      <trkpt lat="45.57158" lon="2.80456">
        <ele>1141.1</ele>
        <time>2018-08-08T08:31:49Z</time>
      </trkpt>
      <trkpt lat="45.57107" lon="2.80521">
        <ele>1137.5</ele>
        <time>2018-08-08T08:32:49Z</time>
      </trkpt>
      <trkpt lat="45.57148" lon="2.80355">
        <ele>1170.1</ele>
        <time>2018-08-08T08:33:49Z</time>
      </trkpt>
      <trkpt lat="45.57062" lon="2.80413">
        <ele>1180.9</ele>
        <time>2018-08-08T08:34:49Z</time>
      </trkpt>
      <trkpt lat="45.56878" lon="2.80492">
        <ele>1210.9</ele>
        <time>2018-08-08T08:35:49Z</time>
      </trkpt>
      <trkpt lat="45.5685" lon="2.80445">
        <ele>1228.3</ele>
        <time>2018-08-08T08:36:49Z</time>
      </trkpt>
      <trkpt lat="45.56908" lon="2.8034">
        <ele>1240.3</ele>
        <time>2018-08-08T08:37:49Z</time>
      </trkpt>
      <trkpt lat="45.56909" lon="2.80243">
        <ele>1249.4</ele>
        <time>2018-08-08T08:38:49Z</time>
      </trkpt>
      <trkpt lat="45.5687" lon="2.80315">
        <ele>1245.6</ele>
        <time>2018-08-08T08:39:49Z</time>
      </trkpt>
      <trkpt lat="45.56802" lon="2.80265">
        <ele>1251.6</ele>
        <time>2018-08-08T08:40:49Z</time>
      </trkpt>
      <trkpt lat="45.56749" lon="2.802">
        <ele>1256</ele>
        <time>2018-08-08T08:41:49Z</time>
      </trkpt>
      <trkpt lat="45.56534" lon="2.80279">
        <ele>1288.8</ele>
        <time>2018-08-08T08:42:49Z</time>
      </trkpt>
      <trkpt lat="45.56367" lon="2.80236">
        <ele>1318.3</ele>
        <time>2018-08-08T08:43:49Z</time>
      </trkpt>
      <trkpt lat="45.56322" lon="2.80128">
        <ele>1327.4</ele>
        <time>2018-08-08T08:44:49Z</time>
      </trkpt>
      <trkpt lat="45.5594" lon="2.80037">
        <ele>1352.2</ele>
        <time>2018-08-08T08:45:49Z</time>
      </trkpt>
      <trkpt lat="45.55857" lon="2.80059">
        <ele>1372.7</ele>
        <time>2018-08-08T08:46:49Z</time>
      </trkpt>
      <trkpt lat="45.55948" lon="2.8011">
        <ele>1379.2</ele>
        <time>2018-08-08T08:47:49Z</time>
      </trkpt>
      <trkpt lat="45.55857" lon="2.80142">
        <ele>1396.2</ele>
        <time>2018-08-08T08:48:49Z</time>
      </trkpt>
      <trkpt lat="45.5567" lon="2.80243">
        <ele>1408.8</ele>
        <time>2018-08-08T08:49:49Z</time>
      </trkpt>
      <trkpt lat="45.55541" lon="2.80236">
        <ele>1418.5</ele>
        <time>2018-08-08T08:50:49Z</time>
      </trkpt>
      <trkpt lat="45.5542" lon="2.80142">
        <ele>1422.7</ele>
        <time>2018-08-08T08:51:49Z</time>
      </trkpt>
      <trkpt lat="45.55286" lon="2.79947">
        <ele>1445.8</ele>
        <time>2018-08-08T08:52:49Z</time>
      </trkpt>
      <trkpt lat="45.55164" lon="2.80023">
        <ele>1476.2</ele>
        <time>2018-08-08T08:53:49Z</time>
      </trkpt>
      <trkpt lat="45.55058" lon="2.79987">
        <ele>1500.7</ele>
        <time>2018-08-08T08:54:49Z</time>
      </trkpt>
      <trkpt lat="45.55018" lon="2.80055">
        <ele>1498.4</ele>
        <time>2018-08-08T08:55:49Z</time>
      </trkpt>
      <trkpt lat="45.54902" lon="2.79918">
        <ele>1526</ele>
        <time>2018-08-08T08:56:49Z</time>
      </trkpt>
      <trkpt lat="45.5479" lon="2.80008">
        <ele>1541</ele>
        <time>2018-08-08T08:57:49Z</time>
      </trkpt>
      <trkpt lat="45.5474" lon="2.79922">
        <ele>1556.2</ele>
        <time>2018-08-08T08:58:49Z</time>
      </trkpt>
      <trkpt lat="45.54687" lon="2.8003">
        <ele>1563.2</ele>
        <time>2018-08-08T08:59:49Z</time>
      </trkpt>
      <trkpt lat="45.54656" lon="2.79936">
        <ele>1586.7</ele>
        <time>2018-08-08T09:00:49Z</time>
      </trkpt>
      <trkpt lat="45.54611" lon="2.80034">
        <ele>1598.6</ele>
        <time>2018-08-08T09:01:49Z</time>
      </trkpt>
      <trkpt lat="45.54505" lon="2.80146">
        <ele>1630.2</ele>
        <time>2018-08-08T09:02:49Z</time>
      </trkpt>
      <trkpt lat="45.54386" lon="2.80167">
        <ele>1666.6</ele>
        <time>2018-08-08T09:03:49Z</time>
      </trkpt>
      <trkpt lat="45.54257" lon="2.80185">
        <ele>1675.5</ele>
        <time>2018-08-08T09:04:49Z</time>
      </trkpt>
      <trkpt lat="45.54108" lon="2.8011">
        <ele>1665.5</ele>
        <time>2018-08-08T09:05:49Z</time>
      </trkpt>
      <trkpt lat="45.53966" lon="2.80142">
        <ele>1639.7</ele>
        <time>2018-08-08T09:06:49Z</time>
      </trkpt>
      <trkpt lat="45.53838" lon="2.80095">
        <ele>1655</ele>
        <time>2018-08-08T09:07:49Z</time>
      </trkpt>
      <trkpt lat="45.53666" lon="2.80037">
        <ele>1663.2</ele>
        <time>2018-08-08T09:08:49Z</time>
      </trkpt>
      <trkpt lat="45.53527" lon="2.79983">
        <ele>1671.1</ele>
        <time>2018-08-08T09:09:49Z</time>
      </trkpt>
      <trkpt lat="45.53456" lon="2.79983">
        <ele>1670.1</ele>
        <time>2018-08-08T09:10:49Z</time>
      </trkpt>
      <trkpt lat="45.53405" lon="2.79962">
        <ele>1673.3</ele>
        <time>2018-08-08T09:11:49Z</time>
      </trkpt>
      <trkpt lat="45.53324" lon="2.79994">
        <ele>1692.3</ele>
        <time>2018-08-08T09:12:49Z</time>
      </trkpt>
      <trkpt lat="45.53279" lon="2.8016">
        <ele>1663.9</ele>
        <time>2018-08-08T09:13:49Z</time>
      </trkpt>
      <trkpt lat="45.53223" lon="2.80322">
        <ele>1655.4</ele>
        <time>2018-08-08T09:14:49Z</time>
      </trkpt>
      <trkpt lat="45.5319" lon="2.80445">
        <ele>1680.3</ele>
        <time>2018-08-08T09:15:49Z</time>
      </trkpt>
      <trkpt lat="45.5316" lon="2.80564">
        <ele>1732.7</ele>
        <time>2018-08-08T09:16:49Z</time>
      </trkpt>
      <trkpt lat="45.53155" lon="2.80759">
        <ele>1714.4</ele>
        <time>2018-08-08T09:17:49Z</time>
      </trkpt>
      <trkpt lat="45.5311" lon="2.80761">
        <ele>1724.1</ele>
        <time>2018-08-08T09:18:49Z</time>
      </trkpt>
      <trkpt lat="45.53044" lon="2.80976">
        <ele>1738.5</ele>
        <time>2018-08-08T09:19:49Z</time>
      </trkpt>
      <trkpt lat="45.53059" lon="2.81096">
        <ele>1747.5</ele>
        <time>2018-08-08T09:20:49Z</time>
      </trkpt>
      <trkpt lat="45.53012" lon="2.81163">
        <ele>1788.9</ele>
        <time>2018-08-08T09:21:49Z</time>
      </trkpt>
      <trkpt lat="45.52986" lon="2.81185">
        <ele>1794.6</ele>
        <time>2018-08-08T09:22:49Z</time>
      </trkpt>
      <trkpt lat="45.52928" lon="2.81284">
        <ele>1787</ele>
        <time>2018-08-08T09:23:49Z</time>
      </trkpt>
      <trkpt lat="45.52863" lon="2.81351">
        <ele>1809.1</ele>
        <time>2018-08-08T09:24:49Z</time>
      </trkpt>
      <trkpt lat="45.52819" lon="2.81382">
        <ele>1827.1</ele>
        <time>2018-08-08T09:25:49Z</time>
      </trkpt>
      <trkpt lat="45.52771" lon="2.81484">
        <ele>1829</ele>
        <time>2018-08-08T09:26:49Z</time>
      </trkpt>
      <trkpt lat="45.52766" lon="2.81596">
        <ele>1778.1</ele>
        <time>2018-08-08T09:27:49Z</time>
      </trkpt>
      <trkpt lat="45.52725" lon="2.81762">
        <ele>1757.3</ele>
        <time>2018-08-08T09:28:49Z</time>
      </trkpt>
      <trkpt lat="45.52596" lon="2.81871">
        <ele>1773.9</ele>
        <time>2018-08-08T09:29:49Z</time>
      </trkpt>
      <trkpt lat="45.52424" lon="2.81874">
        <ele>1770.9</ele>
        <time>2018-08-08T09:30:49Z</time>
      </trkpt>
      <trkpt lat="45.52318" lon="2.81917">
        <ele>1779.6</ele>
        <time>2018-08-08T09:31:49Z</time>
      </trkpt>
      <trkpt lat="45.52288" lon="2.82239">
        <ele>1787.9</ele>
        <time>2018-08-08T09:32:49Z</time>
      </trkpt>
      <trkpt lat="45.52151" lon="2.82296">
        <ele>1751.4</ele>
        <time>2018-08-08T09:33:49Z</time>
      </trkpt>
      <trkpt lat="45.52073" lon="2.82318">
        <ele>1752.4</ele>
        <time>2018-08-08T09:34:49Z</time>
      </trkpt>
      <trkpt lat="45.5203" lon="2.82495">
        <ele>1759</ele>
        <time>2018-08-08T09:35:49Z</time>
      </trkpt>
      <trkpt lat="45.51992" lon="2.82704">
        <ele>1744.3</ele>
        <time>2018-08-08T09:36:49Z</time>
      </trkpt>
      <trkpt lat="45.51888" lon="2.82805">
        <ele>1728.1</ele>
        <time>2018-08-08T09:37:49Z</time>
      </trkpt>
      <trkpt lat="45.51752" lon="2.82928">
        <ele>1722.1</ele>
        <time>2018-08-08T09:38:49Z</time>
      </trkpt>
      <trkpt lat="45.51676" lon="2.83004">
        <ele>1701.9</ele>
        <time>2018-08-08T09:39:49Z</time>
      </trkpt>
      <trkpt lat="45.51679" lon="2.83144">
        <ele>1692.3</ele>
        <time>2018-08-08T09:40:49Z</time>
      </trkpt>
      <trkpt lat="45.51666" lon="2.83282">
        <ele>1671.6</ele>
        <time>2018-08-08T09:41:49Z</time>
      </trkpt>
      <trkpt lat="45.51716" lon="2.83502">
        <ele>1653.7</ele>
        <time>2018-08-08T09:42:49Z</time>
      </trkpt>
      <trkpt lat="45.51633" lon="2.8374">
        <ele>1613.2</ele>
        <time>2018-08-08T09:43:49Z</time>
      </trkpt>
      <trkpt lat="45.51646" lon="2.83953">
        <ele>1581.3</ele>
        <time>2018-08-08T09:44:49Z</time>
      </trkpt>
      <trkpt lat="45.51623" lon="2.84076">
        <ele>1561.1</ele>
        <time>2018-08-08T09:45:49Z</time>
      </trkpt>
      <trkpt lat="45.51539" lon="2.84169">
        <ele>1545.9</ele>
        <time>2018-08-08T09:46:49Z</time>
      </trkpt>
      <trkpt lat="45.51405" lon="2.84191">
        <ele>1530.1</ele>
        <time>2018-08-08T09:47:49Z</time>
      </trkpt>
      <trkpt lat="45.51365" lon="2.84166">
        <ele>1528.3</ele>
        <time>2018-08-08T09:48:49Z</time>
      </trkpt>
      <trkpt lat="45.51261" lon="2.84234">
        <ele>1508.7</ele>
        <time>2018-08-08T09:49:49Z</time>
      </trkpt>
      <trkpt lat="45.51185" lon="2.84415">
        <ele>1443.8</ele>
        <time>2018-08-08T09:50:49Z</time>
      </trkpt>
      <trkpt lat="45.51198" lon="2.84566">
        <ele>1405.7</ele>
        <time>2018-08-08T09:51:49Z</time>
      </trkpt>
      <trkpt lat="45.51271" lon="2.84675">
        <ele>1391.9</ele>
        <time>2018-08-08T09:52:49Z</time>
      </trkpt>
      <trkpt lat="45.51352" lon="2.84624">
        <ele>1409.8</ele>
        <time>2018-08-08T09:53:49Z</time>
      </trkpt>
      <trkpt lat="45.5136" lon="2.84732">
        <ele>1404.2</ele>
        <time>2018-08-08T09:54:49Z</time>
      </trkpt>
      <trkpt lat="45.51388" lon="2.84833">
        <ele>1400.5</ele>
        <time>2018-08-08T09:55:49Z</time>
      </trkpt>
      <trkpt lat="45.51309" lon="2.85025">
        <ele>1348.4</ele>
        <time>2018-08-08T09:56:49Z</time>
      </trkpt>
      <trkpt lat="45.51304" lon="2.85162">
        <ele>1336.4</ele>
        <time>2018-08-08T09:57:49Z</time>
      </trkpt>
      <trkpt lat="45.51251" lon="2.85252">
        <ele>1329</ele>
        <time>2018-08-08T09:58:49Z</time>
      </trkpt>
      <trkpt lat="45.51201" lon="2.85346">
        <ele>1316.2</ele>
        <time>2018-08-08T09:59:49Z</time>
      </trkpt>
      <trkpt lat="45.51135" lon="2.8545">
        <ele>1311.5</ele>
        <time>2018-08-08T10:00:49Z</time>
      </trkpt>
      <trkpt lat="45.51024" lon="2.8557">
        <ele>1304.9</ele>
        <time>2018-08-08T10:01:49Z</time>
      </trkpt>
      <trkpt lat="45.5093" lon="2.85674">
        <ele>1298.7</ele>
        <time>2018-08-08T10:02:49Z</time>
      </trkpt>
      <trkpt lat="45.5095" lon="2.85598">
        <ele>1296.8</ele>
        <time>2018-08-08T10:03:49Z</time>
      </trkpt>
      <trkpt lat="45.50927" lon="2.85487">
        <ele>1289.9</ele>
        <time>2018-08-08T10:04:49Z</time>
      </trkpt>
      <trkpt lat="45.50887" lon="2.85389">
        <ele>1290.3</ele>
        <time>2018-08-08T10:05:49Z</time>
      </trkpt>
      <trkpt lat="45.50687" lon="2.85353">
        <ele>1286.1</ele>
        <time>2018-08-08T10:06:49Z</time>
      </trkpt>
      <trkpt lat="45.50477" lon="2.85313">
        <ele>1278.8</ele>
        <time>2018-08-08T10:07:49Z</time>
      </trkpt>
      <trkpt lat="45.50323" lon="2.85299">
        <ele>1283.1</ele>
        <time>2018-08-08T10:08:49Z</time>
      </trkpt>
      <trkpt lat="45.50214" lon="2.85241">
        <ele>1286.1</ele>
        <time>2018-08-08T10:09:49Z</time>
      </trkpt>
      <trkpt lat="45.50138" lon="2.85075">
        <ele>1285.2</ele>
        <time>2018-08-08T10:10:49Z</time>
      </trkpt>
      <trkpt lat="45.49992" lon="2.84678">
        <ele>1289.8</ele>
        <time>2018-08-08T10:11:49Z</time>
      </trkpt>
      <trkpt lat="45.4983" lon="2.84552">
        <ele>1277.7</ele>
        <time>2018-08-08T10:12:49Z</time>
      </trkpt>
      <trkpt lat="45.49572" lon="2.84794">
        <ele>1278.4</ele>
        <time>2018-08-08T10:13:49Z</time>
      </trkpt>
      <trkpt lat="45.49503" lon="2.84877">
        <ele>1289.6</ele>
        <time>2018-08-08T10:14:49Z</time>
      </trkpt>
      <trkpt lat="45.49316" lon="2.8496">
        <ele>1281.8</ele>
        <time>2018-08-08T10:15:49Z</time>
      </trkpt>
      <trkpt lat="45.4917" lon="2.85064">
        <ele>1270.6</ele>
        <time>2018-08-08T10:16:49Z</time>
      </trkpt>
      <trkpt lat="45.49096" lon="2.85201">
        <ele>1261.8</ele>
        <time>2018-08-08T10:17:49Z</time>
      </trkpt>
      <trkpt lat="45.49096" lon="2.85252">
        <ele>1256.1</ele>
        <time>2018-08-08T10:18:49Z</time>
      </trkpt>
      <trkpt lat="45.48992" lon="2.85205">
        <ele>1254.5</ele>
        <time>2018-08-08T10:19:49Z</time>
      </trkpt>
      <trkpt lat="45.48982" lon="2.85072">
        <ele>1253.9</ele>
        <time>2018-08-08T10:20:49Z</time>
      </trkpt>
      <trkpt lat="45.48745" lon="2.84942">
        <ele>1244.6</ele>
        <time>2018-08-08T10:21:49Z</time>
      </trkpt>
      <trkpt lat="45.4854" lon="2.84815">
        <ele>1238.7</ele>
        <time>2018-08-08T10:22:49Z</time>
      </trkpt>
      <trkpt lat="45.48426" lon="2.84772">
        <ele>1231.7</ele>
        <time>2018-08-08T10:23:49Z</time>
      </trkpt>
      <trkpt lat="45.48433" lon="2.84675">
        <ele>1217.3</ele>
        <time>2018-08-08T10:24:49Z</time>
      </trkpt>
      <trkpt lat="45.48236" lon="2.84501">
        <ele>1193</ele>
        <time>2018-08-08T10:25:49Z</time>
      </trkpt>
      <trkpt lat="45.48066" lon="2.84343">
        <ele>1190.4</ele>
        <time>2018-08-08T10:26:49Z</time>
      </trkpt>
      <trkpt lat="45.48031" lon="2.84227">
        <ele>1189.4</ele>
        <time>2018-08-08T10:27:49Z</time>
      </trkpt>
      <trkpt lat="45.47851" lon="2.84133">
        <ele>1188.1</ele>
        <time>2018-08-08T10:28:49Z</time>
      </trkpt>
      <trkpt lat="45.47527" lon="2.844">
        <ele>1185.8</ele>
        <time>2018-08-08T10:29:49Z</time>
      </trkpt>
      <trkpt lat="45.47426" lon="2.84263">
        <ele>1188.9</ele>
        <time>2018-08-08T10:30:49Z</time>
      </trkpt>
      <trkpt lat="45.47193" lon="2.84184">
        <ele>1189.6</ele>
        <time>2018-08-08T10:31:49Z</time>
      </trkpt>
      <trkpt lat="45.47112" lon="2.84231">
        <ele>1188.3</ele>
        <time>2018-08-08T10:32:49Z</time>
      </trkpt>
      <trkpt lat="45.46994" lon="2.84083">
        <ele>1188.8</ele>
        <time>2018-08-08T10:33:49Z</time>
      </trkpt>
      <trkpt lat="45.46867" lon="2.83866">
        <ele>1184.2</ele>
        <time>2018-08-08T10:34:49Z</time>
      </trkpt>
      <trkpt lat="45.4669" lon="2.8379">
        <ele>1199.6</ele>
        <time>2018-08-08T10:35:49Z</time>
      </trkpt>
      <trkpt lat="45.46566" lon="2.83805">
        <ele>1205.1</ele>
        <time>2018-08-08T10:36:49Z</time>
      </trkpt>
      <trkpt lat="45.46427" lon="2.83848">
        <ele>1212.6</ele>
        <time>2018-08-08T10:37:49Z</time>
      </trkpt>
      <trkpt lat="45.46333" lon="2.83906">
        <ele>1206.8</ele>
        <time>2018-08-08T10:38:49Z</time>
      </trkpt>
      <trkpt lat="45.46184" lon="2.8387">
        <ele>1204.2</ele>
        <time>2018-08-08T10:39:49Z</time>
      </trkpt>
      <trkpt lat="45.45996" lon="2.83848">
        <ele>1197.3</ele>
        <time>2018-08-08T10:40:49Z</time>
      </trkpt>
      <trkpt lat="45.45923" lon="2.83812">
        <ele>1194.7</ele>
        <time>2018-08-08T10:41:49Z</time>
      </trkpt>
      <trkpt lat="45.45731" lon="2.83798">
        <ele>1182.6</ele>
        <time>2018-08-08T10:42:49Z</time>
      </trkpt>
      <trkpt lat="45.45538" lon="2.83733">
        <ele>1171.4</ele>
        <time>2018-08-08T10:43:49Z</time>
      </trkpt>
      <trkpt lat="45.45346" lon="2.83606">
        <ele>1190.9</ele>
        <time>2018-08-08T10:44:49Z</time>
      </trkpt>
      <trkpt lat="45.4511" lon="2.8348">
        <ele>1200.1</ele>
        <time>2018-08-08T10:45:49Z</time>
      </trkpt>
      <trkpt lat="45.44898" lon="2.83347">
        <ele>1189.5</ele>
        <time>2018-08-08T10:46:49Z</time>
      </trkpt>
      <trkpt lat="45.44574" lon="2.83321">
        <ele>1185.1</ele>
        <time>2018-08-08T10:47:49Z</time>
      </trkpt>
      <trkpt lat="45.44285" lon="2.83296">
        <ele>1173.6</ele>
        <time>2018-08-08T10:48:49Z</time>
      </trkpt>
      <trkpt lat="45.44093" lon="2.8331">
        <ele>1151.7</ele>
        <time>2018-08-08T10:49:49Z</time>
      </trkpt>
      <trkpt lat="45.43951" lon="2.83386">
        <ele>1135.1</ele>
        <time>2018-08-08T10:50:49Z</time>
      </trkpt>
      <trkpt lat="45.43915" lon="2.83274">
        <ele>1135.8</ele>
        <time>2018-08-08T10:51:49Z</time>
      </trkpt>
      <trkpt lat="45.43753" lon="2.8326">
        <ele>1125.8</ele>
        <time>2018-08-08T10:52:49Z</time>
      </trkpt>
      <trkpt lat="45.43535" lon="2.83123">
        <ele>1131.9</ele>
        <time>2018-08-08T10:53:49Z</time>
      </trkpt>
      <trkpt lat="45.43472" lon="2.83015">
        <ele>1132.7</ele>
        <time>2018-08-08T10:54:49Z</time>
      </trkpt>
      <trkpt lat="45.43325" lon="2.8296">
        <ele>1119.8</ele>
        <time>2018-08-08T10:55:49Z</time>
      </trkpt>
      <trkpt lat="45.43087" lon="2.8274">
        <ele>1105.9</ele>
        <time>2018-08-08T10:56:49Z</time>
      </trkpt>
      <trkpt lat="45.42814" lon="2.8278">
        <ele>1089.9</ele>
        <time>2018-08-08T10:57:49Z</time>
      </trkpt>
      <trkpt lat="45.42538" lon="2.82607">
        <ele>1080.7</ele>
        <time>2018-08-08T10:58:49Z</time>
      </trkpt>
      <trkpt lat="45.42345" lon="2.82484">
        <ele>1080</ele>
        <time>2018-08-08T10:59:49Z</time>
      </trkpt>
      <trkpt lat="45.42302" lon="2.82351">
        <ele>1079.8</ele>
        <time>2018-08-08T11:00:49Z</time>
      </trkpt>
      <trkpt lat="45.41861" lon="2.82235">
        <ele>1072.9</ele>
        <time>2018-08-08T11:01:49Z</time>
      </trkpt>
      <trkpt lat="45.41636" lon="2.82192">
        <ele>1071.8</ele>
        <time>2018-08-08T11:02:49Z</time>
      </trkpt>
      <trkpt lat="45.41474" lon="2.82394">
        <ele>1062.2</ele>
        <time>2018-08-08T11:03:49Z</time>
      </trkpt>
      <trkpt lat="45.41236" lon="2.82351">
        <ele>1050.8</ele>
        <time>2018-08-08T11:04:49Z</time>
      </trkpt>
      <trkpt lat="45.41063" lon="2.8234">
        <ele>1035</ele>
        <time>2018-08-08T11:05:49Z</time>
      </trkpt>
      <trkpt lat="45.41033" lon="2.82632">
        <ele>1022.8</ele>
        <time>2018-08-08T11:06:49Z</time>
      </trkpt>
      <trkpt lat="45.40937" lon="2.82488">
        <ele>1001.6</ele>
        <time>2018-08-08T11:07:49Z</time>
      </trkpt>
      <trkpt lat="45.40891" lon="2.82531">
        <ele>984.5</ele>
        <time>2018-08-08T11:08:49Z</time>
      </trkpt>
      <trkpt lat="45.40916" lon="2.8261">
        <ele>986.7</ele>
        <time>2018-08-08T11:09:49Z</time>
      </trkpt>
      <trkpt lat="45.40802" lon="2.82697">
        <ele>958.1</ele>
        <time>2018-08-08T11:10:49Z</time>
      </trkpt>
      <trkpt lat="45.40749" lon="2.8274">
        <ele>955</ele>
        <time>2018-08-08T11:11:49Z</time>
      </trkpt>
      <trkpt lat="45.40663" lon="2.82574">
        <ele>956.7</ele>
        <time>2018-08-08T11:12:49Z</time>
      </trkpt>
      <trkpt lat="45.40572" lon="2.82437">
        <ele>949.5</ele>
        <time>2018-08-08T11:13:49Z</time>
      </trkpt>
      <trkpt lat="45.40503" lon="2.82343">
        <ele>945.8</ele>
        <time>2018-08-08T11:14:49Z</time>
      </trkpt>
      <trkpt lat="45.4044" lon="2.82329">
        <ele>944.4</ele>
        <time>2018-08-08T11:15:49Z</time>
      </trkpt>
      <trkpt lat="45.4044" lon="2.82329">
        <ele>944.4</ele>
        <time>2018-08-08T11:16:49Z</time>
      </trkpt>
      <trkpt lat="45.40875" lon="2.83078">
        <ele>957.4</ele>
        <time>2018-08-08T08:27:11Z</time>
      </trkpt>
      <trkpt lat="45.40882" lon="2.83088">
        <ele>958.1</ele>
        <time>2018-08-08T08:28:11Z</time>
      </trkpt>
      <trkpt lat="45.40916" lon="2.83161">
        <ele>959.1</ele>
        <time>2018-08-08T08:29:11Z</time>
      </trkpt>
      <trkpt lat="45.4093" lon="2.83253">
        <ele>966.5</ele>
        <time>2018-08-08T08:30:11Z</time>
      </trkpt>
      <trkpt lat="45.40942" lon="2.83353">
        <ele>980.2</ele>
        <time>2018-08-08T08:31:11Z</time>
      </trkpt>
      <trkpt lat="45.40913" lon="2.83384">
        <ele>989.2</ele>
        <time>2018-08-08T08:32:11Z</time>
      </trkpt>
      <trkpt lat="45.40848" lon="2.83334">
        <ele>984.6</ele>
        <time>2018-08-08T08:33:11Z</time>
      </trkpt>
      <trkpt lat="45.40794" lon="2.83356">
        <ele>995.7</ele>
        <time>2018-08-08T08:34:11Z</time>
      </trkpt>
      <trkpt lat="45.40786" lon="2.83455">
        <ele>1010.5</ele>
        <time>2018-08-08T08:35:11Z</time>
      </trkpt>
      <trkpt lat="45.40812" lon="2.83553">
        <ele>1025.4</ele>
        <time>2018-08-08T08:36:11Z</time>
      </trkpt>
      <trkpt lat="45.40777" lon="2.83744">
        <ele>1039.8</ele>
        <time>2018-08-08T08:37:11Z</time>
      </trkpt>
      <trkpt lat="45.40747" lon="2.83838">
        <ele>1037.6</ele>
        <time>2018-08-08T08:38:11Z</time>
      </trkpt>
      <trkpt lat="45.40711" lon="2.83937">
        <ele>1035</ele>
        <time>2018-08-08T08:39:11Z</time>
      </trkpt>
      <trkpt lat="45.40678" lon="2.84021">
        <ele>1032.9</ele>
        <time>2018-08-08T08:40:11Z</time>
      </trkpt>
      <trkpt lat="45.40622" lon="2.84042">
        <ele>1033.3</ele>
        <time>2018-08-08T08:41:11Z</time>
      </trkpt>
      <trkpt lat="45.40578" lon="2.84079">
        <ele>1038.1</ele>
        <time>2018-08-08T08:42:11Z</time>
      </trkpt>
      <trkpt lat="45.40539" lon="2.84152">
        <ele>1049.3</ele>
        <time>2018-08-08T08:43:11Z</time>
      </trkpt>
      <trkpt lat="45.40495" lon="2.84229">
        <ele>1060</ele>
        <time>2018-08-08T08:44:11Z</time>
      </trkpt>
      <trkpt lat="45.4047" lon="2.84327">
        <ele>1067.4</ele>
        <time>2018-08-08T08:45:11Z</time>
      </trkpt>
      <trkpt lat="45.40428" lon="2.84404">
        <ele>1072.2</ele>
        <time>2018-08-08T08:46:11Z</time>
      </trkpt>
      <trkpt lat="45.40435" lon="2.84514">
        <ele>1076.7</ele>
        <time>2018-08-08T08:47:11Z</time>
      </trkpt>
      <trkpt lat="45.40431" lon="2.84579">
        <ele>1078.8</ele>
        <time>2018-08-08T08:48:11Z</time>
      </trkpt>
      <trkpt lat="45.40433" lon="2.84644">
        <ele>1080.9</ele>
        <time>2018-08-08T08:49:11Z</time>
      </trkpt>
      <trkpt lat="45.40428" lon="2.84745">
        <ele>1083.2</ele>
        <time>2018-08-08T08:50:11Z</time>
      </trkpt>
      <trkpt lat="45.40356" lon="2.84789">
        <ele>1081.8</ele>
        <time>2018-08-08T08:51:11Z</time>
      </trkpt>
      <trkpt lat="45.40301" lon="2.84874">
        <ele>1083.8</ele>
        <time>2018-08-08T08:52:11Z</time>
      </trkpt>
      <trkpt lat="45.40267" lon="2.84969">
        <ele>1085</ele>
        <time>2018-08-08T08:53:11Z</time>
      </trkpt>
      <trkpt lat="45.4023" lon="2.85054">
        <ele>1087.7</ele>
        <time>2018-08-08T08:54:11Z</time>
      </trkpt>
      <trkpt lat="45.402" lon="2.85155">
        <ele>1090.1</ele>
        <time>2018-08-08T08:55:11Z</time>
      </trkpt>
      <trkpt lat="45.40176" lon="2.85263">
        <ele>1091.3</ele>
        <time>2018-08-08T08:56:11Z</time>
      </trkpt>
      <trkpt lat="45.40174" lon="2.85382">
        <ele>1093.3</ele>
        <time>2018-08-08T08:57:11Z</time>
      </trkpt>
      <trkpt lat="45.40185" lon="2.85491">
        <ele>1094.4</ele>
        <time>2018-08-08T08:58:11Z</time>
      </trkpt>
      <trkpt lat="45.40207" lon="2.85597">
        <ele>1094.3</ele>
        <time>2018-08-08T08:59:11Z</time>
      </trkpt>
      <trkpt lat="45.40223" lon="2.85706">
        <ele>1095.5</ele>
        <time>2018-08-08T09:00:11Z</time>
      </trkpt>
      <trkpt lat="45.40227" lon="2.85821">
        <ele>1098.8</ele>
        <time>2018-08-08T09:01:11Z</time>
      </trkpt>
      <trkpt lat="45.40253" lon="2.85866">
        <ele>1096.2</ele>
        <time>2018-08-08T09:02:11Z</time>
      </trkpt>
      <trkpt lat="45.40231" lon="2.85929">
        <ele>1098.8</ele>
        <time>2018-08-08T09:03:11Z</time>
      </trkpt>
      <trkpt lat="45.40175" lon="2.85936">
        <ele>1104.4</ele>
        <time>2018-08-08T09:04:11Z</time>
      </trkpt>
      <trkpt lat="45.40109" lon="2.85908">
        <ele>1112.2</ele>
        <time>2018-08-08T09:05:11Z</time>
      </trkpt>
      <trkpt lat="45.40057" lon="2.85844">
        <ele>1115.5</ele>
        <time>2018-08-08T09:06:11Z</time>
      </trkpt>
      <trkpt lat="45.3999" lon="2.85778">
        <ele>1115</ele>
        <time>2018-08-08T09:07:11Z</time>
      </trkpt>
      <trkpt lat="45.39948" lon="2.85824">
        <ele>1115.2</ele>
        <time>2018-08-08T09:08:11Z</time>
      </trkpt>
      <trkpt lat="45.39924" lon="2.85927">
        <ele>1114.4</ele>
        <time>2018-08-08T09:09:11Z</time>
      </trkpt>
      <trkpt lat="45.39907" lon="2.86037">
        <ele>1105.9</ele>
        <time>2018-08-08T09:10:11Z</time>
      </trkpt>
      <trkpt lat="45.39911" lon="2.86139">
        <ele>1096.5</ele>
        <time>2018-08-08T09:11:11Z</time>
      </trkpt>
      <trkpt lat="45.39939" lon="2.86234">
        <ele>1093.4</ele>
        <time>2018-08-08T09:12:11Z</time>
      </trkpt>
      <trkpt lat="45.39951" lon="2.86294">
        <ele>1091.2</ele>
        <time>2018-08-08T09:13:11Z</time>
      </trkpt>
      <trkpt lat="45.39952" lon="2.86377">
        <ele>1086.6</ele>
        <time>2018-08-08T09:14:11Z</time>
      </trkpt>
      <trkpt lat="45.39919" lon="2.86464">
        <ele>1074.6</ele>
        <time>2018-08-08T09:15:11Z</time>
      </trkpt>
      <trkpt lat="45.39908" lon="2.86561">
        <ele>1064.2</ele>
        <time>2018-08-08T09:16:11Z</time>
      </trkpt>
      <trkpt lat="45.3988" lon="2.86562">
        <ele>1058</ele>
        <time>2018-08-08T09:17:11Z</time>
      </trkpt>
      <trkpt lat="45.39869" lon="2.86623">
        <ele>1052.5</ele>
        <time>2018-08-08T09:18:11Z</time>
      </trkpt>
      <trkpt lat="45.39837" lon="2.86669">
        <ele>1046.6</ele>
        <time>2018-08-08T09:19:11Z</time>
      </trkpt>
      <trkpt lat="45.39803" lon="2.86713">
        <ele>1051</ele>
        <time>2018-08-08T09:20:11Z</time>
      </trkpt>
      <trkpt lat="45.39776" lon="2.8677">
        <ele>1058.1</ele>
        <time>2018-08-08T09:21:11Z</time>
      </trkpt>
      <trkpt lat="45.39736" lon="2.86861">
        <ele>1068.2</ele>
        <time>2018-08-08T09:22:11Z</time>
      </trkpt>
      <trkpt lat="45.39626" lon="2.87149">
        <ele>1086.1</ele>
        <time>2018-08-08T09:23:11Z</time>
      </trkpt>
      <trkpt lat="45.39609" lon="2.87263">
        <ele>1091.2</ele>
        <time>2018-08-08T09:24:11Z</time>
      </trkpt>
      <trkpt lat="45.39565" lon="2.87346">
        <ele>1089.6</ele>
        <time>2018-08-08T09:25:11Z</time>
      </trkpt>
      <trkpt lat="45.39505" lon="2.87437">
        <ele>1085.5</ele>
        <time>2018-08-08T09:26:11Z</time>
      </trkpt>
      <trkpt lat="45.39465" lon="2.87535">
        <ele>1087.6</ele>
        <time>2018-08-08T09:27:11Z</time>
      </trkpt>
      <trkpt lat="45.3946" lon="2.87613">
        <ele>1095.7</ele>
        <time>2018-08-08T09:28:11Z</time>
      </trkpt>
      <trkpt lat="45.39419" lon="2.87623">
        <ele>1085.9</ele>
        <time>2018-08-08T09:29:11Z</time>
      </trkpt>
      <trkpt lat="45.39437" lon="2.87625">
        <ele>1090.8</ele>
        <time>2018-08-08T09:30:11Z</time>
      </trkpt>
      <trkpt lat="45.39423" lon="2.87726">
        <ele>1091.5</ele>
        <time>2018-08-08T09:31:11Z</time>
      </trkpt>
      <trkpt lat="45.39419" lon="2.87841">
        <ele>1090.5</ele>
        <time>2018-08-08T09:32:11Z</time>
      </trkpt>
      <trkpt lat="45.39401" lon="2.87953">
        <ele>1082.2</ele>
        <time>2018-08-08T09:33:11Z</time>
      </trkpt>
      <trkpt lat="45.3937" lon="2.88049">
        <ele>1072.6</ele>
        <time>2018-08-08T09:34:11Z</time>
      </trkpt>
      <trkpt lat="45.39307" lon="2.88072">
        <ele>1063.4</ele>
        <time>2018-08-08T09:35:11Z</time>
      </trkpt>
      <trkpt lat="45.39275" lon="2.88068">
        <ele>1060.6</ele>
        <time>2018-08-08T09:36:11Z</time>
      </trkpt>
      <trkpt lat="45.39266" lon="2.88083">
        <ele>1060.1</ele>
        <time>2018-08-08T09:37:11Z</time>
      </trkpt>
      <trkpt lat="45.39286" lon="2.88044">
        <ele>1061.6</ele>
        <time>2018-08-08T09:38:11Z</time>
      </trkpt>
      <trkpt lat="45.39318" lon="2.88033">
        <ele>1065.6</ele>
        <time>2018-08-08T09:39:11Z</time>
      </trkpt>
      <trkpt lat="45.39296" lon="2.87996">
        <ele>1063.2</ele>
        <time>2018-08-08T09:40:11Z</time>
      </trkpt>
      <trkpt lat="45.39251" lon="2.87973">
        <ele>1055.8</ele>
        <time>2018-08-08T09:41:11Z</time>
      </trkpt>
      <trkpt lat="45.39241" lon="2.88071">
        <ele>1058.4</ele>
        <time>2018-08-08T09:42:11Z</time>
      </trkpt>
      <trkpt lat="45.39251" lon="2.8818">
        <ele>1060.1</ele>
        <time>2018-08-08T09:43:11Z</time>
      </trkpt>
      <trkpt lat="45.39232" lon="2.88299">
        <ele>1061.8</ele>
        <time>2018-08-08T09:44:11Z</time>
      </trkpt>
      <trkpt lat="45.39179" lon="2.88382">
        <ele>1073.1</ele>
        <time>2018-08-08T09:45:11Z</time>
      </trkpt>
      <trkpt lat="45.39153" lon="2.88474">
        <ele>1083.8</ele>
        <time>2018-08-08T09:46:11Z</time>
      </trkpt>
      <trkpt lat="45.3915" lon="2.88499">
        <ele>1086.3</ele>
        <time>2018-08-08T09:47:11Z</time>
      </trkpt>
      <trkpt lat="45.39142" lon="2.8853">
        <ele>1089.8</ele>
        <time>2018-08-08T09:48:11Z</time>
      </trkpt>
      <trkpt lat="45.39156" lon="2.88609">
        <ele>1100.1</ele>
        <time>2018-08-08T09:49:11Z</time>
      </trkpt>
      <trkpt lat="45.39219" lon="2.88643">
        <ele>1105</ele>
        <time>2018-08-08T09:50:11Z</time>
      </trkpt>
      <trkpt lat="45.39272" lon="2.88735">
        <ele>1112.1</ele>
        <time>2018-08-08T09:51:11Z</time>
      </trkpt>
      <trkpt lat="45.39269" lon="2.88839">
        <ele>1117.5</ele>
        <time>2018-08-08T09:52:11Z</time>
      </trkpt>
      <trkpt lat="45.39249" lon="2.8894">
        <ele>1128.1</ele>
        <time>2018-08-08T09:53:11Z</time>
      </trkpt>
      <trkpt lat="45.39264" lon="2.89025">
        <ele>1138.5</ele>
        <time>2018-08-08T09:54:11Z</time>
      </trkpt>
      <trkpt lat="45.39257" lon="2.89103">
        <ele>1149.2</ele>
        <time>2018-08-08T09:55:11Z</time>
      </trkpt>
      <trkpt lat="45.39343" lon="2.89156">
        <ele>1150.7</ele>
        <time>2018-08-08T09:56:11Z</time>
      </trkpt>
      <trkpt lat="45.39389" lon="2.89223">
        <ele>1155.3</ele>
        <time>2018-08-08T09:57:11Z</time>
      </trkpt>
      <trkpt lat="45.39416" lon="2.89324">
        <ele>1164.1</ele>
        <time>2018-08-08T09:58:11Z</time>
      </trkpt>
      <trkpt lat="45.39407" lon="2.89456">
        <ele>1171.6</ele>
        <time>2018-08-08T09:59:11Z</time>
      </trkpt>
      <trkpt lat="45.39469" lon="2.8957">
        <ele>1177.9</ele>
        <time>2018-08-08T10:00:11Z</time>
      </trkpt>
      <trkpt lat="45.39506" lon="2.89666">
        <ele>1182.3</ele>
        <time>2018-08-08T10:01:11Z</time>
      </trkpt>
      <trkpt lat="45.39548" lon="2.89739">
        <ele>1180.9</ele>
        <time>2018-08-08T10:02:11Z</time>
      </trkpt>
      <trkpt lat="45.39597" lon="2.89812">
        <ele>1178.4</ele>
        <time>2018-08-08T10:03:11Z</time>
      </trkpt>
      <trkpt lat="45.39544" lon="2.89961">
        <ele>1190.2</ele>
        <time>2018-08-08T10:04:11Z</time>
      </trkpt>
      <trkpt lat="45.3957" lon="2.90014">
        <ele>1189.6</ele>
        <time>2018-08-08T10:05:11Z</time>
      </trkpt>
      <trkpt lat="45.39524" lon="2.90065">
        <ele>1197.2</ele>
        <time>2018-08-08T10:06:11Z</time>
      </trkpt>
      <trkpt lat="45.39507" lon="2.90199">
        <ele>1204.6</ele>
        <time>2018-08-08T10:07:11Z</time>
      </trkpt>
      <trkpt lat="45.39492" lon="2.90209">
        <ele>1206.8</ele>
        <time>2018-08-08T10:08:11Z</time>
      </trkpt>
      <trkpt lat="45.39437" lon="2.90261">
        <ele>1213.9</ele>
        <time>2018-08-08T10:09:11Z</time>
      </trkpt>
      <trkpt lat="45.39381" lon="2.903">
        <ele>1219.1</ele>
        <time>2018-08-08T10:10:11Z</time>
      </trkpt>
      <trkpt lat="45.39315" lon="2.90414">
        <ele>1229.3</ele>
        <time>2018-08-08T10:11:11Z</time>
      </trkpt>
      <trkpt lat="45.39237" lon="2.90421">
        <ele>1231.2</ele>
        <time>2018-08-08T10:12:11Z</time>
      </trkpt>
      <trkpt lat="45.39283" lon="2.90499">
        <ele>1235.9</ele>
        <time>2018-08-08T10:13:11Z</time>
      </trkpt>
      <trkpt lat="45.39281" lon="2.9053">
        <ele>1237.3</ele>
        <time>2018-08-08T10:14:11Z</time>
      </trkpt>
      <trkpt lat="45.39245" lon="2.90642">
        <ele>1241.7</ele>
        <time>2018-08-08T10:15:11Z</time>
      </trkpt>
      <trkpt lat="45.39249" lon="2.90668">
        <ele>1242</ele>
        <time>2018-08-08T10:16:11Z</time>
      </trkpt>
      <trkpt lat="45.39239" lon="2.90771">
        <ele>1241.6</ele>
        <time>2018-08-08T10:17:11Z</time>
      </trkpt>
      <trkpt lat="45.39246" lon="2.9085">
        <ele>1243.6</ele>
        <time>2018-08-08T10:18:11Z</time>
      </trkpt>
      <trkpt lat="45.39256" lon="2.90926">
        <ele>1243.4</ele>
        <time>2018-08-08T10:19:11Z</time>
      </trkpt>
      <trkpt lat="45.39252" lon="2.91">
        <ele>1245.6</ele>
        <time>2018-08-08T10:20:11Z</time>
      </trkpt>
      <trkpt lat="45.39246" lon="2.91048">
        <ele>1248.8</ele>
        <time>2018-08-08T10:21:11Z</time>
      </trkpt>
      <trkpt lat="45.39262" lon="2.91152">
        <ele>1250</ele>
        <time>2018-08-08T10:22:11Z</time>
      </trkpt>
      <trkpt lat="45.39269" lon="2.9123">
        <ele>1250.2</ele>
        <time>2018-08-08T10:23:11Z</time>
      </trkpt>
      <trkpt lat="45.3923" lon="2.91361">
        <ele>1248.7</ele>
        <time>2018-08-08T10:24:11Z</time>
      </trkpt>
      <trkpt lat="45.39199" lon="2.9146">
        <ele>1245.8</ele>
        <time>2018-08-08T10:25:11Z</time>
      </trkpt>
      <trkpt lat="45.39184" lon="2.91561">
        <ele>1240.9</ele>
        <time>2018-08-08T10:26:11Z</time>
      </trkpt>
      <trkpt lat="45.39186" lon="2.91546">
        <ele>1241.8</ele>
        <time>2018-08-08T10:27:11Z</time>
      </trkpt>
      <trkpt lat="45.39139" lon="2.91633">
        <ele>1241.6</ele>
        <time>2018-08-08T10:28:11Z</time>
      </trkpt>
      <trkpt lat="45.39057" lon="2.91706">
        <ele>1241.2</ele>
        <time>2018-08-08T10:29:11Z</time>
      </trkpt>
      <trkpt lat="45.3899" lon="2.91764">
        <ele>1239.3</ele>
        <time>2018-08-08T10:30:11Z</time>
      </trkpt>
      <trkpt lat="45.38928" lon="2.91824">
        <ele>1238.1</ele>
        <time>2018-08-08T10:31:11Z</time>
      </trkpt>
      <trkpt lat="45.38887" lon="2.9187">
        <ele>1237</ele>
        <time>2018-08-08T10:32:11Z</time>
      </trkpt>
      <trkpt lat="45.38877" lon="2.91849">
        <ele>1237.9</ele>
        <time>2018-08-08T10:33:11Z</time>
      </trkpt>
      <trkpt lat="45.38906" lon="2.91831">
        <ele>1239</ele>
        <time>2018-08-08T10:34:11Z</time>
      </trkpt>
      <trkpt lat="45.38818" lon="2.91879">
        <ele>1238</ele>
        <time>2018-08-08T10:35:11Z</time>
      </trkpt>
      <trkpt lat="45.389" lon="2.91846">
        <ele>1238.1</ele>
        <time>2018-08-08T10:36:11Z</time>
      </trkpt>
      <trkpt lat="45.38911" lon="2.9183">
        <ele>1239.2</ele>
        <time>2018-08-08T10:37:11Z</time>
      </trkpt>
      <trkpt lat="45.38896" lon="2.91851">
        <ele>1237.8</ele>
        <time>2018-08-08T10:38:11Z</time>
      </trkpt>
      <trkpt lat="45.38697" lon="2.91882">
        <ele>1238.4</ele>
        <time>2018-08-08T10:39:11Z</time>
      </trkpt>
      <trkpt lat="45.38897" lon="2.91852">
        <ele>1237.8</ele>
        <time>2018-08-08T10:40:11Z</time>
      </trkpt>
      <trkpt lat="45.38923" lon="2.91849">
        <ele>1237</ele>
        <time>2018-08-08T10:41:11Z</time>
      </trkpt>
      <trkpt lat="45.38914" lon="2.9187">
        <ele>1236.4</ele>
        <time>2018-08-08T10:42:11Z</time>
      </trkpt>
      <trkpt lat="45.38901" lon="2.91969">
        <ele>1230.7</ele>
        <time>2018-08-08T10:43:11Z</time>
      </trkpt>
      <trkpt lat="45.38836" lon="2.92121">
        <ele>1222.2</ele>
        <time>2018-08-08T10:44:11Z</time>
      </trkpt>
      <trkpt lat="45.38807" lon="2.92161">
        <ele>1220.7</ele>
        <time>2018-08-08T10:45:11Z</time>
      </trkpt>
      <trkpt lat="45.3885" lon="2.92187">
        <ele>1217</ele>
        <time>2018-08-08T10:46:11Z</time>
      </trkpt>
      <trkpt lat="45.38842" lon="2.92254">
        <ele>1211.8</ele>
        <time>2018-08-08T10:47:11Z</time>
      </trkpt>
      <trkpt lat="45.38829" lon="2.92286">
        <ele>1208.6</ele>
        <time>2018-08-08T10:48:11Z</time>
      </trkpt>
      <trkpt lat="45.38797" lon="2.92307">
        <ele>1208.1</ele>
        <time>2018-08-08T10:49:11Z</time>
      </trkpt>
      <trkpt lat="45.38837" lon="2.92357">
        <ele>1202.9</ele>
        <time>2018-08-08T10:50:11Z</time>
      </trkpt>
      <trkpt lat="45.38854" lon="2.92437">
        <ele>1207.1</ele>
        <time>2018-08-08T10:51:11Z</time>
      </trkpt>
      <trkpt lat="45.38838" lon="2.92481">
        <ele>1211.3</ele>
        <time>2018-08-08T10:52:11Z</time>
      </trkpt>
      <trkpt lat="45.38844" lon="2.92548">
        <ele>1217</ele>
        <time>2018-08-08T10:53:11Z</time>
      </trkpt>
      <trkpt lat="45.38821" lon="2.92721">
        <ele>1226.1</ele>
        <time>2018-08-08T10:54:11Z</time>
      </trkpt>
      <trkpt lat="45.38814" lon="2.92817">
        <ele>1228.3</ele>
        <time>2018-08-08T10:55:11Z</time>
      </trkpt>
      <trkpt lat="45.38795" lon="2.92914">
        <ele>1229.1</ele>
        <time>2018-08-08T10:56:11Z</time>
      </trkpt>
      <trkpt lat="45.38777" lon="2.93012">
        <ele>1230.8</ele>
        <time>2018-08-08T10:57:11Z</time>
      </trkpt>
      <trkpt lat="45.38752" lon="2.9312">
        <ele>1236.1</ele>
        <time>2018-08-08T10:58:11Z</time>
      </trkpt>
      <trkpt lat="45.38721" lon="2.93206">
        <ele>1238.2</ele>
        <time>2018-08-08T10:59:11Z</time>
      </trkpt>
      <trkpt lat="45.38665" lon="2.93274">
        <ele>1237.1</ele>
        <time>2018-08-08T11:00:11Z</time>
      </trkpt>
      <trkpt lat="45.38611" lon="2.93338">
        <ele>1240.3</ele>
        <time>2018-08-08T11:01:11Z</time>
      </trkpt>
      <trkpt lat="45.38555" lon="2.93406">
        <ele>1244.4</ele>
        <time>2018-08-08T11:02:11Z</time>
      </trkpt>
      <trkpt lat="45.38505" lon="2.93469">
        <ele>1248.2</ele>
        <time>2018-08-08T11:03:11Z</time>
      </trkpt>
      <trkpt lat="45.38475" lon="2.93514">
        <ele>1252.4</ele>
        <time>2018-08-08T11:04:11Z</time>
      </trkpt>
      <trkpt lat="45.38419" lon="2.93585">
        <ele>1261.9</ele>
        <time>2018-08-08T11:05:11Z</time>
      </trkpt>
      <trkpt lat="45.3836" lon="2.93648">
        <ele>1267.6</ele>
        <time>2018-08-08T11:06:11Z</time>
      </trkpt>
      <trkpt lat="45.38321" lon="2.93721">
        <ele>1271.2</ele>
        <time>2018-08-08T11:07:11Z</time>
      </trkpt>
      <trkpt lat="45.38275" lon="2.93814">
        <ele>1270.4</ele>
        <time>2018-08-08T11:08:11Z</time>
      </trkpt>
      <trkpt lat="45.38239" lon="2.93911">
        <ele>1267.7</ele>
        <time>2018-08-08T11:09:11Z</time>
      </trkpt>
      <trkpt lat="45.382" lon="2.94004">
        <ele>1259.7</ele>
        <time>2018-08-08T11:10:11Z</time>
      </trkpt>
      <trkpt lat="45.38165" lon="2.94079">
        <ele>1252.4</ele>
        <time>2018-08-08T11:11:11Z</time>
      </trkpt>
      <trkpt lat="45.38124" lon="2.94176">
        <ele>1249</ele>
        <time>2018-08-08T11:12:11Z</time>
      </trkpt>
      <trkpt lat="45.38083" lon="2.94265">
        <ele>1250.8</ele>
        <time>2018-08-08T11:13:11Z</time>
      </trkpt>
      <trkpt lat="45.38035" lon="2.94347">
        <ele>1252.4</ele>
        <time>2018-08-08T11:14:11Z</time>
      </trkpt>
      <trkpt lat="45.37983" lon="2.94407">
        <ele>1252</ele>
        <time>2018-08-08T11:15:11Z</time>
      </trkpt>
      <trkpt lat="45.37955" lon="2.94456">
        <ele>1252.4</ele>
        <time>2018-08-08T11:16:11Z</time>
      </trkpt>
      <trkpt lat="45.37889" lon="2.94525">
        <ele>1249</ele>
        <time>2018-08-08T11:17:11Z</time>
      </trkpt>
      <trkpt lat="45.37832" lon="2.94599">
        <ele>1248.3</ele>
        <time>2018-08-08T11:18:11Z</time>
      </trkpt>
      <trkpt lat="45.3781" lon="2.94668">
        <ele>1250.1</ele>
        <time>2018-08-08T11:19:11Z</time>
      </trkpt>
      <trkpt lat="45.37788" lon="2.9473">
        <ele>1248.8</ele>
        <time>2018-08-08T11:20:11Z</time>
      </trkpt>
      <trkpt lat="45.37775" lon="2.94803">
        <ele>1247.8</ele>
        <time>2018-08-08T11:21:11Z</time>
      </trkpt>
      <trkpt lat="45.37771" lon="2.94916">
        <ele>1247.6</ele>
        <time>2018-08-08T11:22:11Z</time>
      </trkpt>
      <trkpt lat="45.37744" lon="2.95029">
        <ele>1236.6</ele>
        <time>2018-08-08T11:23:11Z</time>
      </trkpt>
      <trkpt lat="45.37688" lon="2.95092">
        <ele>1221.3</ele>
        <time>2018-08-08T11:24:11Z</time>
      </trkpt>
      <trkpt lat="45.37645" lon="2.95164">
        <ele>1222.5</ele>
        <time>2018-08-08T11:25:11Z</time>
      </trkpt>
      <trkpt lat="45.37627" lon="2.95276">
        <ele>1224.1</ele>
        <time>2018-08-08T11:26:11Z</time>
      </trkpt>
      <trkpt lat="45.37589" lon="2.95366">
        <ele>1213.1</ele>
        <time>2018-08-08T11:27:11Z</time>
      </trkpt>
      <trkpt lat="45.37531" lon="2.95455">
        <ele>1199.8</ele>
        <time>2018-08-08T11:28:11Z</time>
      </trkpt>
      <trkpt lat="45.37456" lon="2.9549">
        <ele>1193.8</ele>
        <time>2018-08-08T11:29:11Z</time>
      </trkpt>
      <trkpt lat="45.37378" lon="2.95514">
        <ele>1188.3</ele>
        <time>2018-08-08T11:30:11Z</time>
      </trkpt>
      <trkpt lat="45.37347" lon="2.95549">
        <ele>1180.4</ele>
        <time>2018-08-08T11:31:11Z</time>
      </trkpt>
      <trkpt lat="45.3729" lon="2.95527">
        <ele>1183.4</ele>
        <time>2018-08-08T11:32:11Z</time>
      </trkpt>
      <trkpt lat="45.37207" lon="2.95498">
        <ele>1187.5</ele>
        <time>2018-08-08T11:33:11Z</time>
      </trkpt>
      <trkpt lat="45.37187" lon="2.95487">
        <ele>1189.3</ele>
        <time>2018-08-08T11:34:11Z</time>
      </trkpt>
      <trkpt lat="45.37182" lon="2.95462">
        <ele>1193.6</ele>
        <time>2018-08-08T11:35:11Z</time>
      </trkpt>
      <trkpt lat="45.37126" lon="2.95469">
        <ele>1193.3</ele>
        <time>2018-08-08T11:36:11Z</time>
      </trkpt>
      <trkpt lat="45.37082" lon="2.9549">
        <ele>1191.7</ele>
        <time>2018-08-08T11:37:11Z</time>
      </trkpt>
      <trkpt lat="45.37035" lon="2.95503">
        <ele>1190.7</ele>
        <time>2018-08-08T11:38:11Z</time>
      </trkpt>
      <trkpt lat="45.36969" lon="2.95472">
        <ele>1200.3</ele>
        <time>2018-08-08T11:39:11Z</time>
      </trkpt>
      <trkpt lat="45.3694" lon="2.95476">
        <ele>1200.9</ele>
        <time>2018-08-08T11:40:11Z</time>
      </trkpt>
      <trkpt lat="45.36894" lon="2.95522">
        <ele>1192.5</ele>
        <time>2018-08-08T11:41:11Z</time>
      </trkpt>
      <trkpt lat="45.36818" lon="2.95538">
        <ele>1187</ele>
        <time>2018-08-08T11:42:11Z</time>
      </trkpt>
      <trkpt lat="45.36779" lon="2.95557">
        <ele>1182.5</ele>
        <time>2018-08-08T11:43:11Z</time>
      </trkpt>
      <trkpt lat="45.36742" lon="2.95573">
        <ele>1180</ele>
        <time>2018-08-08T11:44:11Z</time>
      </trkpt>
      <trkpt lat="45.36686" lon="2.9556">
        <ele>1181.7</ele>
        <time>2018-08-08T11:45:11Z</time>
      </trkpt>
      <trkpt lat="45.36636" lon="2.95562">
        <ele>1185</ele>
        <time>2018-08-08T11:46:11Z</time>
      </trkpt>
      <trkpt lat="45.36595" lon="2.95608">
        <ele>1195</ele>
        <time>2018-08-08T11:47:11Z</time>
      </trkpt>
      <trkpt lat="45.36558" lon="2.95669">
        <ele>1210.9</ele>
        <time>2018-08-08T11:48:11Z</time>
      </trkpt>
      <trkpt lat="45.36535" lon="2.95734">
        <ele>1220.8</ele>
        <time>2018-08-08T11:49:11Z</time>
      </trkpt>
      <trkpt lat="45.36502" lon="2.95857">
        <ele>1241.4</ele>
        <time>2018-08-08T11:50:11Z</time>
      </trkpt>
      <trkpt lat="45.3648" lon="2.95916">
        <ele>1253.6</ele>
        <time>2018-08-08T11:51:11Z</time>
      </trkpt>
      <trkpt lat="45.3645" lon="2.95965">
        <ele>1267.1</ele>
        <time>2018-08-08T11:52:11Z</time>
      </trkpt>
      <trkpt lat="45.36418" lon="2.96029">
        <ele>1282</ele>
        <time>2018-08-08T11:53:11Z</time>
      </trkpt>
      <trkpt lat="45.36386" lon="2.96097">
        <ele>1292.2</ele>
        <time>2018-08-08T11:54:11Z</time>
      </trkpt>
      <trkpt lat="45.36325" lon="2.96029">
        <ele>1285.7</ele>
        <time>2018-08-08T11:55:11Z</time>
      </trkpt>
      <trkpt lat="45.36263" lon="2.96102">
        <ele>1287</ele>
        <time>2018-08-08T11:56:11Z</time>
      </trkpt>
      <trkpt lat="45.36208" lon="2.96187">
        <ele>1282</ele>
        <time>2018-08-08T11:57:11Z</time>
      </trkpt>
      <trkpt lat="45.3615" lon="2.96276">
        <ele>1272.3</ele>
        <time>2018-08-08T11:58:11Z</time>
      </trkpt>
      <trkpt lat="45.36083" lon="2.96362">
        <ele>1263</ele>
        <time>2018-08-08T11:59:11Z</time>
      </trkpt>
      <trkpt lat="45.36021" lon="2.96442">
        <ele>1254.9</ele>
        <time>2018-08-08T12:00:11Z</time>
      </trkpt>
      <trkpt lat="45.36011" lon="2.96543">
        <ele>1242</ele>
        <time>2018-08-08T12:01:11Z</time>
      </trkpt>
      <trkpt lat="45.36063" lon="2.96637">
        <ele>1235.7</ele>
        <time>2018-08-08T12:02:11Z</time>
      </trkpt>
      <trkpt lat="45.36103" lon="2.96749">
        <ele>1230</ele>
        <time>2018-08-08T12:03:11Z</time>
      </trkpt>
      <trkpt lat="45.36117" lon="2.96872">
        <ele>1228.4</ele>
        <time>2018-08-08T12:04:11Z</time>
      </trkpt>
      <trkpt lat="45.36168" lon="2.96951">
        <ele>1227</ele>
        <time>2018-08-08T12:05:11Z</time>
      </trkpt>
      <trkpt lat="45.36186" lon="2.97001">
        <ele>1227.9</ele>
        <time>2018-08-08T12:06:11Z</time>
      </trkpt>
      <trkpt lat="45.36172" lon="2.97088">
        <ele>1231.1</ele>
        <time>2018-08-08T12:07:11Z</time>
      </trkpt>
      <trkpt lat="45.36121" lon="2.97125">
        <ele>1235.8</ele>
        <time>2018-08-08T12:08:11Z</time>
      </trkpt>
      <trkpt lat="45.36123" lon="2.97234">
        <ele>1236</ele>
        <time>2018-08-08T12:09:11Z</time>
      </trkpt>
      <trkpt lat="45.36147" lon="2.97338">
        <ele>1238</ele>
        <time>2018-08-08T12:10:11Z</time>
      </trkpt>
      <trkpt lat="45.36168" lon="2.97431">
        <ele>1245.1</ele>
        <time>2018-08-08T12:11:11Z</time>
      </trkpt>
      <trkpt lat="45.36152" lon="2.97485">
        <ele>1254.1</ele>
        <time>2018-08-08T12:12:11Z</time>
      </trkpt>
      <trkpt lat="45.3616" lon="2.97567">
        <ele>1261.6</ele>
        <time>2018-08-08T12:13:11Z</time>
      </trkpt>
      <trkpt lat="45.36166" lon="2.97664">
        <ele>1265.9</ele>
        <time>2018-08-08T12:14:11Z</time>
      </trkpt>
      <trkpt lat="45.36124" lon="2.97734">
        <ele>1272.2</ele>
        <time>2018-08-08T12:15:11Z</time>
      </trkpt>
      <trkpt lat="45.3606" lon="2.97751">
        <ele>1277.4</ele>
        <time>2018-08-08T12:16:11Z</time>
      </trkpt>
      <trkpt lat="45.36013" lon="2.97817">
        <ele>1287.1</ele>
        <time>2018-08-08T12:17:11Z</time>
      </trkpt>
      <trkpt lat="45.36008" lon="2.97884">
        <ele>1298.6</ele>
        <time>2018-08-08T12:18:11Z</time>
      </trkpt>
      <trkpt lat="45.35963" lon="2.97937">
        <ele>1310.5</ele>
        <time>2018-08-08T12:19:11Z</time>
      </trkpt>
      <trkpt lat="45.3593" lon="2.98008">
        <ele>1322.1</ele>
        <time>2018-08-08T12:20:11Z</time>
      </trkpt>
      <trkpt lat="45.35907" lon="2.98076">
        <ele>1328.5</ele>
        <time>2018-08-08T12:21:11Z</time>
      </trkpt>
      <trkpt lat="45.35872" lon="2.98188">
        <ele>1336</ele>
        <time>2018-08-08T12:22:11Z</time>
      </trkpt>
      <trkpt lat="45.35859" lon="2.98272">
        <ele>1337.9</ele>
        <time>2018-08-08T12:23:11Z</time>
      </trkpt>
      <trkpt lat="45.35858" lon="2.98396">
        <ele>1332.1</ele>
        <time>2018-08-08T12:24:11Z</time>
      </trkpt>
      <trkpt lat="45.35861" lon="2.98503">
        <ele>1323.8</ele>
        <time>2018-08-08T12:25:11Z</time>
      </trkpt>
      <trkpt lat="45.35845" lon="2.98619">
        <ele>1335.4</ele>
        <time>2018-08-08T12:26:11Z</time>
      </trkpt>
      <trkpt lat="45.35837" lon="2.9873">
        <ele>1346.9</ele>
        <time>2018-08-08T12:27:11Z</time>
      </trkpt>
      <trkpt lat="45.35829" lon="2.98845">
        <ele>1353.2</ele>
        <time>2018-08-08T12:28:11Z</time>
      </trkpt>
      <trkpt lat="45.35822" lon="2.98965">
        <ele>1349.1</ele>
        <time>2018-08-08T12:29:11Z</time>
      </trkpt>
      <trkpt lat="45.35813" lon="2.99079">
        <ele>1341.4</ele>
        <time>2018-08-08T12:30:11Z</time>
      </trkpt>
      <trkpt lat="45.35778" lon="2.99177">
        <ele>1335.6</ele>
        <time>2018-08-08T12:31:11Z</time>
      </trkpt>
      <trkpt lat="45.35734" lon="2.99275">
        <ele>1331.5</ele>
        <time>2018-08-08T12:32:11Z</time>
      </trkpt>
      <trkpt lat="45.35701" lon="2.99383">
        <ele>1317</ele>
        <time>2018-08-08T12:33:11Z</time>
      </trkpt>
      <trkpt lat="45.35646" lon="2.99415">
        <ele>1305.6</ele>
        <time>2018-08-08T12:34:11Z</time>
      </trkpt>
      <trkpt lat="45.35577" lon="2.99357">
        <ele>1299.8</ele>
        <time>2018-08-08T12:35:11Z</time>
      </trkpt>
      <trkpt lat="45.35501" lon="2.99327">
        <ele>1301.3</ele>
        <time>2018-08-08T12:36:11Z</time>
      </trkpt>
      <trkpt lat="45.35428" lon="2.99364">
        <ele>1301.2</ele>
        <time>2018-08-08T12:37:11Z</time>
      </trkpt>
      <trkpt lat="45.35367" lon="2.99425">
        <ele>1303.4</ele>
        <time>2018-08-08T12:38:11Z</time>
      </trkpt>
      <trkpt lat="45.35354" lon="2.99527">
        <ele>1304.9</ele>
        <time>2018-08-08T12:39:11Z</time>
      </trkpt>
      <trkpt lat="45.35283" lon="2.99567">
        <ele>1316.7</ele>
        <time>2018-08-08T12:40:11Z</time>
      </trkpt>
      <trkpt lat="45.35224" lon="2.99523">
        <ele>1323.1</ele>
        <time>2018-08-08T12:41:11Z</time>
      </trkpt>
      <trkpt lat="45.35176" lon="2.99447">
        <ele>1324.6</ele>
        <time>2018-08-08T12:42:11Z</time>
      </trkpt>
      <trkpt lat="45.35105" lon="2.99386">
        <ele>1336.9</ele>
        <time>2018-08-08T12:43:11Z</time>
      </trkpt>
      <trkpt lat="45.35075" lon="2.99316">
        <ele>1348.8</ele>
        <time>2018-08-08T12:44:11Z</time>
      </trkpt>
      <trkpt lat="45.35033" lon="2.99229">
        <ele>1362.2</ele>
        <time>2018-08-08T12:45:11Z</time>
      </trkpt>
      <trkpt lat="45.34995" lon="2.99139">
        <ele>1373.5</ele>
        <time>2018-08-08T12:46:11Z</time>
      </trkpt>
      <trkpt lat="45.34957" lon="2.99058">
        <ele>1381.1</ele>
        <time>2018-08-08T12:47:11Z</time>
      </trkpt>
      <trkpt lat="45.34881" lon="2.9901">
        <ele>1389.8</ele>
        <time>2018-08-08T12:48:11Z</time>
      </trkpt>
      <trkpt lat="45.34811" lon="2.99027">
        <ele>1394.3</ele>
        <time>2018-08-08T12:49:11Z</time>
      </trkpt>
      <trkpt lat="45.34735" lon="2.99015">
        <ele>1403.9</ele>
        <time>2018-08-08T12:50:11Z</time>
      </trkpt>
      <trkpt lat="45.34668" lon="2.98997">
        <ele>1412.7</ele>
        <time>2018-08-08T12:51:11Z</time>
      </trkpt>
      <trkpt lat="45.34586" lon="2.98989">
        <ele>1424.5</ele>
        <time>2018-08-08T12:52:11Z</time>
      </trkpt>
      <trkpt lat="45.34514" lon="2.98979">
        <ele>1432.9</ele>
        <time>2018-08-08T12:53:11Z</time>
      </trkpt>
      <trkpt lat="45.34436" lon="2.98974">
        <ele>1439.6</ele>
        <time>2018-08-08T12:54:11Z</time>
      </trkpt>
      <trkpt lat="45.34361" lon="2.98975">
        <ele>1448.5</ele>
        <time>2018-08-08T12:55:11Z</time>
      </trkpt>
      <trkpt lat="45.34276" lon="2.98979">
        <ele>1455.3</ele>
        <time>2018-08-08T12:56:11Z</time>
      </trkpt>
      <trkpt lat="45.34196" lon="2.98976">
        <ele>1462.1</ele>
        <time>2018-08-08T12:57:11Z</time>
      </trkpt>
      <trkpt lat="45.34122" lon="2.98963">
        <ele>1469.4</ele>
        <time>2018-08-08T12:58:11Z</time>
      </trkpt>
      <trkpt lat="45.34046" lon="2.98928">
        <ele>1477.3</ele>
        <time>2018-08-08T12:59:11Z</time>
      </trkpt>
      <trkpt lat="45.33984" lon="2.98859">
        <ele>1489.6</ele>
        <time>2018-08-08T13:00:11Z</time>
      </trkpt>
      <trkpt lat="45.33949" lon="2.98763">
        <ele>1504.3</ele>
        <time>2018-08-08T13:01:11Z</time>
      </trkpt>
      <trkpt lat="45.33892" lon="2.98673">
        <ele>1508.2</ele>
        <time>2018-08-08T13:02:11Z</time>
      </trkpt>
      <trkpt lat="45.33858" lon="2.98631">
        <ele>1508.5</ele>
        <time>2018-08-08T13:03:11Z</time>
      </trkpt>
      <trkpt lat="45.33836" lon="2.98589">
        <ele>1508.1</ele>
        <time>2018-08-08T13:04:11Z</time>
      </trkpt>
      <trkpt lat="45.33798" lon="2.98537">
        <ele>1508.3</ele>
        <time>2018-08-08T13:05:11Z</time>
      </trkpt>
      <trkpt lat="45.33843" lon="2.98604">
        <ele>1508.2</ele>
        <time>2018-08-08T13:06:11Z</time>
      </trkpt>
      <trkpt lat="45.33833" lon="2.98643">
        <ele>1506.6</ele>
        <time>2018-08-08T13:07:11Z</time>
      </trkpt>
      <trkpt lat="45.33774" lon="2.9868">
        <ele>1508.1</ele>
        <time>2018-08-08T13:08:11Z</time>
      </trkpt>
      <trkpt lat="45.33726" lon="2.9875">
        <ele>1509.1</ele>
        <time>2018-08-08T13:09:11Z</time>
      </trkpt>
      <trkpt lat="45.33698" lon="2.98834">
        <ele>1513.3</ele>
        <time>2018-08-08T13:10:11Z</time>
      </trkpt>
      <trkpt lat="45.33669" lon="2.98889">
        <ele>1516.6</ele>
        <time>2018-08-08T13:11:11Z</time>
      </trkpt>
      <trkpt lat="45.33647" lon="2.98885">
        <ele>1520.5</ele>
        <time>2018-08-08T13:12:11Z</time>
      </trkpt>
      <trkpt lat="45.33639" lon="2.98873">
        <ele>1522.4</ele>
        <time>2018-08-08T13:13:11Z</time>
      </trkpt>
      <trkpt lat="45.33648" lon="2.98882">
        <ele>1520.5</ele>
        <time>2018-08-08T13:14:11Z</time>
      </trkpt>
      <trkpt lat="45.33653" lon="2.9887">
        <ele>1520.1</ele>
        <time>2018-08-08T13:15:11Z</time>
      </trkpt>
      <trkpt lat="45.33661" lon="2.98884">
        <ele>1518.1</ele>
        <time>2018-08-08T13:16:11Z</time>
      </trkpt>
      <trkpt lat="45.33655" lon="2.9887">
        <ele>1519.7</ele>
        <time>2018-08-08T13:17:11Z</time>
      </trkpt>
      <trkpt lat="45.33664" lon="2.98876">
        <ele>1518</ele>
        <time>2018-08-08T13:18:11Z</time>
      </trkpt>
      <trkpt lat="45.33649" lon="2.98868">
        <ele>1520.9</ele>
        <time>2018-08-08T13:19:11Z</time>
      </trkpt>
      <trkpt lat="45.33659" lon="2.9887">
        <ele>1519</ele>
        <time>2018-08-08T13:20:11Z</time>
      </trkpt>
      <trkpt lat="45.33664" lon="2.98889">
        <ele>1517.5</ele>
        <time>2018-08-08T13:21:11Z</time>
      </trkpt>
      <trkpt lat="45.33716" lon="2.98777">
        <ele>1510.4</ele>
        <time>2018-08-08T13:22:11Z</time>
      </trkpt>
      <trkpt lat="45.33749" lon="2.98699">
        <ele>1508.6</ele>
        <time>2018-08-08T13:23:11Z</time>
      </trkpt>
      <trkpt lat="45.33818" lon="2.98645">
        <ele>1507.1</ele>
        <time>2018-08-08T13:24:11Z</time>
      </trkpt>
      <trkpt lat="45.33872" lon="2.98621">
        <ele>1509.7</ele>
        <time>2018-08-08T13:25:11Z</time>
      </trkpt>
      <trkpt lat="45.33844" lon="2.98552">
        <ele>1509.3</ele>
        <time>2018-08-08T13:26:11Z</time>
      </trkpt>
      <trkpt lat="45.33789" lon="2.98477">
        <ele>1508.3</ele>
        <time>2018-08-08T13:27:11Z</time>
      </trkpt>
      <trkpt lat="45.33759" lon="2.98417">
        <ele>1507.2</ele>
        <time>2018-08-08T13:28:11Z</time>
      </trkpt>
      <trkpt lat="45.33725" lon="2.98318">
        <ele>1504.2</ele>
        <time>2018-08-08T13:29:11Z</time>
      </trkpt>
      <trkpt lat="45.33678" lon="2.98226">
        <ele>1498.6</ele>
        <time>2018-08-08T13:30:11Z</time>
      </trkpt>
      <trkpt lat="45.33648" lon="2.98121">
        <ele>1493.4</ele>
        <time>2018-08-08T13:31:11Z</time>
      </trkpt>
      <trkpt lat="45.33627" lon="2.98085">
        <ele>1492.9</ele>
        <time>2018-08-08T13:32:11Z</time>
      </trkpt>
      <trkpt lat="45.33586" lon="2.97982">
        <ele>1492.7</ele>
        <time>2018-08-08T13:33:11Z</time>
      </trkpt>
      <trkpt lat="45.33543" lon="2.97882">
        <ele>1492.7</ele>
        <time>2018-08-08T13:34:11Z</time>
      </trkpt>
      <trkpt lat="45.3351" lon="2.97789">
        <ele>1498.9</ele>
        <time>2018-08-08T13:35:11Z</time>
      </trkpt>
      <trkpt lat="45.33466" lon="2.97697">
        <ele>1507.5</ele>
        <time>2018-08-08T13:36:11Z</time>
      </trkpt>
      <trkpt lat="45.3343" lon="2.976">
        <ele>1511.2</ele>
        <time>2018-08-08T13:37:11Z</time>
      </trkpt>
      <trkpt lat="45.33392" lon="2.97498">
        <ele>1509.5</ele>
        <time>2018-08-08T13:38:11Z</time>
      </trkpt>
      <trkpt lat="45.3337" lon="2.97385">
        <ele>1498.9</ele>
        <time>2018-08-08T13:39:11Z</time>
      </trkpt>
      <trkpt lat="45.3333" lon="2.9728">
        <ele>1488.4</ele>
        <time>2018-08-08T13:40:11Z</time>
      </trkpt>
      <trkpt lat="45.33309" lon="2.97168">
        <ele>1482.7</ele>
        <time>2018-08-08T13:41:11Z</time>
      </trkpt>
      <trkpt lat="45.33276" lon="2.97056">
        <ele>1482</ele>
        <time>2018-08-08T13:42:11Z</time>
      </trkpt>
      <trkpt lat="45.33268" lon="2.9697">
        <ele>1476.2</ele>
        <time>2018-08-08T13:43:11Z</time>
      </trkpt>
      <trkpt lat="45.33246" lon="2.96872">
        <ele>1467.3</ele>
        <time>2018-08-08T13:44:11Z</time>
      </trkpt>
      <trkpt lat="45.33254" lon="2.96765">
        <ele>1458.2</ele>
        <time>2018-08-08T13:45:11Z</time>
      </trkpt>
      <trkpt lat="45.33296" lon="2.96651">
        <ele>1456.7</ele>
        <time>2018-08-08T13:46:11Z</time>
      </trkpt>
      <trkpt lat="45.33293" lon="2.96627">
        <ele>1460.2</ele>
        <time>2018-08-08T13:47:11Z</time>
      </trkpt>
      <trkpt lat="45.33304" lon="2.96601">
        <ele>1462</ele>
        <time>2018-08-08T13:48:11Z</time>
      </trkpt>
      <trkpt lat="45.3332" lon="2.96499">
        <ele>1473</ele>
        <time>2018-08-08T13:49:11Z</time>
      </trkpt>
      <trkpt lat="45.33333" lon="2.96397">
        <ele>1473.5</ele>
        <time>2018-08-08T13:50:11Z</time>
      </trkpt>
      <trkpt lat="45.33346" lon="2.96306">
        <ele>1470.9</ele>
        <time>2018-08-08T13:51:11Z</time>
      </trkpt>
      <trkpt lat="45.33367" lon="2.96206">
        <ele>1468.8</ele>
        <time>2018-08-08T13:52:11Z</time>
      </trkpt>
      <trkpt lat="45.33356" lon="2.96101">
        <ele>1464.7</ele>
        <time>2018-08-08T13:53:11Z</time>
      </trkpt>
      <trkpt lat="45.33359" lon="2.96021">
        <ele>1462.7</ele>
        <time>2018-08-08T13:54:11Z</time>
      </trkpt>
      <trkpt lat="45.33308" lon="2.95952">
        <ele>1455.7</ele>
        <time>2018-08-08T13:55:11Z</time>
      </trkpt>
      <trkpt lat="45.33259" lon="2.95875">
        <ele>1449.4</ele>
        <time>2018-08-08T13:56:11Z</time>
      </trkpt>
      <trkpt lat="45.33215" lon="2.95883">
        <ele>1446.4</ele>
        <time>2018-08-08T13:57:11Z</time>
      </trkpt>
      <trkpt lat="45.3315" lon="2.95922">
        <ele>1443.4</ele>
        <time>2018-08-08T13:58:11Z</time>
      </trkpt>
      <trkpt lat="45.33072" lon="2.95912">
        <ele>1445.6</ele>
        <time>2018-08-08T13:59:11Z</time>
      </trkpt>
      <trkpt lat="45.33019" lon="2.95898">
        <ele>1448.5</ele>
        <time>2018-08-08T14:00:11Z</time>
      </trkpt>
      <trkpt lat="45.32993" lon="2.95813">
        <ele>1451.5</ele>
        <time>2018-08-08T14:01:11Z</time>
      </trkpt>
      <trkpt lat="45.32978" lon="2.95706">
        <ele>1453.7</ele>
        <time>2018-08-08T14:02:11Z</time>
      </trkpt>
      <trkpt lat="45.32956" lon="2.95629">
        <ele>1455.7</ele>
        <time>2018-08-08T14:03:11Z</time>
      </trkpt>
      <trkpt lat="45.3289" lon="2.95561">
        <ele>1459.6</ele>
        <time>2018-08-08T14:04:11Z</time>
      </trkpt>
      <trkpt lat="45.32841" lon="2.95503">
        <ele>1461.8</ele>
        <time>2018-08-08T14:05:11Z</time>
      </trkpt>
      <trkpt lat="45.32782" lon="2.95438">
        <ele>1462.9</ele>
        <time>2018-08-08T14:06:11Z</time>
      </trkpt>
      <trkpt lat="45.32723" lon="2.95369">
        <ele>1464.7</ele>
        <time>2018-08-08T14:07:11Z</time>
      </trkpt>
      <trkpt lat="45.32681" lon="2.95289">
        <ele>1463.7</ele>
        <time>2018-08-08T14:08:11Z</time>
      </trkpt>
      <trkpt lat="45.32675" lon="2.95266">
        <ele>1462.6</ele>
        <time>2018-08-08T14:09:11Z</time>
      </trkpt>
      <trkpt lat="45.32701" lon="2.95231">
        <ele>1459.5</ele>
        <time>2018-08-08T14:10:11Z</time>
      </trkpt>
      <trkpt lat="45.32723" lon="2.95174">
        <ele>1455.7</ele>
        <time>2018-08-08T14:11:11Z</time>
      </trkpt>
      <trkpt lat="45.32773" lon="2.95089">
        <ele>1449.2</ele>
        <time>2018-08-08T14:12:11Z</time>
      </trkpt>
      <trkpt lat="45.32805" lon="2.95">
        <ele>1446.3</ele>
        <time>2018-08-08T14:13:11Z</time>
      </trkpt>
      <trkpt lat="45.3284" lon="2.94927">
        <ele>1442.6</ele>
        <time>2018-08-08T14:14:11Z</time>
      </trkpt>
      <trkpt lat="45.32854" lon="2.94868">
        <ele>1434.1</ele>
        <time>2018-08-08T14:15:11Z</time>
      </trkpt>
      <trkpt lat="45.32882" lon="2.94822">
        <ele>1429.1</ele>
        <time>2018-08-08T14:16:11Z</time>
      </trkpt>
      <trkpt lat="45.3293" lon="2.94735">
        <ele>1420.3</ele>
        <time>2018-08-08T14:17:11Z</time>
      </trkpt>
      <trkpt lat="45.32986" lon="2.9464">
        <ele>1410.9</ele>
        <time>2018-08-08T14:18:11Z</time>
      </trkpt>
      <trkpt lat="45.33043" lon="2.94558">
        <ele>1397</ele>
        <time>2018-08-08T14:19:11Z</time>
      </trkpt>
      <trkpt lat="45.33121" lon="2.94495">
        <ele>1387.7</ele>
        <time>2018-08-08T14:20:11Z</time>
      </trkpt>
      <trkpt lat="45.33193" lon="2.94448">
        <ele>1385</ele>
        <time>2018-08-08T14:21:11Z</time>
      </trkpt>
      <trkpt lat="45.33242" lon="2.94359">
        <ele>1372.9</ele>
        <time>2018-08-08T14:22:11Z</time>
      </trkpt>
      <trkpt lat="45.33293" lon="2.94274">
        <ele>1356.9</ele>
        <time>2018-08-08T14:23:11Z</time>
      </trkpt>
      <trkpt lat="45.33399" lon="2.94247">
        <ele>1339.7</ele>
        <time>2018-08-08T14:24:11Z</time>
      </trkpt>
      <trkpt lat="45.33487" lon="2.94247">
        <ele>1324</ele>
        <time>2018-08-08T14:25:11Z</time>
      </trkpt>
      <trkpt lat="45.33506" lon="2.94223">
        <ele>1319.7</ele>
        <time>2018-08-08T14:26:11Z</time>
      </trkpt>
      <trkpt lat="45.33553" lon="2.94156">
        <ele>1311.7</ele>
        <time>2018-08-08T14:27:11Z</time>
      </trkpt>
      <trkpt lat="45.33717" lon="2.94126">
        <ele>1295.5</ele>
        <time>2018-08-08T14:28:11Z</time>
      </trkpt>
      <trkpt lat="45.33783" lon="2.94095">
        <ele>1290.3</ele>
        <time>2018-08-08T14:29:11Z</time>
      </trkpt>
      <trkpt lat="45.33818" lon="2.94129">
        <ele>1290.9</ele>
        <time>2018-08-08T14:30:11Z</time>
      </trkpt>
      <trkpt lat="45.33877" lon="2.9416">
        <ele>1289.2</ele>
        <time>2018-08-08T14:31:11Z</time>
      </trkpt>
      <trkpt lat="45.33951" lon="2.94189">
        <ele>1289.8</ele>
        <time>2018-08-08T14:32:11Z</time>
      </trkpt>
      <trkpt lat="45.34002" lon="2.9412">
        <ele>1299.8</ele>
        <time>2018-08-08T14:33:11Z</time>
      </trkpt>
      <trkpt lat="45.33969" lon="2.94012">
        <ele>1309.9</ele>
        <time>2018-08-08T14:34:11Z</time>
      </trkpt>
      <trkpt lat="45.33943" lon="2.93927">
        <ele>1311.7</ele>
        <time>2018-08-08T14:35:11Z</time>
      </trkpt>
      <trkpt lat="45.33882" lon="2.93861">
        <ele>1306.9</ele>
        <time>2018-08-08T14:36:11Z</time>
      </trkpt>
      <trkpt lat="45.33833" lon="2.93753">
        <ele>1310.7</ele>
        <time>2018-08-08T14:37:11Z</time>
      </trkpt>
      <trkpt lat="45.33794" lon="2.93646">
        <ele>1308.3</ele>
        <time>2018-08-08T14:38:11Z</time>
      </trkpt>
      <trkpt lat="45.33736" lon="2.93555">
        <ele>1303.9</ele>
        <time>2018-08-08T14:39:11Z</time>
      </trkpt>
      <trkpt lat="45.33664" lon="2.93511">
        <ele>1301</ele>
        <time>2018-08-08T14:40:11Z</time>
      </trkpt>
      <trkpt lat="45.33589" lon="2.93419">
        <ele>1297.7</ele>
        <time>2018-08-08T14:41:11Z</time>
      </trkpt>
      <trkpt lat="45.33543" lon="2.93326">
        <ele>1294.2</ele>
        <time>2018-08-08T14:42:11Z</time>
      </trkpt>
      <trkpt lat="45.33508" lon="2.9323">
        <ele>1290.8</ele>
        <time>2018-08-08T14:43:11Z</time>
      </trkpt>
      <trkpt lat="45.33466" lon="2.93122">
        <ele>1285.4</ele>
        <time>2018-08-08T14:44:11Z</time>
      </trkpt>
      <trkpt lat="45.33479" lon="2.93012">
        <ele>1279.8</ele>
        <time>2018-08-08T14:45:11Z</time>
      </trkpt>
      <trkpt lat="45.33541" lon="2.92919">
        <ele>1280</ele>
        <time>2018-08-08T14:46:11Z</time>
      </trkpt>
      <trkpt lat="45.33589" lon="2.92818">
        <ele>1278.7</ele>
        <time>2018-08-08T14:47:11Z</time>
      </trkpt>
      <trkpt lat="45.33644" lon="2.92721">
        <ele>1279.5</ele>
        <time>2018-08-08T14:48:11Z</time>
      </trkpt>
      <trkpt lat="45.33677" lon="2.92614">
        <ele>1283.2</ele>
        <time>2018-08-08T14:49:11Z</time>
      </trkpt>
      <trkpt lat="45.33664" lon="2.92489">
        <ele>1280.6</ele>
        <time>2018-08-08T14:50:11Z</time>
      </trkpt>
      <trkpt lat="45.33663" lon="2.92374">
        <ele>1273.1</ele>
        <time>2018-08-08T14:51:11Z</time>
      </trkpt>
      <trkpt lat="45.33634" lon="2.92259">
        <ele>1260.2</ele>
        <time>2018-08-08T14:52:11Z</time>
      </trkpt>
      <trkpt lat="45.33617" lon="2.92146">
        <ele>1251.7</ele>
        <time>2018-08-08T14:53:11Z</time>
      </trkpt>
      <trkpt lat="45.33598" lon="2.92022">
        <ele>1244.5</ele>
        <time>2018-08-08T14:54:11Z</time>
      </trkpt>
      <trkpt lat="45.33529" lon="2.9197">
        <ele>1236.9</ele>
        <time>2018-08-08T14:55:11Z</time>
      </trkpt>
      <trkpt lat="45.33502" lon="2.91862">
        <ele>1231.5</ele>
        <time>2018-08-08T14:56:11Z</time>
      </trkpt>
      <trkpt lat="45.33516" lon="2.91736">
        <ele>1221.3</ele>
        <time>2018-08-08T14:57:11Z</time>
      </trkpt>
      <trkpt lat="45.33596" lon="2.91667">
        <ele>1229.4</ele>
        <time>2018-08-08T14:58:11Z</time>
      </trkpt>
      <trkpt lat="45.33619" lon="2.91566">
        <ele>1229.6</ele>
        <time>2018-08-08T14:59:11Z</time>
      </trkpt>
      <trkpt lat="45.33578" lon="2.9145">
        <ele>1215.5</ele>
        <time>2018-08-08T15:00:11Z</time>
      </trkpt>
      <trkpt lat="45.33544" lon="2.91321">
        <ele>1205.4</ele>
        <time>2018-08-08T15:01:11Z</time>
      </trkpt>
      <trkpt lat="45.33537" lon="2.91196">
        <ele>1198.3</ele>
        <time>2018-08-08T15:02:11Z</time>
      </trkpt>
      <trkpt lat="45.33536" lon="2.91075">
        <ele>1190.2</ele>
        <time>2018-08-08T15:03:11Z</time>
      </trkpt>
      <trkpt lat="45.33487" lon="2.90969">
        <ele>1181</ele>
        <time>2018-08-08T15:04:11Z</time>
      </trkpt>
      <trkpt lat="45.3341" lon="2.90885">
        <ele>1176.1</ele>
        <time>2018-08-08T15:05:11Z</time>
      </trkpt>
      <trkpt lat="45.33401" lon="2.90851">
        <ele>1175.8</ele>
        <time>2018-08-08T15:06:11Z</time>
      </trkpt>
      <trkpt lat="45.33382" lon="2.90748">
        <ele>1175.8</ele>
        <time>2018-08-08T15:07:11Z</time>
      </trkpt>
      <trkpt lat="45.33333" lon="2.90643">
        <ele>1174.9</ele>
        <time>2018-08-08T15:08:11Z</time>
      </trkpt>
      <trkpt lat="45.33291" lon="2.90546">
        <ele>1172.8</ele>
        <time>2018-08-08T15:09:11Z</time>
      </trkpt>
      <trkpt lat="45.3327" lon="2.90437">
        <ele>1174.4</ele>
        <time>2018-08-08T15:10:11Z</time>
      </trkpt>
      <trkpt lat="45.33274" lon="2.90325">
        <ele>1179.5</ele>
        <time>2018-08-08T15:11:11Z</time>
      </trkpt>
      <trkpt lat="45.3327" lon="2.90189">
        <ele>1179.1</ele>
        <time>2018-08-08T15:12:11Z</time>
      </trkpt>
      <trkpt lat="45.33215" lon="2.90072">
        <ele>1167.3</ele>
        <time>2018-08-08T15:13:11Z</time>
      </trkpt>
      <trkpt lat="45.33245" lon="2.89962">
        <ele>1169</ele>
        <time>2018-08-08T15:14:11Z</time>
      </trkpt>
      <trkpt lat="45.33268" lon="2.89854">
        <ele>1172</ele>
        <time>2018-08-08T15:15:11Z</time>
      </trkpt>
      <trkpt lat="45.33235" lon="2.89746">
        <ele>1161.6</ele>
        <time>2018-08-08T15:16:11Z</time>
      </trkpt>
      <trkpt lat="45.33237" lon="2.89614">
        <ele>1157.5</ele>
        <time>2018-08-08T15:17:11Z</time>
      </trkpt>
      <trkpt lat="45.33196" lon="2.89487">
        <ele>1147</ele>
        <time>2018-08-08T15:18:11Z</time>
      </trkpt>
      <trkpt lat="45.33144" lon="2.89372">
        <ele>1139.9</ele>
        <time>2018-08-08T15:19:11Z</time>
      </trkpt>
      <trkpt lat="45.33095" lon="2.8927">
        <ele>1135.3</ele>
        <time>2018-08-08T15:20:11Z</time>
      </trkpt>
      <trkpt lat="45.33042" lon="2.89167">
        <ele>1131</ele>
        <time>2018-08-08T15:21:11Z</time>
      </trkpt>
      <trkpt lat="45.32991" lon="2.8906">
        <ele>1129.4</ele>
        <time>2018-08-08T15:22:11Z</time>
      </trkpt>
      <trkpt lat="45.32934" lon="2.88966">
        <ele>1125.2</ele>
        <time>2018-08-08T15:23:11Z</time>
      </trkpt>
      <trkpt lat="45.32917" lon="2.88857">
        <ele>1124.3</ele>
        <time>2018-08-08T15:24:11Z</time>
      </trkpt>
      <trkpt lat="45.32946" lon="2.8878">
        <ele>1127.6</ele>
        <time>2018-08-08T15:25:11Z</time>
      </trkpt>
      <trkpt lat="45.32927" lon="2.8877">
        <ele>1124.3</ele>
        <time>2018-08-08T15:26:11Z</time>
      </trkpt>
      <trkpt lat="45.32945" lon="2.88794">
        <ele>1127.6</ele>
        <time>2018-08-08T15:27:11Z</time>
      </trkpt>
      <trkpt lat="45.32893" lon="2.88699">
        <ele>1118.9</ele>
        <time>2018-08-08T15:28:11Z</time>
      </trkpt>
      <trkpt lat="45.3287" lon="2.88649">
        <ele>1115.1</ele>
        <time>2018-08-08T15:29:11Z</time>
      </trkpt>
      <trkpt lat="45.32837" lon="2.88619">
        <ele>1109.9</ele>
        <time>2018-08-08T15:30:11Z</time>
      </trkpt>
      <trkpt lat="45.32767" lon="2.88606">
        <ele>1095.2</ele>
        <time>2018-08-08T15:31:11Z</time>
      </trkpt>
      <trkpt lat="45.32702" lon="2.88581">
        <ele>1082.1</ele>
        <time>2018-08-08T15:32:11Z</time>
      </trkpt>
      <trkpt lat="45.32683" lon="2.88532">
        <ele>1073.5</ele>
        <time>2018-08-08T15:33:11Z</time>
      </trkpt>
      <trkpt lat="45.32651" lon="2.88567">
        <ele>1071.7</ele>
        <time>2018-08-08T15:34:11Z</time>
      </trkpt>
      <trkpt lat="45.3262" lon="2.88623">
        <ele>1070</ele>
        <time>2018-08-08T15:35:11Z</time>
      </trkpt>
      <trkpt lat="45.32603" lon="2.88601">
        <ele>1066.3</ele>
        <time>2018-08-08T15:36:11Z</time>
      </trkpt>
      <trkpt lat="45.32566" lon="2.88583">
        <ele>1064.3</ele>
        <time>2018-08-08T15:37:11Z</time>
      </trkpt>
      <trkpt lat="45.32578" lon="2.88523">
        <ele>1060.4</ele>
        <time>2018-08-08T15:38:11Z</time>
      </trkpt>
      <trkpt lat="45.32535" lon="2.88545">
        <ele>1070.5</ele>
        <time>2018-08-08T15:39:11Z</time>
      </trkpt>
      <trkpt lat="45.325" lon="2.88544">
        <ele>1078.3</ele>
        <time>2018-08-08T15:40:11Z</time>
      </trkpt>
      <trkpt lat="45.32414" lon="2.88482">
        <ele>1106.7</ele>
        <time>2018-08-08T15:41:11Z</time>
      </trkpt>
      <trkpt lat="45.32375" lon="2.8845">
        <ele>1108.9</ele>
        <time>2018-08-08T15:42:11Z</time>
      </trkpt>
      <trkpt lat="45.32329" lon="2.884">
        <ele>1113.1</ele>
        <time>2018-08-08T15:43:11Z</time>
      </trkpt>
      <trkpt lat="45.32271" lon="2.88323">
        <ele>1117.2</ele>
        <time>2018-08-08T15:44:11Z</time>
      </trkpt>
      <trkpt lat="45.32232" lon="2.88269">
        <ele>1124.5</ele>
        <time>2018-08-08T15:45:11Z</time>
      </trkpt>
      <trkpt lat="45.32163" lon="2.88245">
        <ele>1127.8</ele>
        <time>2018-08-08T15:46:11Z</time>
      </trkpt>
      <trkpt lat="45.3213" lon="2.8821">
        <ele>1133.3</ele>
        <time>2018-08-08T15:47:11Z</time>
      </trkpt>
      <trkpt lat="45.3214" lon="2.88111">
        <ele>1138.9</ele>
        <time>2018-08-08T15:48:11Z</time>
      </trkpt>
      <trkpt lat="45.32129" lon="2.88014">
        <ele>1146.9</ele>
        <time>2018-08-08T15:49:11Z</time>
      </trkpt>
      <trkpt lat="45.32128" lon="2.87948">
        <ele>1151.5</ele>
        <time>2018-08-08T15:50:11Z</time>
      </trkpt>
      <trkpt lat="45.32083" lon="2.87952">
        <ele>1156.9</ele>
        <time>2018-08-08T15:51:11Z</time>
      </trkpt>
      <trkpt lat="45.32043" lon="2.87962">
        <ele>1162.1</ele>
        <time>2018-08-08T15:52:11Z</time>
      </trkpt>
      <trkpt lat="45.31987" lon="2.87949">
        <ele>1171.8</ele>
        <time>2018-08-08T15:53:11Z</time>
      </trkpt>
      <trkpt lat="45.31957" lon="2.87943">
        <ele>1178</ele>
        <time>2018-08-08T15:54:11Z</time>
      </trkpt>
      <trkpt lat="45.31896" lon="2.87911">
        <ele>1192.1</ele>
        <time>2018-08-08T15:55:11Z</time>
      </trkpt>
      <trkpt lat="45.31833" lon="2.87889">
        <ele>1199.5</ele>
        <time>2018-08-08T15:56:11Z</time>
      </trkpt>
      <trkpt lat="45.31778" lon="2.87867">
        <ele>1208.3</ele>
        <time>2018-08-08T15:57:11Z</time>
      </trkpt>
      <trkpt lat="45.31722" lon="2.8781">
        <ele>1220.3</ele>
        <time>2018-08-08T15:58:11Z</time>
      </trkpt>
      <trkpt lat="45.31707" lon="2.87687">
        <ele>1226.6</ele>
        <time>2018-08-08T15:59:11Z</time>
      </trkpt>
      <trkpt lat="45.31679" lon="2.87581">
        <ele>1226.6</ele>
        <time>2018-08-08T16:00:11Z</time>
      </trkpt>
      <trkpt lat="45.31729" lon="2.87509">
        <ele>1218.4</ele>
        <time>2018-08-08T16:01:11Z</time>
      </trkpt>
      <trkpt lat="45.3171" lon="2.87375">
        <ele>1222.6</ele>
        <time>2018-08-08T16:02:11Z</time>
      </trkpt>
      <trkpt lat="45.3168" lon="2.87285">
        <ele>1221.8</ele>
        <time>2018-08-08T16:03:11Z</time>
      </trkpt>
      <trkpt lat="45.31703" lon="2.87159">
        <ele>1210.6</ele>
        <time>2018-08-08T16:04:11Z</time>
      </trkpt>
      <trkpt lat="45.31766" lon="2.871">
        <ele>1199.2</ele>
        <time>2018-08-08T16:05:11Z</time>
      </trkpt>
      <trkpt lat="45.31793" lon="2.87032">
        <ele>1189.7</ele>
        <time>2018-08-08T16:06:11Z</time>
      </trkpt>
      <trkpt lat="45.31785" lon="2.86903">
        <ele>1173.3</ele>
        <time>2018-08-08T16:07:11Z</time>
      </trkpt>
      <trkpt lat="45.31853" lon="2.86919">
        <ele>1170.2</ele>
        <time>2018-08-08T16:08:11Z</time>
      </trkpt>
      <trkpt lat="45.31894" lon="2.86819">
        <ele>1160.8</ele>
        <time>2018-08-08T16:09:11Z</time>
      </trkpt>
      <trkpt lat="45.31867" lon="2.86738">
        <ele>1156.5</ele>
        <time>2018-08-08T16:10:11Z</time>
      </trkpt>
      <trkpt lat="45.31779" lon="2.86658">
        <ele>1153.6</ele>
        <time>2018-08-08T16:11:11Z</time>
      </trkpt>
      <trkpt lat="45.31716" lon="2.86657">
        <ele>1154.3</ele>
        <time>2018-08-08T16:12:11Z</time>
      </trkpt>
      <trkpt lat="45.31645" lon="2.86643">
        <ele>1152.3</ele>
        <time>2018-08-08T16:13:11Z</time>
      </trkpt>
      <trkpt lat="45.31582" lon="2.86571">
        <ele>1141</ele>
        <time>2018-08-08T16:14:11Z</time>
      </trkpt>
      <trkpt lat="45.3154" lon="2.86473">
        <ele>1126.7</ele>
        <time>2018-08-08T16:15:11Z</time>
      </trkpt>
      <trkpt lat="45.31523" lon="2.86373">
        <ele>1116.8</ele>
        <time>2018-08-08T16:16:11Z</time>
      </trkpt>
      <trkpt lat="45.31483" lon="2.86358">
        <ele>1114.5</ele>
        <time>2018-08-08T16:17:11Z</time>
      </trkpt>
      <trkpt lat="45.31467" lon="2.86373">
        <ele>1115.1</ele>
        <time>2018-08-08T16:18:11Z</time>
      </trkpt>
      <trkpt lat="45.31405" lon="2.86472">
        <ele>1121.4</ele>
        <time>2018-08-08T16:19:11Z</time>
      </trkpt>
      <trkpt lat="45.31352" lon="2.86494">
        <ele>1119.1</ele>
        <time>2018-08-08T16:20:11Z</time>
      </trkpt>
      <trkpt lat="45.31319" lon="2.86481">
        <ele>1117</ele>
        <time>2018-08-08T16:21:11Z</time>
      </trkpt>
      <trkpt lat="45.31297" lon="2.86503">
        <ele>1119.1</ele>
        <time>2018-08-08T16:22:11Z</time>
      </trkpt>
      <trkpt lat="45.3123" lon="2.86511">
        <ele>1121.2</ele>
        <time>2018-08-08T16:23:11Z</time>
      </trkpt>
      <trkpt lat="45.31155" lon="2.86519">
        <ele>1123.1</ele>
        <time>2018-08-08T16:24:11Z</time>
      </trkpt>
      <trkpt lat="45.31098" lon="2.86504">
        <ele>1124.6</ele>
        <time>2018-08-08T16:25:11Z</time>
      </trkpt>
      <trkpt lat="45.31036" lon="2.8647">
        <ele>1128.9</ele>
        <time>2018-08-08T16:26:11Z</time>
      </trkpt>
      <trkpt lat="45.3099" lon="2.86457">
        <ele>1134.7</ele>
        <time>2018-08-08T16:27:11Z</time>
      </trkpt>
      <trkpt lat="45.30963" lon="2.86471">
        <ele>1139.7</ele>
        <time>2018-08-08T16:28:11Z</time>
      </trkpt>
      <trkpt lat="45.30914" lon="2.8652">
        <ele>1146.3</ele>
        <time>2018-08-08T16:29:11Z</time>
      </trkpt>
      <trkpt lat="45.30892" lon="2.86482">
        <ele>1152.2</ele>
        <time>2018-08-08T16:30:11Z</time>
      </trkpt>
      <trkpt lat="45.30909" lon="2.86383">
        <ele>1154.9</ele>
        <time>2018-08-08T16:31:11Z</time>
      </trkpt>
      <trkpt lat="45.30945" lon="2.86281">
        <ele>1152.1</ele>
        <time>2018-08-08T16:32:11Z</time>
      </trkpt>
      <trkpt lat="45.30934" lon="2.86189">
        <ele>1153</ele>
        <time>2018-08-08T16:33:11Z</time>
      </trkpt>
      <trkpt lat="45.30911" lon="2.86087">
        <ele>1151.8</ele>
        <time>2018-08-08T16:34:11Z</time>
      </trkpt>
      <trkpt lat="45.30902" lon="2.86028">
        <ele>1142.4</ele>
        <time>2018-08-08T16:35:11Z</time>
      </trkpt>
      <trkpt lat="45.30885" lon="2.85871">
        <ele>1127</ele>
        <time>2018-08-08T16:36:11Z</time>
      </trkpt>
      <trkpt lat="45.30858" lon="2.85799">
        <ele>1135.1</ele>
        <time>2018-08-08T16:37:11Z</time>
      </trkpt>
      <trkpt lat="45.30833" lon="2.85693">
        <ele>1141</ele>
        <time>2018-08-08T16:38:11Z</time>
      </trkpt>
      <trkpt lat="45.30831" lon="2.85563">
        <ele>1140.4</ele>
        <time>2018-08-08T16:39:11Z</time>
      </trkpt>
      <trkpt lat="45.30817" lon="2.85465">
        <ele>1141.7</ele>
        <time>2018-08-08T16:40:11Z</time>
      </trkpt>
      <trkpt lat="45.30827" lon="2.85305">
        <ele>1135.5</ele>
        <time>2018-08-08T16:41:11Z</time>
      </trkpt>
      <trkpt lat="45.308" lon="2.8523">
        <ele>1139.6</ele>
        <time>2018-08-08T16:42:11Z</time>
      </trkpt>
      <trkpt lat="45.30783" lon="2.85128">
        <ele>1138.8</ele>
        <time>2018-08-08T16:43:11Z</time>
      </trkpt>
      <trkpt lat="45.30808" lon="2.84998">
        <ele>1134.5</ele>
        <time>2018-08-08T16:44:11Z</time>
      </trkpt>
      <trkpt lat="45.30822" lon="2.849">
        <ele>1133.6</ele>
        <time>2018-08-08T16:45:11Z</time>
      </trkpt>
      <trkpt lat="45.30812" lon="2.84942">
        <ele>1134.6</ele>
        <time>2018-08-08T16:46:11Z</time>
      </trkpt>
      <trkpt lat="45.3075" lon="2.85001">
        <ele>1140</ele>
        <time>2018-08-08T16:47:11Z</time>
      </trkpt>
      <trkpt lat="45.30698" lon="2.85056">
        <ele>1146.9</ele>
        <time>2018-08-08T16:48:11Z</time>
      </trkpt>
      <trkpt lat="45.30663" lon="2.85117">
        <ele>1152.9</ele>
        <time>2018-08-08T16:49:11Z</time>
      </trkpt>
      <trkpt lat="45.3063" lon="2.85007">
        <ele>1153.5</ele>
        <time>2018-08-08T16:50:11Z</time>
      </trkpt>
      <trkpt lat="45.30639" lon="2.84889">
        <ele>1152.7</ele>
        <time>2018-08-08T16:51:11Z</time>
      </trkpt>
      <trkpt lat="45.30684" lon="2.84762">
        <ele>1149.9</ele>
        <time>2018-08-08T16:52:11Z</time>
      </trkpt>
      <trkpt lat="45.3071" lon="2.84661">
        <ele>1146.6</ele>
        <time>2018-08-08T16:53:11Z</time>
      </trkpt>
      <trkpt lat="45.30741" lon="2.84548">
        <ele>1138</ele>
        <time>2018-08-08T16:54:11Z</time>
      </trkpt>
      <trkpt lat="45.30767" lon="2.84404">
        <ele>1124.7</ele>
        <time>2018-08-08T16:55:11Z</time>
      </trkpt>
      <trkpt lat="45.30773" lon="2.84281">
        <ele>1117.6</ele>
        <time>2018-08-08T16:56:11Z</time>
      </trkpt>
      <trkpt lat="45.30743" lon="2.8417">
        <ele>1119</ele>
        <time>2018-08-08T16:57:11Z</time>
      </trkpt>
      <trkpt lat="45.30689" lon="2.84058">
        <ele>1117.4</ele>
        <time>2018-08-08T16:58:11Z</time>
      </trkpt>
      <trkpt lat="45.30637" lon="2.83953">
        <ele>1108.5</ele>
        <time>2018-08-08T16:59:11Z</time>
      </trkpt>
      <trkpt lat="45.3061" lon="2.83822">
        <ele>1091.1</ele>
        <time>2018-08-08T17:00:11Z</time>
      </trkpt>
      <trkpt lat="45.30613" lon="2.8371">
        <ele>1083.2</ele>
        <time>2018-08-08T17:01:11Z</time>
      </trkpt>
      <trkpt lat="45.30621" lon="2.8358">
        <ele>1075.6</ele>
        <time>2018-08-08T17:02:11Z</time>
      </trkpt>
      <trkpt lat="45.30668" lon="2.83461">
        <ele>1068</ele>
        <time>2018-08-08T17:03:11Z</time>
      </trkpt>
      <trkpt lat="45.30707" lon="2.83352">
        <ele>1061.6</ele>
        <time>2018-08-08T17:04:11Z</time>
      </trkpt>
      <trkpt lat="45.30723" lon="2.83221">
        <ele>1059</ele>
        <time>2018-08-08T17:05:11Z</time>
      </trkpt>
      <trkpt lat="45.30681" lon="2.83125">
        <ele>1061.1</ele>
        <time>2018-08-08T17:06:11Z</time>
      </trkpt>
      <trkpt lat="45.30631" lon="2.83028">
        <ele>1065.7</ele>
        <time>2018-08-08T17:07:11Z</time>
      </trkpt>
      <trkpt lat="45.30565" lon="2.82969">
        <ele>1068.4</ele>
        <time>2018-08-08T17:08:11Z</time>
      </trkpt>
      <trkpt lat="45.30503" lon="2.82905">
        <ele>1068</ele>
        <time>2018-08-08T17:09:11Z</time>
      </trkpt>
      <trkpt lat="45.30532" lon="2.82811">
        <ele>1067.3</ele>
        <time>2018-08-08T17:10:11Z</time>
      </trkpt>
      <trkpt lat="45.30566" lon="2.828">
        <ele>1066.8</ele>
        <time>2018-08-08T17:11:11Z</time>
      </trkpt>
      <trkpt lat="45.30566" lon="2.82786">
        <ele>1066.6</ele>
        <time>2018-08-08T17:12:11Z</time>
      </trkpt>
      <trkpt lat="45.30611" lon="2.8277">
        <ele>1065.7</ele>
        <time>2018-08-08T17:13:11Z</time>
      </trkpt>
      <trkpt lat="45.30616" lon="2.82736">
        <ele>1065.5</ele>
        <time>2018-08-08T17:14:11Z</time>
      </trkpt>
      <trkpt lat="45.30647" lon="2.82726">
        <ele>1065</ele>
        <time>2018-08-08T17:15:11Z</time>
      </trkpt>
      <trkpt lat="45.30641" lon="2.82731">
        <ele>1065.1</ele>
        <time>2018-08-08T17:16:11Z</time>
      </trkpt>
      <trkpt lat="45.307" lon="2.8272">
        <ele>1062.5</ele>
        <time>2018-08-08T17:17:11Z</time>
      </trkpt>
      <trkpt lat="45.30708" lon="2.8272">
        <ele>1062</ele>
        <time>2018-08-08T17:18:11Z</time>
      </trkpt>
      <trkpt lat="45.30706" lon="2.82737">
        <ele>1062.4</ele>
        <time>2018-08-08T17:19:11Z</time>
      </trkpt>
      <trkpt lat="45.30727" lon="2.8274">
        <ele>1061.2</ele>
        <time>2018-08-08T17:20:11Z</time>
      </trkpt>
      <trkpt lat="45.30697" lon="2.82698">
        <ele>1062.3</ele>
        <time>2018-08-08T17:21:11Z</time>
      </trkpt>
      <trkpt lat="45.30731" lon="2.82734">
        <ele>1060.8</ele>
        <time>2018-08-08T17:22:11Z</time>
      </trkpt>
      <trkpt lat="45.30723" lon="2.82711">
        <ele>1060.8</ele>
        <time>2018-08-08T17:23:11Z</time>
      </trkpt>
      <trkpt lat="45.3077" lon="2.82734">
        <ele>1058.1</ele>
        <time>2018-08-08T17:24:11Z</time>
      </trkpt>
      <trkpt lat="45.3073" lon="2.82719">
        <ele>1060.5</ele>
        <time>2018-08-08T17:25:11Z</time>
      </trkpt>
      <trkpt lat="45.30742" lon="2.82717">
        <ele>1059.7</ele>
        <time>2018-08-08T17:26:11Z</time>
      </trkpt>
      <trkpt lat="45.30729" lon="2.82732">
        <ele>1060.9</ele>
        <time>2018-08-08T17:27:11Z</time>
      </trkpt>
      <trkpt lat="45.30747" lon="2.8273">
        <ele>1059.7</ele>
        <time>2018-08-08T17:28:11Z</time>
      </trkpt>
      <trkpt lat="45.30738" lon="2.82722">
        <ele>1060.1</ele>
        <time>2018-08-08T17:29:11Z</time>
      </trkpt>
      <trkpt lat="45.30693" lon="2.82715">
        <ele>1062.9</ele>
        <time>2018-08-08T17:30:11Z</time>
      </trkpt>
      <trkpt lat="45.30628" lon="2.82746">
        <ele>1065.4</ele>
        <time>2018-08-08T17:31:11Z</time>
      </trkpt>
      <trkpt lat="45.30582" lon="2.82787">
        <ele>1066.5</ele>
        <time>2018-08-08T17:32:11Z</time>
      </trkpt>
      <trkpt lat="45.30503" lon="2.8283">
        <ele>1067.9</ele>
        <time>2018-08-08T17:33:11Z</time>
      </trkpt>
      <trkpt lat="45.30426" lon="2.8283">
        <ele>1071.3</ele>
        <time>2018-08-08T17:34:11Z</time>
      </trkpt>
      <trkpt lat="45.3035" lon="2.82783">
        <ele>1065.2</ele>
        <time>2018-08-08T17:35:11Z</time>
      </trkpt>
      <trkpt lat="45.30268" lon="2.82766">
        <ele>1064.4</ele>
        <time>2018-08-08T17:36:11Z</time>
      </trkpt>
      <trkpt lat="45.30235" lon="2.82876">
        <ele>1072.1</ele>
        <time>2018-08-08T17:37:11Z</time>
      </trkpt>
      <trkpt lat="45.3022" lon="2.82998">
        <ele>1070.7</ele>
        <time>2018-08-08T17:38:11Z</time>
      </trkpt>
      <trkpt lat="45.30173" lon="2.83102">
        <ele>1070.3</ele>
        <time>2018-08-08T17:39:11Z</time>
      </trkpt>
      <trkpt lat="45.30109" lon="2.83209">
        <ele>1064</ele>
        <time>2018-08-08T17:40:11Z</time>
      </trkpt>
      <trkpt lat="45.30068" lon="2.83097">
        <ele>1049.2</ele>
        <time>2018-08-08T17:41:11Z</time>
      </trkpt>
      <trkpt lat="45.30075" lon="2.82977">
        <ele>1041.8</ele>
        <time>2018-08-08T17:42:11Z</time>
      </trkpt>
      <trkpt lat="45.30058" lon="2.82872">
        <ele>1043.4</ele>
        <time>2018-08-08T17:43:11Z</time>
      </trkpt>
      <trkpt lat="45.29997" lon="2.8271">
        <ele>1046.4</ele>
        <time>2018-08-08T17:44:11Z</time>
      </trkpt>
      <trkpt lat="45.2998" lon="2.82505">
        <ele>1036.2</ele>
        <time>2018-08-08T17:45:11Z</time>
      </trkpt>
      <trkpt lat="45.29946" lon="2.82362">
        <ele>1036.6</ele>
        <time>2018-08-08T17:46:11Z</time>
      </trkpt>
      <trkpt lat="45.29898" lon="2.82179">
        <ele>1040.2</ele>
        <time>2018-08-08T17:47:11Z</time>
      </trkpt>
      <trkpt lat="45.29846" lon="2.81989">
        <ele>1043.4</ele>
        <time>2018-08-08T17:48:11Z</time>
      </trkpt>
      <trkpt lat="45.29788" lon="2.81828">
        <ele>1040.4</ele>
        <time>2018-08-08T17:49:11Z</time>
      </trkpt>
      <trkpt lat="45.29765" lon="2.81651">
        <ele>1034.1</ele>
        <time>2018-08-08T17:50:11Z</time>
      </trkpt>
      <trkpt lat="45.29784" lon="2.81453">
        <ele>1029.1</ele>
        <time>2018-08-08T17:51:11Z</time>
      </trkpt>
      <trkpt lat="45.29789" lon="2.81223">
        <ele>1025.6</ele>
        <time>2018-08-08T17:52:11Z</time>
      </trkpt>
      <trkpt lat="45.29787" lon="2.81049">
        <ele>1019.4</ele>
        <time>2018-08-08T17:53:11Z</time>
      </trkpt>
      <trkpt lat="45.29751" lon="2.80882">
        <ele>1029.6</ele>
        <time>2018-08-08T17:54:11Z</time>
      </trkpt>
      <trkpt lat="45.29623" lon="2.8089">
        <ele>1045.6</ele>
        <time>2018-08-08T17:55:11Z</time>
      </trkpt>
      <trkpt lat="45.29503" lon="2.80848">
        <ele>1045.8</ele>
        <time>2018-08-08T17:56:11Z</time>
      </trkpt>
      <trkpt lat="45.29469" lon="2.80642">
        <ele>1024.3</ele>
        <time>2018-08-08T17:57:11Z</time>
      </trkpt>
      <trkpt lat="45.29374" lon="2.80499">
        <ele>1017.9</ele>
        <time>2018-08-08T17:58:11Z</time>
      </trkpt>
      <trkpt lat="45.29264" lon="2.80382">
        <ele>1015</ele>
        <time>2018-08-08T17:59:11Z</time>
      </trkpt>
      <trkpt lat="45.29142" lon="2.80297">
        <ele>1018.2</ele>
        <time>2018-08-08T18:00:11Z</time>
      </trkpt>
      <trkpt lat="45.29024" lon="2.80218">
        <ele>1016.7</ele>
        <time>2018-08-08T18:01:11Z</time>
      </trkpt>
      <trkpt lat="45.28964" lon="2.80103">
        <ele>1015</ele>
        <time>2018-08-08T18:02:11Z</time>
      </trkpt>
      <trkpt lat="45.28906" lon="2.80016">
        <ele>1016.3</ele>
        <time>2018-08-08T18:03:11Z</time>
      </trkpt>
      <trkpt lat="45.2883" lon="2.79948">
        <ele>1022.5</ele>
        <time>2018-08-08T18:04:11Z</time>
      </trkpt>
      <trkpt lat="45.28759" lon="2.79906">
        <ele>1030.8</ele>
        <time>2018-08-08T18:05:11Z</time>
      </trkpt>
      <trkpt lat="45.28693" lon="2.79816">
        <ele>1036.1</ele>
        <time>2018-08-08T18:06:11Z</time>
      </trkpt>
      <trkpt lat="45.28621" lon="2.79657">
        <ele>1046.4</ele>
        <time>2018-08-08T18:07:11Z</time>
      </trkpt>
      <trkpt lat="45.28545" lon="2.79494">
        <ele>1047.3</ele>
        <time>2018-08-08T18:08:11Z</time>
      </trkpt>
      <trkpt lat="45.28535" lon="2.79342">
        <ele>1050</ele>
        <time>2018-08-08T18:09:11Z</time>
      </trkpt>
      <trkpt lat="45.28459" lon="2.79195">
        <ele>1049</ele>
        <time>2018-08-08T18:10:11Z</time>
      </trkpt>
      <trkpt lat="45.28405" lon="2.79201">
        <ele>1034.1</ele>
        <time>2018-08-08T18:11:11Z</time>
      </trkpt>
      <trkpt lat="45.28323" lon="2.79155">
        <ele>1009.3</ele>
        <time>2018-08-08T18:12:11Z</time>
      </trkpt>
      <trkpt lat="45.28269" lon="2.79111">
        <ele>995.4</ele>
        <time>2018-08-08T18:13:11Z</time>
      </trkpt>
      <trkpt lat="45.28234" lon="2.79029">
        <ele>985.7</ele>
        <time>2018-08-08T18:14:11Z</time>
      </trkpt>
      <trkpt lat="45.282" lon="2.7902">
        <ele>975</ele>
        <time>2018-08-08T18:15:11Z</time>
      </trkpt>
      <trkpt lat="45.28169" lon="2.79005">
        <ele>964.9</ele>
        <time>2018-08-08T18:16:11Z</time>
      </trkpt>
      <trkpt lat="45.28157" lon="2.78908">
        <ele>948.1</ele>
        <time>2018-08-08T18:17:11Z</time>
      </trkpt>
      <trkpt lat="45.2811" lon="2.78889">
        <ele>931.8</ele>
        <time>2018-08-08T18:18:11Z</time>
      </trkpt>
      <trkpt lat="45.28094" lon="2.78933">
        <ele>933.4</ele>
        <time>2018-08-08T18:19:11Z</time>
      </trkpt>
      <trkpt lat="45.28046" lon="2.78905">
        <ele>917.4</ele>
        <time>2018-08-08T18:20:11Z</time>
      </trkpt>
      <trkpt lat="45.28043" lon="2.78817">
        <ele>907.1</ele>
        <time>2018-08-08T18:21:11Z</time>
      </trkpt>
      <trkpt lat="45.27955" lon="2.78813">
        <ele>901</ele>
        <time>2018-08-08T18:22:11Z</time>
      </trkpt>
      <trkpt lat="45.27875" lon="2.78749">
        <ele>899.5</ele>
        <time>2018-08-08T18:23:11Z</time>
      </trkpt>
      <trkpt lat="45.2782" lon="2.78658">
        <ele>898.6</ele>
        <time>2018-08-08T18:24:11Z</time>
      </trkpt>
      <trkpt lat="45.27879" lon="2.7858">
        <ele>903.6</ele>
        <time>2018-08-08T18:25:11Z</time>
      </trkpt>
      <trkpt lat="45.27943" lon="2.78508">
        <ele>900.4</ele>
        <time>2018-08-08T18:26:11Z</time>
      </trkpt>
      <trkpt lat="45.2791" lon="2.78507">
        <ele>905.1</ele>
        <time>2018-08-08T18:27:11Z</time>
      </trkpt>
      <trkpt lat="45.27875" lon="2.78473">
        <ele>915.6</ele>
        <time>2018-08-08T18:28:11Z</time>
      </trkpt>
      <trkpt lat="45.27863" lon="2.78374">
        <ele>930.1</ele>
        <time>2018-08-08T18:29:11Z</time>
      </trkpt>
      <trkpt lat="45.27881" lon="2.78313">
        <ele>934.4</ele>
        <time>2018-08-08T18:30:11Z</time>
      </trkpt>
      <trkpt lat="45.27822" lon="2.78298">
        <ele>951.2</ele>
        <time>2018-08-08T18:31:11Z</time>
      </trkpt>
      <trkpt lat="45.27776" lon="2.78246">
        <ele>967.5</ele>
        <time>2018-08-08T18:32:11Z</time>
      </trkpt>
      <trkpt lat="45.2781" lon="2.78178">
        <ele>968.8</ele>
        <time>2018-08-08T18:33:11Z</time>
      </trkpt>
      <trkpt lat="45.27809" lon="2.78109">
        <ele>976.9</ele>
        <time>2018-08-08T18:34:11Z</time>
      </trkpt>
      <trkpt lat="45.27807" lon="2.78089">
        <ele>979.5</ele>
        <time>2018-08-08T18:35:11Z</time>
      </trkpt>
      <trkpt lat="45.27839" lon="2.77992">
        <ele>984.3</ele>
        <time>2018-08-08T18:36:11Z</time>
      </trkpt>
      <trkpt lat="45.27862" lon="2.77905">
        <ele>982.2</ele>
        <time>2018-08-08T18:37:11Z</time>
      </trkpt>
      <trkpt lat="45.27871" lon="2.77818">
        <ele>988.4</ele>
        <time>2018-08-08T18:38:11Z</time>
      </trkpt>
      <trkpt lat="45.27898" lon="2.77698">
        <ele>997.2</ele>
        <time>2018-08-08T18:39:11Z</time>
      </trkpt>
      <trkpt lat="45.27926" lon="2.77591">
        <ele>997.2</ele>
        <time>2018-08-08T18:40:11Z</time>
      </trkpt>
      <trkpt lat="45.27951" lon="2.77478">
        <ele>996.2</ele>
        <time>2018-08-08T18:41:11Z</time>
      </trkpt>
      <trkpt lat="45.28005" lon="2.77393">
        <ele>1006</ele>
        <time>2018-08-08T18:42:11Z</time>
      </trkpt>
      <trkpt lat="45.28008" lon="2.77365">
        <ele>1012.5</ele>
        <time>2018-08-08T18:43:11Z</time>
      </trkpt>
      <trkpt lat="45.27967" lon="2.77367">
        <ele>1011.9</ele>
        <time>2018-08-08T18:44:11Z</time>
      </trkpt>
      <trkpt lat="45.27941" lon="2.7739">
        <ele>1009.1</ele>
        <time>2018-08-08T18:45:11Z</time>
      </trkpt>
      <trkpt lat="45.27977" lon="2.77347">
        <ele>1015.9</ele>
        <time>2018-08-08T18:46:11Z</time>
      </trkpt>
      <trkpt lat="45.28027" lon="2.77292">
        <ele>1026</ele>
        <time>2018-08-08T18:47:11Z</time>
      </trkpt>
      <trkpt lat="45.28059" lon="2.7724">
        <ele>1032.1</ele>
        <time>2018-08-08T18:48:11Z</time>
      </trkpt>
      <trkpt lat="45.28113" lon="2.77189">
        <ele>1034.6</ele>
        <time>2018-08-08T18:49:11Z</time>
      </trkpt>
      <trkpt lat="45.28132" lon="2.77175">
        <ele>1034.4</ele>
        <time>2018-08-08T18:50:11Z</time>
      </trkpt>
      <trkpt lat="45.28205" lon="2.77184">
        <ele>1030.1</ele>
        <time>2018-08-08T18:51:11Z</time>
      </trkpt>
      <trkpt lat="45.28279" lon="2.77102">
        <ele>1025.8</ele>
        <time>2018-08-08T18:52:11Z</time>
      </trkpt>
      <trkpt lat="45.28339" lon="2.77016">
        <ele>1027.4</ele>
        <time>2018-08-08T18:53:11Z</time>
      </trkpt>
      <trkpt lat="45.28404" lon="2.76963">
        <ele>1033.1</ele>
        <time>2018-08-08T18:54:11Z</time>
      </trkpt>
      <trkpt lat="45.28476" lon="2.76918">
        <ele>1038</ele>
        <time>2018-08-08T18:55:11Z</time>
      </trkpt>
      <trkpt lat="45.28504" lon="2.76798">
        <ele>1048.8</ele>
        <time>2018-08-08T18:56:11Z</time>
      </trkpt>
      <trkpt lat="45.28522" lon="2.76687">
        <ele>1051.9</ele>
        <time>2018-08-08T18:57:11Z</time>
      </trkpt>
      <trkpt lat="45.28548" lon="2.7659">
        <ele>1052.8</ele>
        <time>2018-08-08T18:58:11Z</time>
      </trkpt>
      <trkpt lat="45.28597" lon="2.7649">
        <ele>1046.6</ele>
        <time>2018-08-08T18:59:11Z</time>
      </trkpt>
      <trkpt lat="45.28666" lon="2.76474">
        <ele>1035.8</ele>
        <time>2018-08-08T19:00:11Z</time>
      </trkpt>
      <trkpt lat="45.28665" lon="2.76379">
        <ele>1033.8</ele>
        <time>2018-08-08T19:01:11Z</time>
      </trkpt>
      <trkpt lat="45.28748" lon="2.76344">
        <ele>1014.8</ele>
        <time>2018-08-08T19:02:11Z</time>
      </trkpt>
      <trkpt lat="45.28712" lon="2.76232">
        <ele>1015</ele>
        <time>2018-08-08T19:03:11Z</time>
      </trkpt>
      <trkpt lat="45.28735" lon="2.76145">
        <ele>1011.2</ele>
        <time>2018-08-08T19:04:11Z</time>
      </trkpt>
      <trkpt lat="45.28804" lon="2.76213">
        <ele>1001.5</ele>
        <time>2018-08-08T19:05:11Z</time>
      </trkpt>
      <trkpt lat="45.28798" lon="2.76168">
        <ele>1001.9</ele>
        <time>2018-08-08T19:06:11Z</time>
      </trkpt>
      <trkpt lat="45.28786" lon="2.76118">
        <ele>1004.4</ele>
        <time>2018-08-08T19:07:11Z</time>
      </trkpt>
      <trkpt lat="45.28802" lon="2.76124">
        <ele>1001.9</ele>
        <time>2018-08-08T08:26:24Z</time>
      </trkpt>
      <trkpt lat="45.288" lon="2.7613">
        <ele>1002.1</ele>
        <time>2018-08-08T08:27:24Z</time>
      </trkpt>
      <trkpt lat="45.28765" lon="2.76186">
        <ele>1007.7</ele>
        <time>2018-08-08T08:28:24Z</time>
      </trkpt>
      <trkpt lat="45.28715" lon="2.76154">
        <ele>1012.9</ele>
        <time>2018-08-08T08:29:24Z</time>
      </trkpt>
      <trkpt lat="45.28718" lon="2.76253">
        <ele>1015</ele>
        <time>2018-08-08T08:30:24Z</time>
      </trkpt>
      <trkpt lat="45.28749" lon="2.76339">
        <ele>1014.4</ele>
        <time>2018-08-08T08:31:24Z</time>
      </trkpt>
      <trkpt lat="45.28703" lon="2.76375">
        <ele>1025.6</ele>
        <time>2018-08-08T08:32:24Z</time>
      </trkpt>
      <trkpt lat="45.28639" lon="2.76367">
        <ele>1036.2</ele>
        <time>2018-08-08T08:33:24Z</time>
      </trkpt>
      <trkpt lat="45.2857" lon="2.76378">
        <ele>1043.3</ele>
        <time>2018-08-08T08:34:24Z</time>
      </trkpt>
      <trkpt lat="45.2849" lon="2.76403">
        <ele>1046.9</ele>
        <time>2018-08-08T08:35:24Z</time>
      </trkpt>
      <trkpt lat="45.28409" lon="2.76398">
        <ele>1035.5</ele>
        <time>2018-08-08T08:36:24Z</time>
      </trkpt>
      <trkpt lat="45.28297" lon="2.76311">
        <ele>1020.7</ele>
        <time>2018-08-08T08:37:24Z</time>
      </trkpt>
      <trkpt lat="45.28247" lon="2.76291">
        <ele>1019.8</ele>
        <time>2018-08-08T08:38:24Z</time>
      </trkpt>
      <trkpt lat="45.28194" lon="2.76308">
        <ele>1018.2</ele>
        <time>2018-08-08T08:39:24Z</time>
      </trkpt>
      <trkpt lat="45.28158" lon="2.76231">
        <ele>1013.3</ele>
        <time>2018-08-08T08:40:24Z</time>
      </trkpt>
      <trkpt lat="45.28089" lon="2.76167">
        <ele>1010.1</ele>
        <time>2018-08-08T08:41:24Z</time>
      </trkpt>
      <trkpt lat="45.2801" lon="2.7617">
        <ele>1013.6</ele>
        <time>2018-08-08T08:42:24Z</time>
      </trkpt>
      <trkpt lat="45.27951" lon="2.76227">
        <ele>1015</ele>
        <time>2018-08-08T08:43:24Z</time>
      </trkpt>
      <trkpt lat="45.27931" lon="2.76321">
        <ele>1019.6</ele>
        <time>2018-08-08T08:44:24Z</time>
      </trkpt>
      <trkpt lat="45.27917" lon="2.76426">
        <ele>1023.6</ele>
        <time>2018-08-08T08:45:24Z</time>
      </trkpt>
      <trkpt lat="45.27866" lon="2.76497">
        <ele>1031.3</ele>
        <time>2018-08-08T08:46:24Z</time>
      </trkpt>
      <trkpt lat="45.27799" lon="2.76539">
        <ele>1039</ele>
        <time>2018-08-08T08:47:24Z</time>
      </trkpt>
      <trkpt lat="45.27758" lon="2.76625">
        <ele>1046.4</ele>
        <time>2018-08-08T08:48:24Z</time>
      </trkpt>
      <trkpt lat="45.27722" lon="2.7672">
        <ele>1048.5</ele>
        <time>2018-08-08T08:49:24Z</time>
      </trkpt>
      <trkpt lat="45.27701" lon="2.76818">
        <ele>1051.7</ele>
        <time>2018-08-08T08:50:24Z</time>
      </trkpt>
      <trkpt lat="45.27693" lon="2.76878">
        <ele>1055</ele>
        <time>2018-08-08T08:51:24Z</time>
      </trkpt>
      <trkpt lat="45.27678" lon="2.76981">
        <ele>1061.4</ele>
        <time>2018-08-08T08:52:24Z</time>
      </trkpt>
      <trkpt lat="45.27642" lon="2.77076">
        <ele>1062.4</ele>
        <time>2018-08-08T08:53:24Z</time>
      </trkpt>
      <trkpt lat="45.27574" lon="2.77136">
        <ele>1060.2</ele>
        <time>2018-08-08T08:54:24Z</time>
      </trkpt>
      <trkpt lat="45.27505" lon="2.77182">
        <ele>1061.3</ele>
        <time>2018-08-08T08:55:24Z</time>
      </trkpt>
      <trkpt lat="45.27434" lon="2.77238">
        <ele>1061.8</ele>
        <time>2018-08-08T08:56:24Z</time>
      </trkpt>
      <trkpt lat="45.27356" lon="2.77262">
        <ele>1061.6</ele>
        <time>2018-08-08T08:57:24Z</time>
      </trkpt>
      <trkpt lat="45.27344" lon="2.7727">
        <ele>1061.6</ele>
        <time>2018-08-08T08:58:24Z</time>
      </trkpt>
      <trkpt lat="45.27388" lon="2.77344">
        <ele>1064.8</ele>
        <time>2018-08-08T08:59:24Z</time>
      </trkpt>
      <trkpt lat="45.27353" lon="2.7744">
        <ele>1068.5</ele>
        <time>2018-08-08T09:00:24Z</time>
      </trkpt>
      <trkpt lat="45.27332" lon="2.77535">
        <ele>1073.9</ele>
        <time>2018-08-08T09:01:24Z</time>
      </trkpt>
      <trkpt lat="45.27347" lon="2.77631">
        <ele>1081.1</ele>
        <time>2018-08-08T09:02:24Z</time>
      </trkpt>
      <trkpt lat="45.27345" lon="2.77745">
        <ele>1084.9</ele>
        <time>2018-08-08T09:03:24Z</time>
      </trkpt>
      <trkpt lat="45.27378" lon="2.77823">
        <ele>1077</ele>
        <time>2018-08-08T09:04:24Z</time>
      </trkpt>
      <trkpt lat="45.27454" lon="2.7784">
        <ele>1062.1</ele>
        <time>2018-08-08T09:05:24Z</time>
      </trkpt>
      <trkpt lat="45.27501" lon="2.77792">
        <ele>1053.8</ele>
        <time>2018-08-08T09:06:24Z</time>
      </trkpt>
      <trkpt lat="45.27563" lon="2.77775">
        <ele>1040.1</ele>
        <time>2018-08-08T09:07:24Z</time>
      </trkpt>
      <trkpt lat="45.27534" lon="2.77893">
        <ele>1041.9</ele>
        <time>2018-08-08T09:08:24Z</time>
      </trkpt>
      <trkpt lat="45.27483" lon="2.77964">
        <ele>1045.5</ele>
        <time>2018-08-08T09:09:24Z</time>
      </trkpt>
      <trkpt lat="45.27412" lon="2.77995">
        <ele>1048.2</ele>
        <time>2018-08-08T09:10:24Z</time>
      </trkpt>
      <trkpt lat="45.27337" lon="2.77997">
        <ele>1052.5</ele>
        <time>2018-08-08T09:11:24Z</time>
      </trkpt>
      <trkpt lat="45.27251" lon="2.78012">
        <ele>1048.2</ele>
        <time>2018-08-08T09:12:24Z</time>
      </trkpt>
      <trkpt lat="45.27175" lon="2.78046">
        <ele>1043.3</ele>
        <time>2018-08-08T09:13:24Z</time>
      </trkpt>
      <trkpt lat="45.27103" lon="2.78086">
        <ele>1038.9</ele>
        <time>2018-08-08T09:14:24Z</time>
      </trkpt>
      <trkpt lat="45.27048" lon="2.78132">
        <ele>1037.8</ele>
        <time>2018-08-08T09:15:24Z</time>
      </trkpt>
      <trkpt lat="45.27026" lon="2.78143">
        <ele>1039</ele>
        <time>2018-08-08T09:16:24Z</time>
      </trkpt>
      <trkpt lat="45.26956" lon="2.78153">
        <ele>1045.9</ele>
        <time>2018-08-08T09:17:24Z</time>
      </trkpt>
      <trkpt lat="45.26885" lon="2.78186">
        <ele>1048.5</ele>
        <time>2018-08-08T09:18:24Z</time>
      </trkpt>
      <trkpt lat="45.26812" lon="2.78205">
        <ele>1051.3</ele>
        <time>2018-08-08T09:19:24Z</time>
      </trkpt>
      <trkpt lat="45.2674" lon="2.78195">
        <ele>1057.3</ele>
        <time>2018-08-08T09:20:24Z</time>
      </trkpt>
      <trkpt lat="45.26667" lon="2.78237">
        <ele>1050.3</ele>
        <time>2018-08-08T09:21:24Z</time>
      </trkpt>
      <trkpt lat="45.26614" lon="2.78291">
        <ele>1042.4</ele>
        <time>2018-08-08T09:22:24Z</time>
      </trkpt>
      <trkpt lat="45.26566" lon="2.7837">
        <ele>1032.8</ele>
        <time>2018-08-08T09:23:24Z</time>
      </trkpt>
      <trkpt lat="45.26529" lon="2.7846">
        <ele>1032.6</ele>
        <time>2018-08-08T09:24:24Z</time>
      </trkpt>
      <trkpt lat="45.26516" lon="2.78541">
        <ele>1029.5</ele>
        <time>2018-08-08T09:25:24Z</time>
      </trkpt>
      <trkpt lat="45.26494" lon="2.78632">
        <ele>1025.9</ele>
        <time>2018-08-08T09:26:24Z</time>
      </trkpt>
      <trkpt lat="45.26437" lon="2.78711">
        <ele>1030.8</ele>
        <time>2018-08-08T09:27:24Z</time>
      </trkpt>
      <trkpt lat="45.26359" lon="2.78733">
        <ele>1038.9</ele>
        <time>2018-08-08T09:28:24Z</time>
      </trkpt>
      <trkpt lat="45.26322" lon="2.78743">
        <ele>1041.2</ele>
        <time>2018-08-08T09:29:24Z</time>
      </trkpt>
      <trkpt lat="45.2631" lon="2.78761">
        <ele>1038.5</ele>
        <time>2018-08-08T09:30:24Z</time>
      </trkpt>
      <trkpt lat="45.26206" lon="2.78871">
        <ele>1029.1</ele>
        <time>2018-08-08T09:31:24Z</time>
      </trkpt>
      <trkpt lat="45.26167" lon="2.78934">
        <ele>1019.9</ele>
        <time>2018-08-08T09:32:24Z</time>
      </trkpt>
      <trkpt lat="45.26147" lon="2.79028">
        <ele>1004.5</ele>
        <time>2018-08-08T09:33:24Z</time>
      </trkpt>
      <trkpt lat="45.26122" lon="2.7913">
        <ele>997.6</ele>
        <time>2018-08-08T09:34:24Z</time>
      </trkpt>
      <trkpt lat="45.26103" lon="2.79218">
        <ele>990.7</ele>
        <time>2018-08-08T09:35:24Z</time>
      </trkpt>
      <trkpt lat="45.26078" lon="2.79301">
        <ele>984.7</ele>
        <time>2018-08-08T09:36:24Z</time>
      </trkpt>
      <trkpt lat="45.26076" lon="2.79391">
        <ele>974.3</ele>
        <time>2018-08-08T09:37:24Z</time>
      </trkpt>
      <trkpt lat="45.26064" lon="2.79471">
        <ele>969.1</ele>
        <time>2018-08-08T09:38:24Z</time>
      </trkpt>
      <trkpt lat="45.26005" lon="2.79527">
        <ele>972.3</ele>
        <time>2018-08-08T09:39:24Z</time>
      </trkpt>
      <trkpt lat="45.2593" lon="2.79534">
        <ele>975.2</ele>
        <time>2018-08-08T09:40:24Z</time>
      </trkpt>
      <trkpt lat="45.25847" lon="2.79516">
        <ele>975</ele>
        <time>2018-08-08T09:41:24Z</time>
      </trkpt>
      <trkpt lat="45.25784" lon="2.79466">
        <ele>971.6</ele>
        <time>2018-08-08T09:42:24Z</time>
      </trkpt>
      <trkpt lat="45.25715" lon="2.79413">
        <ele>966.5</ele>
        <time>2018-08-08T09:43:24Z</time>
      </trkpt>
      <trkpt lat="45.25635" lon="2.79413">
        <ele>953.9</ele>
        <time>2018-08-08T09:44:24Z</time>
      </trkpt>
      <trkpt lat="45.2565" lon="2.79406">
        <ele>957</ele>
        <time>2018-08-08T09:45:24Z</time>
      </trkpt>
      <trkpt lat="45.25639" lon="2.79404">
        <ele>955.9</ele>
        <time>2018-08-08T09:46:24Z</time>
      </trkpt>
      <trkpt lat="45.25624" lon="2.79458">
        <ele>949</ele>
        <time>2018-08-08T09:47:24Z</time>
      </trkpt>
      <trkpt lat="45.25614" lon="2.79463">
        <ele>947.7</ele>
        <time>2018-08-08T09:48:24Z</time>
      </trkpt>
      <trkpt lat="45.25624" lon="2.79455">
        <ele>949.2</ele>
        <time>2018-08-08T09:49:24Z</time>
      </trkpt>
      <trkpt lat="45.25605" lon="2.79467">
        <ele>946.6</ele>
        <time>2018-08-08T09:50:24Z</time>
      </trkpt>
      <trkpt lat="45.25626" lon="2.7945">
        <ele>949.8</ele>
        <time>2018-08-08T09:51:24Z</time>
      </trkpt>
      <trkpt lat="45.25579" lon="2.79454">
        <ele>945.3</ele>
        <time>2018-08-08T09:52:24Z</time>
      </trkpt>
      <trkpt lat="45.25527" lon="2.79409">
        <ele>948.6</ele>
        <time>2018-08-08T09:53:24Z</time>
      </trkpt>
      <trkpt lat="45.25484" lon="2.79359">
        <ele>954.9</ele>
        <time>2018-08-08T09:54:24Z</time>
      </trkpt>
      <trkpt lat="45.2548" lon="2.7933">
        <ele>958.2</ele>
        <time>2018-08-08T09:55:24Z</time>
      </trkpt>
      <trkpt lat="45.25488" lon="2.79258">
        <ele>965.9</ele>
        <time>2018-08-08T09:56:24Z</time>
      </trkpt>
      <trkpt lat="45.25428" lon="2.7921">
        <ele>972.5</ele>
        <time>2018-08-08T09:57:24Z</time>
      </trkpt>
      <trkpt lat="45.25384" lon="2.79127">
        <ele>977.3</ele>
        <time>2018-08-08T09:58:24Z</time>
      </trkpt>
      <trkpt lat="45.25335" lon="2.7907">
        <ele>982.8</ele>
        <time>2018-08-08T09:59:24Z</time>
      </trkpt>
      <trkpt lat="45.25268" lon="2.79002">
        <ele>979.9</ele>
        <time>2018-08-08T10:00:24Z</time>
      </trkpt>
      <trkpt lat="45.25231" lon="2.78922">
        <ele>985.5</ele>
        <time>2018-08-08T10:01:24Z</time>
      </trkpt>
      <trkpt lat="45.25172" lon="2.78867">
        <ele>986.4</ele>
        <time>2018-08-08T10:02:24Z</time>
      </trkpt>
      <trkpt lat="45.25147" lon="2.78822">
        <ele>988.3</ele>
        <time>2018-08-08T10:03:24Z</time>
      </trkpt>
      <trkpt lat="45.25112" lon="2.7878">
        <ele>991.4</ele>
        <time>2018-08-08T10:04:24Z</time>
      </trkpt>
      <trkpt lat="45.25088" lon="2.7873">
        <ele>996</ele>
        <time>2018-08-08T10:05:24Z</time>
      </trkpt>
      <trkpt lat="45.25061" lon="2.78651">
        <ele>1004.8</ele>
        <time>2018-08-08T10:06:24Z</time>
      </trkpt>
      <trkpt lat="45.25033" lon="2.78571">
        <ele>1011.9</ele>
        <time>2018-08-08T10:07:24Z</time>
      </trkpt>
      <trkpt lat="45.25019" lon="2.78486">
        <ele>1017.8</ele>
        <time>2018-08-08T10:08:24Z</time>
      </trkpt>
      <trkpt lat="45.2498" lon="2.78407">
        <ele>1025.5</ele>
        <time>2018-08-08T10:09:24Z</time>
      </trkpt>
      <trkpt lat="45.24934" lon="2.78368">
        <ele>1030.6</ele>
        <time>2018-08-08T10:10:24Z</time>
      </trkpt>
      <trkpt lat="45.24867" lon="2.78338">
        <ele>1032.5</ele>
        <time>2018-08-08T10:11:24Z</time>
      </trkpt>
      <trkpt lat="45.24814" lon="2.78287">
        <ele>1037.6</ele>
        <time>2018-08-08T10:12:24Z</time>
      </trkpt>
      <trkpt lat="45.24796" lon="2.78208">
        <ele>1043.3</ele>
        <time>2018-08-08T10:13:24Z</time>
      </trkpt>
      <trkpt lat="45.24773" lon="2.78107">
        <ele>1047.6</ele>
        <time>2018-08-08T10:14:24Z</time>
      </trkpt>
      <trkpt lat="45.24791" lon="2.78036">
        <ele>1057.9</ele>
        <time>2018-08-08T10:15:24Z</time>
      </trkpt>
      <trkpt lat="45.24828" lon="2.77955">
        <ele>1074.2</ele>
        <time>2018-08-08T10:16:24Z</time>
      </trkpt>
      <trkpt lat="45.24772" lon="2.77933">
        <ele>1068.3</ele>
        <time>2018-08-08T10:17:24Z</time>
      </trkpt>
      <trkpt lat="45.24706" lon="2.77913">
        <ele>1066.4</ele>
        <time>2018-08-08T10:18:24Z</time>
      </trkpt>
      <trkpt lat="45.24659" lon="2.77898">
        <ele>1067.7</ele>
        <time>2018-08-08T10:19:24Z</time>
      </trkpt>
      <trkpt lat="45.246" lon="2.77896">
        <ele>1072.9</ele>
        <time>2018-08-08T10:20:24Z</time>
      </trkpt>
      <trkpt lat="45.24572" lon="2.77826">
        <ele>1083.7</ele>
        <time>2018-08-08T10:21:24Z</time>
      </trkpt>
      <trkpt lat="45.24553" lon="2.77728">
        <ele>1100.2</ele>
        <time>2018-08-08T10:22:24Z</time>
      </trkpt>
      <trkpt lat="45.24531" lon="2.77666">
        <ele>1108.6</ele>
        <time>2018-08-08T10:23:24Z</time>
      </trkpt>
      <trkpt lat="45.24526" lon="2.77577">
        <ele>1123.1</ele>
        <time>2018-08-08T10:24:24Z</time>
      </trkpt>
      <trkpt lat="45.24457" lon="2.77502">
        <ele>1129.3</ele>
        <time>2018-08-08T10:25:24Z</time>
      </trkpt>
      <trkpt lat="45.24399" lon="2.77439">
        <ele>1134.5</ele>
        <time>2018-08-08T10:26:24Z</time>
      </trkpt>
      <trkpt lat="45.24366" lon="2.77364">
        <ele>1141.3</ele>
        <time>2018-08-08T10:27:24Z</time>
      </trkpt>
      <trkpt lat="45.24305" lon="2.77318">
        <ele>1142.1</ele>
        <time>2018-08-08T10:28:24Z</time>
      </trkpt>
      <trkpt lat="45.24287" lon="2.77225">
        <ele>1150.1</ele>
        <time>2018-08-08T10:29:24Z</time>
      </trkpt>
      <trkpt lat="45.24273" lon="2.77127">
        <ele>1153.2</ele>
        <time>2018-08-08T10:30:24Z</time>
      </trkpt>
      <trkpt lat="45.2426" lon="2.77016">
        <ele>1155.2</ele>
        <time>2018-08-08T10:31:24Z</time>
      </trkpt>
      <trkpt lat="45.24245" lon="2.76917">
        <ele>1157.8</ele>
        <time>2018-08-08T10:32:24Z</time>
      </trkpt>
      <trkpt lat="45.24204" lon="2.76849">
        <ele>1158.4</ele>
        <time>2018-08-08T10:33:24Z</time>
      </trkpt>
      <trkpt lat="45.24127" lon="2.76809">
        <ele>1158.7</ele>
        <time>2018-08-08T10:34:24Z</time>
      </trkpt>
      <trkpt lat="45.24067" lon="2.76782">
        <ele>1159.2</ele>
        <time>2018-08-08T10:35:24Z</time>
      </trkpt>
      <trkpt lat="45.23995" lon="2.76727">
        <ele>1164.1</ele>
        <time>2018-08-08T10:36:24Z</time>
      </trkpt>
      <trkpt lat="45.23939" lon="2.76689">
        <ele>1164.4</ele>
        <time>2018-08-08T10:37:24Z</time>
      </trkpt>
      <trkpt lat="45.23849" lon="2.76664">
        <ele>1163.1</ele>
        <time>2018-08-08T10:38:24Z</time>
      </trkpt>
      <trkpt lat="45.23804" lon="2.76659">
        <ele>1162.7</ele>
        <time>2018-08-08T10:39:24Z</time>
      </trkpt>
      <trkpt lat="45.23774" lon="2.76644">
        <ele>1164.5</ele>
        <time>2018-08-08T10:40:24Z</time>
      </trkpt>
      <trkpt lat="45.23684" lon="2.76661">
        <ele>1160.8</ele>
        <time>2018-08-08T10:41:24Z</time>
      </trkpt>
      <trkpt lat="45.23612" lon="2.76614">
        <ele>1162.9</ele>
        <time>2018-08-08T10:42:24Z</time>
      </trkpt>
      <trkpt lat="45.23522" lon="2.76609">
        <ele>1159.8</ele>
        <time>2018-08-08T10:43:24Z</time>
      </trkpt>
      <trkpt lat="45.23462" lon="2.76605">
        <ele>1157.8</ele>
        <time>2018-08-08T10:44:24Z</time>
      </trkpt>
      <trkpt lat="45.2337" lon="2.76624">
        <ele>1156.4</ele>
        <time>2018-08-08T10:45:24Z</time>
      </trkpt>
      <trkpt lat="45.23305" lon="2.76626">
        <ele>1159</ele>
        <time>2018-08-08T10:46:24Z</time>
      </trkpt>
      <trkpt lat="45.23234" lon="2.76604">
        <ele>1164.1</ele>
        <time>2018-08-08T10:47:24Z</time>
      </trkpt>
      <trkpt lat="45.23161" lon="2.76568">
        <ele>1165.1</ele>
        <time>2018-08-08T10:48:24Z</time>
      </trkpt>
      <trkpt lat="45.23082" lon="2.76522">
        <ele>1163.2</ele>
        <time>2018-08-08T10:49:24Z</time>
      </trkpt>
      <trkpt lat="45.23017" lon="2.76483">
        <ele>1162.2</ele>
        <time>2018-08-08T10:50:24Z</time>
      </trkpt>
      <trkpt lat="45.22942" lon="2.76449">
        <ele>1161.3</ele>
        <time>2018-08-08T10:51:24Z</time>
      </trkpt>
      <trkpt lat="45.22851" lon="2.76456">
        <ele>1162.6</ele>
        <time>2018-08-08T10:52:24Z</time>
      </trkpt>
      <trkpt lat="45.22779" lon="2.76451">
        <ele>1166</ele>
        <time>2018-08-08T10:53:24Z</time>
      </trkpt>
      <trkpt lat="45.22694" lon="2.76404">
        <ele>1171.9</ele>
        <time>2018-08-08T10:54:24Z</time>
      </trkpt>
      <trkpt lat="45.22646" lon="2.76355">
        <ele>1176.5</ele>
        <time>2018-08-08T10:55:24Z</time>
      </trkpt>
      <trkpt lat="45.22576" lon="2.76299">
        <ele>1178.8</ele>
        <time>2018-08-08T10:56:24Z</time>
      </trkpt>
      <trkpt lat="45.22504" lon="2.76253">
        <ele>1178.9</ele>
        <time>2018-08-08T10:57:24Z</time>
      </trkpt>
      <trkpt lat="45.22433" lon="2.76194">
        <ele>1180.5</ele>
        <time>2018-08-08T10:58:24Z</time>
      </trkpt>
      <trkpt lat="45.22345" lon="2.76148">
        <ele>1179.8</ele>
        <time>2018-08-08T10:59:24Z</time>
      </trkpt>
      <trkpt lat="45.22279" lon="2.7612">
        <ele>1178.6</ele>
        <time>2018-08-08T11:00:24Z</time>
      </trkpt>
      <trkpt lat="45.22211" lon="2.76095">
        <ele>1177.4</ele>
        <time>2018-08-08T11:01:24Z</time>
      </trkpt>
      <trkpt lat="45.2212" lon="2.76107">
        <ele>1176</ele>
        <time>2018-08-08T11:02:24Z</time>
      </trkpt>
      <trkpt lat="45.22032" lon="2.76087">
        <ele>1179.9</ele>
        <time>2018-08-08T11:03:24Z</time>
      </trkpt>
      <trkpt lat="45.21965" lon="2.76089">
        <ele>1182.4</ele>
        <time>2018-08-08T11:04:24Z</time>
      </trkpt>
      <trkpt lat="45.21879" lon="2.76076">
        <ele>1189.1</ele>
        <time>2018-08-08T11:05:24Z</time>
      </trkpt>
      <trkpt lat="45.21817" lon="2.76061">
        <ele>1193.5</ele>
        <time>2018-08-08T11:06:24Z</time>
      </trkpt>
      <trkpt lat="45.21724" lon="2.76058">
        <ele>1194.1</ele>
        <time>2018-08-08T11:07:24Z</time>
      </trkpt>
      <trkpt lat="45.21662" lon="2.76058">
        <ele>1193.8</ele>
        <time>2018-08-08T11:08:24Z</time>
      </trkpt>
      <trkpt lat="45.21573" lon="2.76074">
        <ele>1192.3</ele>
        <time>2018-08-08T11:09:24Z</time>
      </trkpt>
      <trkpt lat="45.21496" lon="2.76094">
        <ele>1192.1</ele>
        <time>2018-08-08T11:10:24Z</time>
      </trkpt>
      <trkpt lat="45.21412" lon="2.76113">
        <ele>1195.2</ele>
        <time>2018-08-08T11:11:24Z</time>
      </trkpt>
      <trkpt lat="45.21341" lon="2.76123">
        <ele>1198.3</ele>
        <time>2018-08-08T11:12:24Z</time>
      </trkpt>
      <trkpt lat="45.2127" lon="2.76081">
        <ele>1209</ele>
        <time>2018-08-08T11:13:24Z</time>
      </trkpt>
      <trkpt lat="45.21206" lon="2.76047">
        <ele>1214.6</ele>
        <time>2018-08-08T11:14:24Z</time>
      </trkpt>
      <trkpt lat="45.21131" lon="2.75996">
        <ele>1220.3</ele>
        <time>2018-08-08T11:15:24Z</time>
      </trkpt>
      <trkpt lat="45.21059" lon="2.75953">
        <ele>1224.3</ele>
        <time>2018-08-08T11:16:24Z</time>
      </trkpt>
      <trkpt lat="45.20989" lon="2.75904">
        <ele>1225.8</ele>
        <time>2018-08-08T11:17:24Z</time>
      </trkpt>
      <trkpt lat="45.20915" lon="2.75864">
        <ele>1224.1</ele>
        <time>2018-08-08T11:18:24Z</time>
      </trkpt>
      <trkpt lat="45.20842" lon="2.75881">
        <ele>1226.3</ele>
        <time>2018-08-08T11:19:24Z</time>
      </trkpt>
      <trkpt lat="45.20784" lon="2.75921">
        <ele>1227.2</ele>
        <time>2018-08-08T11:20:24Z</time>
      </trkpt>
      <trkpt lat="45.20724" lon="2.75955">
        <ele>1232.3</ele>
        <time>2018-08-08T11:21:24Z</time>
      </trkpt>
      <trkpt lat="45.20735" lon="2.75954">
        <ele>1230.8</ele>
        <time>2018-08-08T11:22:24Z</time>
      </trkpt>
      <trkpt lat="45.20724" lon="2.75949">
        <ele>1232.1</ele>
        <time>2018-08-08T11:23:24Z</time>
      </trkpt>
      <trkpt lat="45.20736" lon="2.75951">
        <ele>1230.6</ele>
        <time>2018-08-08T11:24:24Z</time>
      </trkpt>
      <trkpt lat="45.20732" lon="2.7594">
        <ele>1230.8</ele>
        <time>2018-08-08T11:25:24Z</time>
      </trkpt>
      <trkpt lat="45.20722" lon="2.75936">
        <ele>1232</ele>
        <time>2018-08-08T11:26:24Z</time>
      </trkpt>
      <trkpt lat="45.20661" lon="2.75961">
        <ele>1240.5</ele>
        <time>2018-08-08T11:27:24Z</time>
      </trkpt>
      <trkpt lat="45.20601" lon="2.76001">
        <ele>1245.1</ele>
        <time>2018-08-08T11:28:24Z</time>
      </trkpt>
      <trkpt lat="45.20538" lon="2.76034">
        <ele>1247</ele>
        <time>2018-08-08T11:29:24Z</time>
      </trkpt>
      <trkpt lat="45.20458" lon="2.76032">
        <ele>1249.6</ele>
        <time>2018-08-08T11:30:24Z</time>
      </trkpt>
      <trkpt lat="45.20389" lon="2.76009">
        <ele>1252.3</ele>
        <time>2018-08-08T11:31:24Z</time>
      </trkpt>
      <trkpt lat="45.20329" lon="2.75998">
        <ele>1254.9</ele>
        <time>2018-08-08T11:32:24Z</time>
      </trkpt>
      <trkpt lat="45.20258" lon="2.75964">
        <ele>1253.2</ele>
        <time>2018-08-08T11:33:24Z</time>
      </trkpt>
      <trkpt lat="45.20175" lon="2.75933">
        <ele>1249.5</ele>
        <time>2018-08-08T11:34:24Z</time>
      </trkpt>
      <trkpt lat="45.20116" lon="2.75925">
        <ele>1248.9</ele>
        <time>2018-08-08T11:35:24Z</time>
      </trkpt>
      <trkpt lat="45.20041" lon="2.75902">
        <ele>1248</ele>
        <time>2018-08-08T11:36:24Z</time>
      </trkpt>
      <trkpt lat="45.19966" lon="2.7588">
        <ele>1246.1</ele>
        <time>2018-08-08T11:37:24Z</time>
      </trkpt>
      <trkpt lat="45.19884" lon="2.75864">
        <ele>1244.4</ele>
        <time>2018-08-08T11:38:24Z</time>
      </trkpt>
      <trkpt lat="45.19811" lon="2.75856">
        <ele>1246</ele>
        <time>2018-08-08T11:39:24Z</time>
      </trkpt>
      <trkpt lat="45.19735" lon="2.75871">
        <ele>1248.4</ele>
        <time>2018-08-08T11:40:24Z</time>
      </trkpt>
      <trkpt lat="45.19661" lon="2.75893">
        <ele>1251.6</ele>
        <time>2018-08-08T11:41:24Z</time>
      </trkpt>
      <trkpt lat="45.19604" lon="2.75914">
        <ele>1258.3</ele>
        <time>2018-08-08T11:42:24Z</time>
      </trkpt>
      <trkpt lat="45.19534" lon="2.75967">
        <ele>1262.5</ele>
        <time>2018-08-08T11:43:24Z</time>
      </trkpt>
      <trkpt lat="45.1946" lon="2.75978">
        <ele>1269.7</ele>
        <time>2018-08-08T11:44:24Z</time>
      </trkpt>
      <trkpt lat="45.19384" lon="2.75956">
        <ele>1277</ele>
        <time>2018-08-08T11:45:24Z</time>
      </trkpt>
      <trkpt lat="45.19316" lon="2.75909">
        <ele>1281.1</ele>
        <time>2018-08-08T11:46:24Z</time>
      </trkpt>
      <trkpt lat="45.19228" lon="2.75857">
        <ele>1282.1</ele>
        <time>2018-08-08T11:47:24Z</time>
      </trkpt>
      <trkpt lat="45.19161" lon="2.75826">
        <ele>1283.3</ele>
        <time>2018-08-08T11:48:24Z</time>
      </trkpt>
      <trkpt lat="45.19084" lon="2.75822">
        <ele>1286</ele>
        <time>2018-08-08T11:49:24Z</time>
      </trkpt>
      <trkpt lat="45.19023" lon="2.75817">
        <ele>1290</ele>
        <time>2018-08-08T11:50:24Z</time>
      </trkpt>
      <trkpt lat="45.18968" lon="2.75831">
        <ele>1295.4</ele>
        <time>2018-08-08T11:51:24Z</time>
      </trkpt>
      <trkpt lat="45.1892" lon="2.75925">
        <ele>1299.3</ele>
        <time>2018-08-08T11:52:24Z</time>
      </trkpt>
      <trkpt lat="45.1889" lon="2.76024">
        <ele>1297.8</ele>
        <time>2018-08-08T11:53:24Z</time>
      </trkpt>
      <trkpt lat="45.18852" lon="2.76127">
        <ele>1299.1</ele>
        <time>2018-08-08T11:54:24Z</time>
      </trkpt>
      <trkpt lat="45.18819" lon="2.76235">
        <ele>1300.8</ele>
        <time>2018-08-08T11:55:24Z</time>
      </trkpt>
      <trkpt lat="45.18793" lon="2.76334">
        <ele>1300.4</ele>
        <time>2018-08-08T11:56:24Z</time>
      </trkpt>
      <trkpt lat="45.18758" lon="2.76437">
        <ele>1302.8</ele>
        <time>2018-08-08T11:57:24Z</time>
      </trkpt>
      <trkpt lat="45.18718" lon="2.76553">
        <ele>1299.7</ele>
        <time>2018-08-08T11:58:24Z</time>
      </trkpt>
      <trkpt lat="45.18678" lon="2.76637">
        <ele>1301.1</ele>
        <time>2018-08-08T11:59:24Z</time>
      </trkpt>
      <trkpt lat="45.18636" lon="2.76735">
        <ele>1302.7</ele>
        <time>2018-08-08T12:00:24Z</time>
      </trkpt>
      <trkpt lat="45.18633" lon="2.76765">
        <ele>1302.2</ele>
        <time>2018-08-08T12:01:24Z</time>
      </trkpt>
      <trkpt lat="45.18588" lon="2.76845">
        <ele>1302.6</ele>
        <time>2018-08-08T12:02:24Z</time>
      </trkpt>
      <trkpt lat="45.18561" lon="2.76882">
        <ele>1303</ele>
        <time>2018-08-08T12:03:24Z</time>
      </trkpt>
      <trkpt lat="45.18506" lon="2.76848">
        <ele>1306.1</ele>
        <time>2018-08-08T12:04:24Z</time>
      </trkpt>
      <trkpt lat="45.18427" lon="2.76795">
        <ele>1310.6</ele>
        <time>2018-08-08T12:05:24Z</time>
      </trkpt>
      <trkpt lat="45.18366" lon="2.76795">
        <ele>1311.8</ele>
        <time>2018-08-08T12:06:24Z</time>
      </trkpt>
      <trkpt lat="45.18281" lon="2.76803">
        <ele>1313.3</ele>
        <time>2018-08-08T12:07:24Z</time>
      </trkpt>
      <trkpt lat="45.18185" lon="2.76817">
        <ele>1315.3</ele>
        <time>2018-08-08T12:08:24Z</time>
      </trkpt>
      <trkpt lat="45.18109" lon="2.76847">
        <ele>1318.3</ele>
        <time>2018-08-08T12:09:24Z</time>
      </trkpt>
      <trkpt lat="45.18051" lon="2.769">
        <ele>1322</ele>
        <time>2018-08-08T12:10:24Z</time>
      </trkpt>
      <trkpt lat="45.17984" lon="2.76918">
        <ele>1327.6</ele>
        <time>2018-08-08T12:11:24Z</time>
      </trkpt>
      <trkpt lat="45.17924" lon="2.76937">
        <ele>1331.9</ele>
        <time>2018-08-08T12:12:24Z</time>
      </trkpt>
      <trkpt lat="45.17921" lon="2.77031">
        <ele>1322.9</ele>
        <time>2018-08-08T12:13:24Z</time>
      </trkpt>
      <trkpt lat="45.17878" lon="2.7706">
        <ele>1323.4</ele>
        <time>2018-08-08T12:14:24Z</time>
      </trkpt>
      <trkpt lat="45.17817" lon="2.77107">
        <ele>1324.1</ele>
        <time>2018-08-08T12:15:24Z</time>
      </trkpt>
      <trkpt lat="45.17753" lon="2.77164">
        <ele>1323.1</ele>
        <time>2018-08-08T12:16:24Z</time>
      </trkpt>
      <trkpt lat="45.17691" lon="2.77207">
        <ele>1322.2</ele>
        <time>2018-08-08T12:17:24Z</time>
      </trkpt>
      <trkpt lat="45.17631" lon="2.77272">
        <ele>1319.5</ele>
        <time>2018-08-08T12:18:24Z</time>
      </trkpt>
      <trkpt lat="45.1756" lon="2.77339">
        <ele>1318.3</ele>
        <time>2018-08-08T12:19:24Z</time>
      </trkpt>
      <trkpt lat="45.17528" lon="2.77374">
        <ele>1317.1</ele>
        <time>2018-08-08T12:20:24Z</time>
      </trkpt>
      <trkpt lat="45.1753" lon="2.77388">
        <ele>1316.2</ele>
        <time>2018-08-08T12:21:24Z</time>
      </trkpt>
      <trkpt lat="45.17493" lon="2.77421">
        <ele>1314.9</ele>
        <time>2018-08-08T12:22:24Z</time>
      </trkpt>
      <trkpt lat="45.17434" lon="2.77423">
        <ele>1314.6</ele>
        <time>2018-08-08T12:23:24Z</time>
      </trkpt>
      <trkpt lat="45.1742" lon="2.77428">
        <ele>1314.4</ele>
        <time>2018-08-08T12:24:24Z</time>
      </trkpt>
      <trkpt lat="45.17358" lon="2.77464">
        <ele>1311.3</ele>
        <time>2018-08-08T12:25:24Z</time>
      </trkpt>
      <trkpt lat="45.17336" lon="2.77569">
        <ele>1310.6</ele>
        <time>2018-08-08T12:26:24Z</time>
      </trkpt>
      <trkpt lat="45.17318" lon="2.77674">
        <ele>1311.5</ele>
        <time>2018-08-08T12:27:24Z</time>
      </trkpt>
      <trkpt lat="45.17293" lon="2.77755">
        <ele>1316</ele>
        <time>2018-08-08T12:28:24Z</time>
      </trkpt>
      <trkpt lat="45.17299" lon="2.77741">
        <ele>1315</ele>
        <time>2018-08-08T12:29:24Z</time>
      </trkpt>
      <trkpt lat="45.17267" lon="2.77839">
        <ele>1320.3</ele>
        <time>2018-08-08T12:30:24Z</time>
      </trkpt>
      <trkpt lat="45.17245" lon="2.77881">
        <ele>1322.3</ele>
        <time>2018-08-08T12:31:24Z</time>
      </trkpt>
      <trkpt lat="45.17176" lon="2.77852">
        <ele>1325.7</ele>
        <time>2018-08-08T12:32:24Z</time>
      </trkpt>
      <trkpt lat="45.17101" lon="2.77855">
        <ele>1334.1</ele>
        <time>2018-08-08T12:33:24Z</time>
      </trkpt>
      <trkpt lat="45.1705" lon="2.7782">
        <ele>1336.2</ele>
        <time>2018-08-08T12:34:24Z</time>
      </trkpt>
      <trkpt lat="45.16989" lon="2.77798">
        <ele>1338.7</ele>
        <time>2018-08-08T12:35:24Z</time>
      </trkpt>
      <trkpt lat="45.16923" lon="2.77793">
        <ele>1344.4</ele>
        <time>2018-08-08T12:36:24Z</time>
      </trkpt>
      <trkpt lat="45.16886" lon="2.77783">
        <ele>1347.6</ele>
        <time>2018-08-08T12:37:24Z</time>
      </trkpt>
      <trkpt lat="45.16882" lon="2.77755">
        <ele>1349.3</ele>
        <time>2018-08-08T12:38:24Z</time>
      </trkpt>
      <trkpt lat="45.16857" lon="2.77674">
        <ele>1351.7</ele>
        <time>2018-08-08T12:39:24Z</time>
      </trkpt>
      <trkpt lat="45.16814" lon="2.77623">
        <ele>1355.1</ele>
        <time>2018-08-08T12:40:24Z</time>
      </trkpt>
      <trkpt lat="45.16757" lon="2.77557">
        <ele>1357.3</ele>
        <time>2018-08-08T12:41:24Z</time>
      </trkpt>
      <trkpt lat="45.16691" lon="2.77511">
        <ele>1364.2</ele>
        <time>2018-08-08T12:42:24Z</time>
      </trkpt>
      <trkpt lat="45.16626" lon="2.77459">
        <ele>1367.7</ele>
        <time>2018-08-08T12:43:24Z</time>
      </trkpt>
      <trkpt lat="45.16616" lon="2.77451">
        <ele>1367.9</ele>
        <time>2018-08-08T12:44:24Z</time>
      </trkpt>
      <trkpt lat="45.16656" lon="2.77403">
        <ele>1364.3</ele>
        <time>2018-08-08T12:45:24Z</time>
      </trkpt>
      <trkpt lat="45.16728" lon="2.77337">
        <ele>1357.9</ele>
        <time>2018-08-08T12:46:24Z</time>
      </trkpt>
      <trkpt lat="45.16775" lon="2.77282">
        <ele>1352.7</ele>
        <time>2018-08-08T12:47:24Z</time>
      </trkpt>
      <trkpt lat="45.16803" lon="2.77207">
        <ele>1351.4</ele>
        <time>2018-08-08T12:48:24Z</time>
      </trkpt>
      <trkpt lat="45.1683" lon="2.77154">
        <ele>1352.7</ele>
        <time>2018-08-08T12:49:24Z</time>
      </trkpt>
      <trkpt lat="45.16812" lon="2.7704">
        <ele>1358.8</ele>
        <time>2018-08-08T12:50:24Z</time>
      </trkpt>
      <trkpt lat="45.16816" lon="2.76954">
        <ele>1362.7</ele>
        <time>2018-08-08T12:51:24Z</time>
      </trkpt>
      <trkpt lat="45.16818" lon="2.7686">
        <ele>1365.7</ele>
        <time>2018-08-08T12:52:24Z</time>
      </trkpt>
      <trkpt lat="45.16834" lon="2.7676">
        <ele>1364.1</ele>
        <time>2018-08-08T12:53:24Z</time>
      </trkpt>
      <trkpt lat="45.16839" lon="2.7666">
        <ele>1365.8</ele>
        <time>2018-08-08T12:54:24Z</time>
      </trkpt>
      <trkpt lat="45.16837" lon="2.76558">
        <ele>1369.1</ele>
        <time>2018-08-08T12:55:24Z</time>
      </trkpt>
      <trkpt lat="45.1681" lon="2.76477">
        <ele>1373.8</ele>
        <time>2018-08-08T12:56:24Z</time>
      </trkpt>
      <trkpt lat="45.16794" lon="2.76389">
        <ele>1377.8</ele>
        <time>2018-08-08T12:57:24Z</time>
      </trkpt>
      <trkpt lat="45.16787" lon="2.76291">
        <ele>1381.7</ele>
        <time>2018-08-08T12:58:24Z</time>
      </trkpt>
      <trkpt lat="45.1679" lon="2.76255">
        <ele>1383.3</ele>
        <time>2018-08-08T12:59:24Z</time>
      </trkpt>
      <trkpt lat="45.16789" lon="2.76227">
        <ele>1385.7</ele>
        <time>2018-08-08T13:00:24Z</time>
      </trkpt>
      <trkpt lat="45.1677" lon="2.76146">
        <ele>1393.2</ele>
        <time>2018-08-08T13:01:24Z</time>
      </trkpt>
      <trkpt lat="45.16757" lon="2.76062">
        <ele>1399.2</ele>
        <time>2018-08-08T13:02:24Z</time>
      </trkpt>
      <trkpt lat="45.16737" lon="2.75984">
        <ele>1409.3</ele>
        <time>2018-08-08T13:03:24Z</time>
      </trkpt>
      <trkpt lat="45.16705" lon="2.75937">
        <ele>1418.7</ele>
        <time>2018-08-08T13:04:24Z</time>
      </trkpt>
      <trkpt lat="45.16677" lon="2.75879">
        <ele>1429.9</ele>
        <time>2018-08-08T13:05:24Z</time>
      </trkpt>
      <trkpt lat="45.1664" lon="2.75807">
        <ele>1440.8</ele>
        <time>2018-08-08T13:06:24Z</time>
      </trkpt>
      <trkpt lat="45.16611" lon="2.75729">
        <ele>1448.7</ele>
        <time>2018-08-08T13:07:24Z</time>
      </trkpt>
      <trkpt lat="45.16597" lon="2.7564">
        <ele>1455.8</ele>
        <time>2018-08-08T13:08:24Z</time>
      </trkpt>
      <trkpt lat="45.16575" lon="2.75524">
        <ele>1459.2</ele>
        <time>2018-08-08T13:09:24Z</time>
      </trkpt>
      <trkpt lat="45.16598" lon="2.75457">
        <ele>1464.8</ele>
        <time>2018-08-08T13:10:24Z</time>
      </trkpt>
      <trkpt lat="45.16607" lon="2.75426">
        <ele>1467.4</ele>
        <time>2018-08-08T13:11:24Z</time>
      </trkpt>
      <trkpt lat="45.16629" lon="2.7541">
        <ele>1470.7</ele>
        <time>2018-08-08T13:12:24Z</time>
      </trkpt>
      <trkpt lat="45.16654" lon="2.75312">
        <ele>1466.6</ele>
        <time>2018-08-08T13:13:24Z</time>
      </trkpt>
      <trkpt lat="45.16704" lon="2.75237">
        <ele>1466.9</ele>
        <time>2018-08-08T13:14:24Z</time>
      </trkpt>
      <trkpt lat="45.16696" lon="2.75095">
        <ele>1465.3</ele>
        <time>2018-08-08T13:15:24Z</time>
      </trkpt>
      <trkpt lat="45.16689" lon="2.75011">
        <ele>1465.4</ele>
        <time>2018-08-08T13:16:24Z</time>
      </trkpt>
      <trkpt lat="45.16617" lon="2.74961">
        <ele>1468</ele>
        <time>2018-08-08T13:17:24Z</time>
      </trkpt>
      <trkpt lat="45.16556" lon="2.74908">
        <ele>1473.6</ele>
        <time>2018-08-08T13:18:24Z</time>
      </trkpt>
      <trkpt lat="45.16503" lon="2.74866">
        <ele>1481.3</ele>
        <time>2018-08-08T13:19:24Z</time>
      </trkpt>
      <trkpt lat="45.16448" lon="2.74815">
        <ele>1491.7</ele>
        <time>2018-08-08T13:20:24Z</time>
      </trkpt>
      <trkpt lat="45.16394" lon="2.74777">
        <ele>1498.5</ele>
        <time>2018-08-08T13:21:24Z</time>
      </trkpt>
      <trkpt lat="45.16317" lon="2.74755">
        <ele>1501.5</ele>
        <time>2018-08-08T13:22:24Z</time>
      </trkpt>
      <trkpt lat="45.16247" lon="2.7471">
        <ele>1501.3</ele>
        <time>2018-08-08T13:23:24Z</time>
      </trkpt>
      <trkpt lat="45.162" lon="2.74676">
        <ele>1500.3</ele>
        <time>2018-08-08T13:24:24Z</time>
      </trkpt>
      <trkpt lat="45.16147" lon="2.74629">
        <ele>1500</ele>
        <time>2018-08-08T13:25:24Z</time>
      </trkpt>
      <trkpt lat="45.16105" lon="2.74548">
        <ele>1504.5</ele>
        <time>2018-08-08T13:26:24Z</time>
      </trkpt>
      <trkpt lat="45.1607" lon="2.74466">
        <ele>1510.8</ele>
        <time>2018-08-08T13:27:24Z</time>
      </trkpt>
      <trkpt lat="45.16017" lon="2.74399">
        <ele>1519</ele>
        <time>2018-08-08T13:28:24Z</time>
      </trkpt>
      <trkpt lat="45.1596" lon="2.74351">
        <ele>1525.4</ele>
        <time>2018-08-08T13:29:24Z</time>
      </trkpt>
      <trkpt lat="45.15896" lon="2.743">
        <ele>1532.4</ele>
        <time>2018-08-08T13:30:24Z</time>
      </trkpt>
      <trkpt lat="45.15825" lon="2.74266">
        <ele>1539.7</ele>
        <time>2018-08-08T13:31:24Z</time>
      </trkpt>
      <trkpt lat="45.158" lon="2.74244">
        <ele>1540.2</ele>
        <time>2018-08-08T13:32:24Z</time>
      </trkpt>
      <trkpt lat="45.15784" lon="2.74241">
        <ele>1540.8</ele>
        <time>2018-08-08T13:33:24Z</time>
      </trkpt>
      <trkpt lat="45.1571" lon="2.74221">
        <ele>1540.3</ele>
        <time>2018-08-08T13:34:24Z</time>
      </trkpt>
      <trkpt lat="45.15634" lon="2.74201">
        <ele>1535.9</ele>
        <time>2018-08-08T13:35:24Z</time>
      </trkpt>
      <trkpt lat="45.15555" lon="2.7418">
        <ele>1529.8</ele>
        <time>2018-08-08T13:36:24Z</time>
      </trkpt>
      <trkpt lat="45.15489" lon="2.74115">
        <ele>1524.4</ele>
        <time>2018-08-08T13:37:24Z</time>
      </trkpt>
      <trkpt lat="45.15444" lon="2.74072">
        <ele>1523.2</ele>
        <time>2018-08-08T13:38:24Z</time>
      </trkpt>
      <trkpt lat="45.1539" lon="2.74035">
        <ele>1522.6</ele>
        <time>2018-08-08T13:39:24Z</time>
      </trkpt>
      <trkpt lat="45.15336" lon="2.7399">
        <ele>1522.6</ele>
        <time>2018-08-08T13:40:24Z</time>
      </trkpt>
      <trkpt lat="45.15273" lon="2.73938">
        <ele>1526.1</ele>
        <time>2018-08-08T13:41:24Z</time>
      </trkpt>
      <trkpt lat="45.15215" lon="2.7388">
        <ele>1531.5</ele>
        <time>2018-08-08T13:42:24Z</time>
      </trkpt>
      <trkpt lat="45.1516" lon="2.73829">
        <ele>1538.2</ele>
        <time>2018-08-08T13:43:24Z</time>
      </trkpt>
      <trkpt lat="45.15093" lon="2.73788">
        <ele>1549.3</ele>
        <time>2018-08-08T13:44:24Z</time>
      </trkpt>
      <trkpt lat="45.15041" lon="2.73744">
        <ele>1557.5</ele>
        <time>2018-08-08T13:45:24Z</time>
      </trkpt>
      <trkpt lat="45.14988" lon="2.73683">
        <ele>1568.3</ele>
        <time>2018-08-08T13:46:24Z</time>
      </trkpt>
      <trkpt lat="45.14934" lon="2.73611">
        <ele>1580.4</ele>
        <time>2018-08-08T13:47:24Z</time>
      </trkpt>
      <trkpt lat="45.14888" lon="2.73522">
        <ele>1587.7</ele>
        <time>2018-08-08T13:48:24Z</time>
      </trkpt>
      <trkpt lat="45.14847" lon="2.73449">
        <ele>1589.2</ele>
        <time>2018-08-08T13:49:24Z</time>
      </trkpt>
      <trkpt lat="45.14798" lon="2.73411">
        <ele>1591</ele>
        <time>2018-08-08T13:50:24Z</time>
      </trkpt>
      <trkpt lat="45.1479" lon="2.73321">
        <ele>1597.1</ele>
        <time>2018-08-08T13:51:24Z</time>
      </trkpt>
      <trkpt lat="45.14801" lon="2.73235">
        <ele>1598.9</ele>
        <time>2018-08-08T13:52:24Z</time>
      </trkpt>
      <trkpt lat="45.14811" lon="2.73209">
        <ele>1593.9</ele>
        <time>2018-08-08T13:53:24Z</time>
      </trkpt>
      <trkpt lat="45.14798" lon="2.73246">
        <ele>1601.3</ele>
        <time>2018-08-08T13:54:24Z</time>
      </trkpt>
      <trkpt lat="45.14761" lon="2.73214">
        <ele>1597.2</ele>
        <time>2018-08-08T13:55:24Z</time>
      </trkpt>
      <trkpt lat="45.14698" lon="2.73163">
        <ele>1580.4</ele>
        <time>2018-08-08T13:56:24Z</time>
      </trkpt>
      <trkpt lat="45.1463" lon="2.73133">
        <ele>1566.5</ele>
        <time>2018-08-08T13:57:24Z</time>
      </trkpt>
      <trkpt lat="45.14613" lon="2.73106">
        <ele>1557.1</ele>
        <time>2018-08-08T13:58:24Z</time>
      </trkpt>
      <trkpt lat="45.14585" lon="2.73047">
        <ele>1538.6</ele>
        <time>2018-08-08T13:59:24Z</time>
      </trkpt>
      <trkpt lat="45.14553" lon="2.73004">
        <ele>1528.2</ele>
        <time>2018-08-08T14:00:24Z</time>
      </trkpt>
      <trkpt lat="45.14518" lon="2.7295">
        <ele>1516.8</ele>
        <time>2018-08-08T14:01:24Z</time>
      </trkpt>
      <trkpt lat="45.14468" lon="2.72878">
        <ele>1506.6</ele>
        <time>2018-08-08T14:02:24Z</time>
      </trkpt>
      <trkpt lat="45.14446" lon="2.72783">
        <ele>1491.6</ele>
        <time>2018-08-08T14:03:24Z</time>
      </trkpt>
      <trkpt lat="45.14444" lon="2.72753">
        <ele>1486.3</ele>
        <time>2018-08-08T14:04:24Z</time>
      </trkpt>
      <trkpt lat="45.14466" lon="2.72689">
        <ele>1471.5</ele>
        <time>2018-08-08T14:05:24Z</time>
      </trkpt>
      <trkpt lat="45.14461" lon="2.7258">
        <ele>1458.8</ele>
        <time>2018-08-08T14:06:24Z</time>
      </trkpt>
      <trkpt lat="45.14439" lon="2.72493">
        <ele>1457.9</ele>
        <time>2018-08-08T14:07:24Z</time>
      </trkpt>
      <trkpt lat="45.14422" lon="2.72383">
        <ele>1453.7</ele>
        <time>2018-08-08T14:08:24Z</time>
      </trkpt>
      <trkpt lat="45.14431" lon="2.72299">
        <ele>1444.8</ele>
        <time>2018-08-08T14:09:24Z</time>
      </trkpt>
      <trkpt lat="45.14397" lon="2.72254">
        <ele>1447.6</ele>
        <time>2018-08-08T14:10:24Z</time>
      </trkpt>
      <trkpt lat="45.14327" lon="2.72244">
        <ele>1438.6</ele>
        <time>2018-08-08T14:11:24Z</time>
      </trkpt>
      <trkpt lat="45.14272" lon="2.72207">
        <ele>1423.1</ele>
        <time>2018-08-08T14:12:24Z</time>
      </trkpt>
      <trkpt lat="45.1423" lon="2.72115">
        <ele>1400.4</ele>
        <time>2018-08-08T14:13:24Z</time>
      </trkpt>
      <trkpt lat="45.14241" lon="2.72035">
        <ele>1380</ele>
        <time>2018-08-08T14:14:24Z</time>
      </trkpt>
      <trkpt lat="45.14282" lon="2.7196">
        <ele>1359.6</ele>
        <time>2018-08-08T14:15:24Z</time>
      </trkpt>
      <trkpt lat="45.14282" lon="2.71893">
        <ele>1343.9</ele>
        <time>2018-08-08T14:16:24Z</time>
      </trkpt>
      <trkpt lat="45.14258" lon="2.71776">
        <ele>1328.3</ele>
        <time>2018-08-08T14:17:24Z</time>
      </trkpt>
      <trkpt lat="45.14285" lon="2.71694">
        <ele>1314.8</ele>
        <time>2018-08-08T14:18:24Z</time>
      </trkpt>
      <trkpt lat="45.14273" lon="2.71566">
        <ele>1312.3</ele>
        <time>2018-08-08T14:19:24Z</time>
      </trkpt>
      <trkpt lat="45.14259" lon="2.71479">
        <ele>1304.6</ele>
        <time>2018-08-08T14:20:24Z</time>
      </trkpt>
      <trkpt lat="45.14328" lon="2.71393">
        <ele>1270.9</ele>
        <time>2018-08-08T14:21:24Z</time>
      </trkpt>
      <trkpt lat="45.14324" lon="2.71302">
        <ele>1273</ele>
        <time>2018-08-08T14:22:24Z</time>
      </trkpt>
      <trkpt lat="45.14288" lon="2.71229">
        <ele>1285.5</ele>
        <time>2018-08-08T14:23:24Z</time>
      </trkpt>
      <trkpt lat="45.14273" lon="2.71138">
        <ele>1283</ele>
        <time>2018-08-08T14:24:24Z</time>
      </trkpt>
      <trkpt lat="45.1434" lon="2.7105">
        <ele>1262</ele>
        <time>2018-08-08T14:25:24Z</time>
      </trkpt>
      <trkpt lat="45.14371" lon="2.71192">
        <ele>1251.6</ele>
        <time>2018-08-08T14:26:24Z</time>
      </trkpt>
      <trkpt lat="45.14437" lon="2.7126">
        <ele>1234.5</ele>
        <time>2018-08-08T14:27:24Z</time>
      </trkpt>
      <trkpt lat="45.14471" lon="2.71398">
        <ele>1232.7</ele>
        <time>2018-08-08T14:28:24Z</time>
      </trkpt>
      <trkpt lat="45.14545" lon="2.71473">
        <ele>1246.4</ele>
        <time>2018-08-08T14:29:24Z</time>
      </trkpt>
      <trkpt lat="45.14614" lon="2.71414">
        <ele>1240.1</ele>
        <time>2018-08-08T14:30:24Z</time>
      </trkpt>
      <trkpt lat="45.14679" lon="2.7141">
        <ele>1252.6</ele>
        <time>2018-08-08T14:31:24Z</time>
      </trkpt>
      <trkpt lat="45.14714" lon="2.71323">
        <ele>1227.9</ele>
        <time>2018-08-08T14:32:24Z</time>
      </trkpt>
      <trkpt lat="45.14759" lon="2.71231">
        <ele>1200.1</ele>
        <time>2018-08-08T14:33:24Z</time>
      </trkpt>
      <trkpt lat="45.14835" lon="2.71213">
        <ele>1182.2</ele>
        <time>2018-08-08T14:34:24Z</time>
      </trkpt>
      <trkpt lat="45.1492" lon="2.71238">
        <ele>1179.9</ele>
        <time>2018-08-08T14:35:24Z</time>
      </trkpt>
      <trkpt lat="45.14999" lon="2.7124">
        <ele>1164.1</ele>
        <time>2018-08-08T14:36:24Z</time>
      </trkpt>
      <trkpt lat="45.15079" lon="2.71245">
        <ele>1150.5</ele>
        <time>2018-08-08T14:37:24Z</time>
      </trkpt>
      <trkpt lat="45.1517" lon="2.71258">
        <ele>1138.3</ele>
        <time>2018-08-08T14:38:24Z</time>
      </trkpt>
      <trkpt lat="45.15205" lon="2.71245">
        <ele>1129.6</ele>
        <time>2018-08-08T14:39:24Z</time>
      </trkpt>
      <trkpt lat="45.15141" lon="2.71168">
        <ele>1122.7</ele>
        <time>2018-08-08T14:40:24Z</time>
      </trkpt>
      <trkpt lat="45.15068" lon="2.7111">
        <ele>1117.6</ele>
        <time>2018-08-08T14:41:24Z</time>
      </trkpt>
      <trkpt lat="45.15089" lon="2.7108">
        <ele>1108.7</ele>
        <time>2018-08-08T14:42:24Z</time>
      </trkpt>
      <trkpt lat="45.15097" lon="2.71069">
        <ele>1105.9</ele>
        <time>2018-08-08T14:43:24Z</time>
      </trkpt>
      <trkpt lat="45.15078" lon="2.71077">
        <ele>1109</ele>
        <time>2018-08-08T14:44:24Z</time>
      </trkpt>
      <trkpt lat="45.15087" lon="2.71032">
        <ele>1099.1</ele>
        <time>2018-08-08T14:45:24Z</time>
      </trkpt>
      <trkpt lat="45.15067" lon="2.71078">
        <ele>1109.9</ele>
        <time>2018-08-08T14:46:24Z</time>
      </trkpt>
      <trkpt lat="45.15077" lon="2.71082">
        <ele>1110.1</ele>
        <time>2018-08-08T14:47:24Z</time>
      </trkpt>
      <trkpt lat="45.15065" lon="2.71075">
        <ele>1109.2</ele>
        <time>2018-08-08T14:48:24Z</time>
      </trkpt>
      <trkpt lat="45.1508" lon="2.71075">
        <ele>1108.3</ele>
        <time>2018-08-08T14:49:24Z</time>
      </trkpt>
      <trkpt lat="45.15034" lon="2.71059">
        <ele>1107.9</ele>
        <time>2018-08-08T14:50:24Z</time>
      </trkpt>
      <trkpt lat="45.15062" lon="2.71025">
        <ele>1099.3</ele>
        <time>2018-08-08T08:26:42Z</time>
      </trkpt>
      <trkpt lat="45.15072" lon="2.71037">
        <ele>1101.1</ele>
        <time>2018-08-08T08:27:42Z</time>
      </trkpt>
      <trkpt lat="45.15096" lon="2.71078">
        <ele>1107.7</ele>
        <time>2018-08-08T08:28:42Z</time>
      </trkpt>
      <trkpt lat="45.15071" lon="2.71109">
        <ele>1117</ele>
        <time>2018-08-08T08:29:42Z</time>
      </trkpt>
      <trkpt lat="45.15121" lon="2.71152">
        <ele>1121.5</ele>
        <time>2018-08-08T08:30:42Z</time>
      </trkpt>
      <trkpt lat="45.15165" lon="2.712">
        <ele>1126.3</ele>
        <time>2018-08-08T08:31:42Z</time>
      </trkpt>
      <trkpt lat="45.15204" lon="2.71265">
        <ele>1133.8</ele>
        <time>2018-08-08T08:32:42Z</time>
      </trkpt>
      <trkpt lat="45.15145" lon="2.71247">
        <ele>1139.7</ele>
        <time>2018-08-08T08:33:42Z</time>
      </trkpt>
      <trkpt lat="45.15078" lon="2.71236">
        <ele>1148.3</ele>
        <time>2018-08-08T08:34:42Z</time>
      </trkpt>
      <trkpt lat="45.15022" lon="2.71227">
        <ele>1156</ele>
        <time>2018-08-08T08:35:42Z</time>
      </trkpt>
      <trkpt lat="45.14956" lon="2.71228">
        <ele>1169.4</ele>
        <time>2018-08-08T08:36:42Z</time>
      </trkpt>
      <trkpt lat="45.14898" lon="2.71238">
        <ele>1183</ele>
        <time>2018-08-08T08:37:42Z</time>
      </trkpt>
      <trkpt lat="45.14833" lon="2.71225">
        <ele>1186.7</ele>
        <time>2018-08-08T08:38:42Z</time>
      </trkpt>
      <trkpt lat="45.14733" lon="2.71246">
        <ele>1206.9</ele>
        <time>2018-08-08T08:39:42Z</time>
      </trkpt>
      <trkpt lat="45.14714" lon="2.71303">
        <ele>1222.4</ele>
        <time>2018-08-08T08:40:42Z</time>
      </trkpt>
      <trkpt lat="45.14689" lon="2.71366">
        <ele>1239.7</ele>
        <time>2018-08-08T08:41:42Z</time>
      </trkpt>
      <trkpt lat="45.1463" lon="2.71428">
        <ele>1247.9</ele>
        <time>2018-08-08T08:42:42Z</time>
      </trkpt>
      <trkpt lat="45.14563" lon="2.71451">
        <ele>1241.9</ele>
        <time>2018-08-08T08:43:42Z</time>
      </trkpt>
      <trkpt lat="45.14519" lon="2.71512">
        <ele>1254</ele>
        <time>2018-08-08T08:44:42Z</time>
      </trkpt>
      <trkpt lat="45.1449" lon="2.71434">
        <ele>1235.6</ele>
        <time>2018-08-08T08:45:42Z</time>
      </trkpt>
      <trkpt lat="45.14433" lon="2.71419">
        <ele>1240.8</ele>
        <time>2018-08-08T08:46:42Z</time>
      </trkpt>
      <trkpt lat="45.14416" lon="2.71327">
        <ele>1239.4</ele>
        <time>2018-08-08T08:47:42Z</time>
      </trkpt>
      <trkpt lat="45.14425" lon="2.71255">
        <ele>1238.3</ele>
        <time>2018-08-08T08:48:42Z</time>
      </trkpt>
      <trkpt lat="45.14372" lon="2.712">
        <ele>1252</ele>
        <time>2018-08-08T08:49:42Z</time>
      </trkpt>
      <trkpt lat="45.14319" lon="2.71146">
        <ele>1268.3</ele>
        <time>2018-08-08T08:50:42Z</time>
      </trkpt>
      <trkpt lat="45.14341" lon="2.71078">
        <ele>1262.8</ele>
        <time>2018-08-08T08:51:42Z</time>
      </trkpt>
      <trkpt lat="45.14304" lon="2.71131">
        <ele>1273.4</ele>
        <time>2018-08-08T08:52:42Z</time>
      </trkpt>
      <trkpt lat="45.1428" lon="2.71202">
        <ele>1285.2</ele>
        <time>2018-08-08T08:53:42Z</time>
      </trkpt>
      <trkpt lat="45.14322" lon="2.71262">
        <ele>1274.4</ele>
        <time>2018-08-08T08:54:42Z</time>
      </trkpt>
      <trkpt lat="45.14314" lon="2.71356">
        <ele>1277.4</ele>
        <time>2018-08-08T08:55:42Z</time>
      </trkpt>
      <trkpt lat="45.14306" lon="2.71436">
        <ele>1282</ele>
        <time>2018-08-08T08:56:42Z</time>
      </trkpt>
      <trkpt lat="45.14265" lon="2.71516">
        <ele>1307.1</ele>
        <time>2018-08-08T08:57:42Z</time>
      </trkpt>
      <trkpt lat="45.14298" lon="2.71604">
        <ele>1305.7</ele>
        <time>2018-08-08T08:58:42Z</time>
      </trkpt>
      <trkpt lat="45.14268" lon="2.7171">
        <ele>1321.6</ele>
        <time>2018-08-08T08:59:42Z</time>
      </trkpt>
      <trkpt lat="45.1426" lon="2.71775">
        <ele>1327.5</ele>
        <time>2018-08-08T09:00:42Z</time>
      </trkpt>
      <trkpt lat="45.14243" lon="2.71796">
        <ele>1336.2</ele>
        <time>2018-08-08T09:01:42Z</time>
      </trkpt>
      <trkpt lat="45.14207" lon="2.71737">
        <ele>1347.2</ele>
        <time>2018-08-08T09:02:42Z</time>
      </trkpt>
      <trkpt lat="45.14213" lon="2.71643">
        <ele>1342.4</ele>
        <time>2018-08-08T09:03:42Z</time>
      </trkpt>
      <trkpt lat="45.14143" lon="2.71611">
        <ele>1364.1</ele>
        <time>2018-08-08T09:04:42Z</time>
      </trkpt>
      <trkpt lat="45.1416" lon="2.71499">
        <ele>1341.5</ele>
        <time>2018-08-08T09:05:42Z</time>
      </trkpt>
      <trkpt lat="45.14181" lon="2.71431">
        <ele>1336.2</ele>
        <time>2018-08-08T09:06:42Z</time>
      </trkpt>
      <trkpt lat="45.14212" lon="2.71359">
        <ele>1326</ele>
        <time>2018-08-08T09:07:42Z</time>
      </trkpt>
      <trkpt lat="45.14171" lon="2.71276">
        <ele>1336.5</ele>
        <time>2018-08-08T09:08:42Z</time>
      </trkpt>
      <trkpt lat="45.14124" lon="2.71282">
        <ele>1353.3</ele>
        <time>2018-08-08T09:09:42Z</time>
      </trkpt>
      <trkpt lat="45.14041" lon="2.71254">
        <ele>1361.9</ele>
        <time>2018-08-08T09:10:42Z</time>
      </trkpt>
      <trkpt lat="45.13986" lon="2.71324">
        <ele>1390.6</ele>
        <time>2018-08-08T09:11:42Z</time>
      </trkpt>
      <trkpt lat="45.13915" lon="2.7131">
        <ele>1374.3</ele>
        <time>2018-08-08T09:12:42Z</time>
      </trkpt>
      <trkpt lat="45.13925" lon="2.71313">
        <ele>1376.8</ele>
        <time>2018-08-08T09:13:42Z</time>
      </trkpt>
      <trkpt lat="45.13949" lon="2.71274">
        <ele>1364.6</ele>
        <time>2018-08-08T09:14:42Z</time>
      </trkpt>
      <trkpt lat="45.13892" lon="2.71292">
        <ele>1365.2</ele>
        <time>2018-08-08T09:15:42Z</time>
      </trkpt>
      <trkpt lat="45.13878" lon="2.71205">
        <ele>1332.5</ele>
        <time>2018-08-08T09:16:42Z</time>
      </trkpt>
      <trkpt lat="45.13829" lon="2.71145">
        <ele>1315.5</ele>
        <time>2018-08-08T09:17:42Z</time>
      </trkpt>
      <trkpt lat="45.13798" lon="2.71043">
        <ele>1297.8</ele>
        <time>2018-08-08T09:18:42Z</time>
      </trkpt>
      <trkpt lat="45.13756" lon="2.70975">
        <ele>1299.5</ele>
        <time>2018-08-08T09:19:42Z</time>
      </trkpt>
      <trkpt lat="45.13745" lon="2.7088">
        <ele>1304.8</ele>
        <time>2018-08-08T09:20:42Z</time>
      </trkpt>
      <trkpt lat="45.13703" lon="2.7088">
        <ele>1320.6</ele>
        <time>2018-08-08T09:21:42Z</time>
      </trkpt>
      <trkpt lat="45.13647" lon="2.70848">
        <ele>1334.6</ele>
        <time>2018-08-08T09:22:42Z</time>
      </trkpt>
      <trkpt lat="45.13576" lon="2.70817">
        <ele>1334.7</ele>
        <time>2018-08-08T09:23:42Z</time>
      </trkpt>
      <trkpt lat="45.13504" lon="2.70795">
        <ele>1346.9</ele>
        <time>2018-08-08T09:24:42Z</time>
      </trkpt>
      <trkpt lat="45.13456" lon="2.70756">
        <ele>1340.9</ele>
        <time>2018-08-08T09:25:42Z</time>
      </trkpt>
      <trkpt lat="45.13402" lon="2.70721">
        <ele>1337.5</ele>
        <time>2018-08-08T09:26:42Z</time>
      </trkpt>
      <trkpt lat="45.13334" lon="2.70683">
        <ele>1342.5</ele>
        <time>2018-08-08T09:27:42Z</time>
      </trkpt>
      <trkpt lat="45.13292" lon="2.70665">
        <ele>1345.2</ele>
        <time>2018-08-08T09:28:42Z</time>
      </trkpt>
      <trkpt lat="45.13304" lon="2.70637">
        <ele>1329.1</ele>
        <time>2018-08-08T09:29:42Z</time>
      </trkpt>
      <trkpt lat="45.13289" lon="2.70659">
        <ele>1343.7</ele>
        <time>2018-08-08T09:30:42Z</time>
      </trkpt>
      <trkpt lat="45.13253" lon="2.7061">
        <ele>1335.3</ele>
        <time>2018-08-08T09:31:42Z</time>
      </trkpt>
      <trkpt lat="45.13211" lon="2.70536">
        <ele>1324.5</ele>
        <time>2018-08-08T09:32:42Z</time>
      </trkpt>
      <trkpt lat="45.13164" lon="2.7046">
        <ele>1327.3</ele>
        <time>2018-08-08T09:33:42Z</time>
      </trkpt>
      <trkpt lat="45.13128" lon="2.70389">
        <ele>1311.5</ele>
        <time>2018-08-08T09:34:42Z</time>
      </trkpt>
      <trkpt lat="45.13075" lon="2.70327">
        <ele>1307.4</ele>
        <time>2018-08-08T09:35:42Z</time>
      </trkpt>
      <trkpt lat="45.13037" lon="2.70238">
        <ele>1305.7</ele>
        <time>2018-08-08T09:36:42Z</time>
      </trkpt>
      <trkpt lat="45.12999" lon="2.70172">
        <ele>1324.1</ele>
        <time>2018-08-08T09:37:42Z</time>
      </trkpt>
      <trkpt lat="45.12981" lon="2.70107">
        <ele>1317.2</ele>
        <time>2018-08-08T09:38:42Z</time>
      </trkpt>
      <trkpt lat="45.12904" lon="2.70055">
        <ele>1326.9</ele>
        <time>2018-08-08T09:39:42Z</time>
      </trkpt>
      <trkpt lat="45.12842" lon="2.70022">
        <ele>1332.3</ele>
        <time>2018-08-08T09:40:42Z</time>
      </trkpt>
      <trkpt lat="45.12777" lon="2.69957">
        <ele>1330.2</ele>
        <time>2018-08-08T09:41:42Z</time>
      </trkpt>
      <trkpt lat="45.12713" lon="2.69894">
        <ele>1334.8</ele>
        <time>2018-08-08T09:42:42Z</time>
      </trkpt>
      <trkpt lat="45.12646" lon="2.69818">
        <ele>1335.7</ele>
        <time>2018-08-08T09:43:42Z</time>
      </trkpt>
      <trkpt lat="45.12594" lon="2.69745">
        <ele>1331.9</ele>
        <time>2018-08-08T09:44:42Z</time>
      </trkpt>
      <trkpt lat="45.12486" lon="2.69605">
        <ele>1346.7</ele>
        <time>2018-08-08T09:45:42Z</time>
      </trkpt>
      <trkpt lat="45.12444" lon="2.69513">
        <ele>1345.2</ele>
        <time>2018-08-08T09:46:42Z</time>
      </trkpt>
      <trkpt lat="45.12361" lon="2.69476">
        <ele>1370.2</ele>
        <time>2018-08-08T09:47:42Z</time>
      </trkpt>
      <trkpt lat="45.12282" lon="2.69433">
        <ele>1377.2</ele>
        <time>2018-08-08T09:48:42Z</time>
      </trkpt>
      <trkpt lat="45.12201" lon="2.69418">
        <ele>1382.7</ele>
        <time>2018-08-08T09:49:42Z</time>
      </trkpt>
      <trkpt lat="45.12138" lon="2.69354">
        <ele>1372.8</ele>
        <time>2018-08-08T09:50:42Z</time>
      </trkpt>
      <trkpt lat="45.12059" lon="2.69329">
        <ele>1374.6</ele>
        <time>2018-08-08T09:51:42Z</time>
      </trkpt>
      <trkpt lat="45.11976" lon="2.69319">
        <ele>1372.1</ele>
        <time>2018-08-08T09:52:42Z</time>
      </trkpt>
      <trkpt lat="45.11898" lon="2.69275">
        <ele>1361.8</ele>
        <time>2018-08-08T09:53:42Z</time>
      </trkpt>
      <trkpt lat="45.11833" lon="2.69223">
        <ele>1360.5</ele>
        <time>2018-08-08T09:54:42Z</time>
      </trkpt>
      <trkpt lat="45.11759" lon="2.69169">
        <ele>1360.6</ele>
        <time>2018-08-08T09:55:42Z</time>
      </trkpt>
      <trkpt lat="45.11682" lon="2.69114">
        <ele>1360.1</ele>
        <time>2018-08-08T09:56:42Z</time>
      </trkpt>
      <trkpt lat="45.11605" lon="2.69057">
        <ele>1359.2</ele>
        <time>2018-08-08T09:57:42Z</time>
      </trkpt>
      <trkpt lat="45.11541" lon="2.69008">
        <ele>1361.7</ele>
        <time>2018-08-08T09:58:42Z</time>
      </trkpt>
      <trkpt lat="45.11469" lon="2.68941">
        <ele>1364.9</ele>
        <time>2018-08-08T09:59:42Z</time>
      </trkpt>
      <trkpt lat="45.11412" lon="2.68877">
        <ele>1372.5</ele>
        <time>2018-08-08T10:00:42Z</time>
      </trkpt>
      <trkpt lat="45.11396" lon="2.68773">
        <ele>1370.3</ele>
        <time>2018-08-08T10:01:42Z</time>
      </trkpt>
      <trkpt lat="45.11396" lon="2.68678">
        <ele>1367.9</ele>
        <time>2018-08-08T10:02:42Z</time>
      </trkpt>
      <trkpt lat="45.11375" lon="2.68617">
        <ele>1376.9</ele>
        <time>2018-08-08T10:03:42Z</time>
      </trkpt>
      <trkpt lat="45.11326" lon="2.68588">
        <ele>1393.3</ele>
        <time>2018-08-08T10:04:42Z</time>
      </trkpt>
      <trkpt lat="45.11315" lon="2.68588">
        <ele>1395.6</ele>
        <time>2018-08-08T10:05:42Z</time>
      </trkpt>
      <trkpt lat="45.11326" lon="2.68545">
        <ele>1393.3</ele>
        <time>2018-08-08T10:06:42Z</time>
      </trkpt>
      <trkpt lat="45.11268" lon="2.68497">
        <ele>1401.8</ele>
        <time>2018-08-08T10:07:42Z</time>
      </trkpt>
      <trkpt lat="45.11208" lon="2.68562">
        <ele>1412.7</ele>
        <time>2018-08-08T10:08:42Z</time>
      </trkpt>
      <trkpt lat="45.11184" lon="2.6858">
        <ele>1416.6</ele>
        <time>2018-08-08T10:09:42Z</time>
      </trkpt>
      <trkpt lat="45.11139" lon="2.68562">
        <ele>1420.6</ele>
        <time>2018-08-08T10:10:42Z</time>
      </trkpt>
      <trkpt lat="45.11142" lon="2.6852">
        <ele>1418.1</ele>
        <time>2018-08-08T10:11:42Z</time>
      </trkpt>
      <trkpt lat="45.11111" lon="2.68502">
        <ele>1422.4</ele>
        <time>2018-08-08T10:12:42Z</time>
      </trkpt>
      <trkpt lat="45.11058" lon="2.68452">
        <ele>1445.9</ele>
        <time>2018-08-08T10:13:42Z</time>
      </trkpt>
      <trkpt lat="45.11021" lon="2.68398">
        <ele>1476.4</ele>
        <time>2018-08-08T10:14:42Z</time>
      </trkpt>
      <trkpt lat="45.10997" lon="2.68349">
        <ele>1499.2</ele>
        <time>2018-08-08T10:15:42Z</time>
      </trkpt>
      <trkpt lat="45.1096" lon="2.68314">
        <ele>1506.8</ele>
        <time>2018-08-08T10:16:42Z</time>
      </trkpt>
      <trkpt lat="45.11011" lon="2.68304">
        <ele>1510.4</ele>
        <time>2018-08-08T10:17:42Z</time>
      </trkpt>
      <trkpt lat="45.11047" lon="2.68353">
        <ele>1483.3</ele>
        <time>2018-08-08T10:18:42Z</time>
      </trkpt>
      <trkpt lat="45.11078" lon="2.68332">
        <ele>1480.9</ele>
        <time>2018-08-08T10:19:42Z</time>
      </trkpt>
      <trkpt lat="45.11081" lon="2.68291">
        <ele>1488.1</ele>
        <time>2018-08-08T10:20:42Z</time>
      </trkpt>
      <trkpt lat="45.1113" lon="2.68211">
        <ele>1479.3</ele>
        <time>2018-08-08T10:21:42Z</time>
      </trkpt>
      <trkpt lat="45.11175" lon="2.68165">
        <ele>1464.8</ele>
        <time>2018-08-08T10:22:42Z</time>
      </trkpt>
      <trkpt lat="45.11186" lon="2.68101">
        <ele>1459.5</ele>
        <time>2018-08-08T10:23:42Z</time>
      </trkpt>
      <trkpt lat="45.11204" lon="2.6803">
        <ele>1446.3</ele>
        <time>2018-08-08T10:24:42Z</time>
      </trkpt>
      <trkpt lat="45.11199" lon="2.67998">
        <ele>1451.8</ele>
        <time>2018-08-08T10:25:42Z</time>
      </trkpt>
      <trkpt lat="45.11229" lon="2.67952">
        <ele>1426.7</ele>
        <time>2018-08-08T10:26:42Z</time>
      </trkpt>
      <trkpt lat="45.11206" lon="2.67868">
        <ele>1463.4</ele>
        <time>2018-08-08T10:27:42Z</time>
      </trkpt>
      <trkpt lat="45.11196" lon="2.67786">
        <ele>1493.7</ele>
        <time>2018-08-08T10:28:42Z</time>
      </trkpt>
      <trkpt lat="45.11208" lon="2.67669">
        <ele>1518.8</ele>
        <time>2018-08-08T10:29:42Z</time>
      </trkpt>
      <trkpt lat="45.11244" lon="2.67589">
        <ele>1521</ele>
        <time>2018-08-08T10:30:42Z</time>
      </trkpt>
      <trkpt lat="45.11295" lon="2.67445">
        <ele>1529.3</ele>
        <time>2018-08-08T10:31:42Z</time>
      </trkpt>
      <trkpt lat="45.11327" lon="2.67372">
        <ele>1535.2</ele>
        <time>2018-08-08T10:32:42Z</time>
      </trkpt>
      <trkpt lat="45.11373" lon="2.67258">
        <ele>1554.6</ele>
        <time>2018-08-08T10:33:42Z</time>
      </trkpt>
      <trkpt lat="45.11426" lon="2.67198">
        <ele>1560.5</ele>
        <time>2018-08-08T10:34:42Z</time>
      </trkpt>
      <trkpt lat="45.11438" lon="2.67193">
        <ele>1561.8</ele>
        <time>2018-08-08T10:35:42Z</time>
      </trkpt>
      <trkpt lat="45.11404" lon="2.67206">
        <ele>1560.8</ele>
        <time>2018-08-08T10:36:42Z</time>
      </trkpt>
      <trkpt lat="45.11429" lon="2.67189">
        <ele>1563.4</ele>
        <time>2018-08-08T10:37:42Z</time>
      </trkpt>
      <trkpt lat="45.11422" lon="2.67198">
        <ele>1560.7</ele>
        <time>2018-08-08T10:38:42Z</time>
      </trkpt>
      <trkpt lat="45.11404" lon="2.67187">
        <ele>1566.5</ele>
        <time>2018-08-08T10:39:42Z</time>
      </trkpt>
      <trkpt lat="45.11372" lon="2.67207">
        <ele>1566.6</ele>
        <time>2018-08-08T10:40:42Z</time>
      </trkpt>
      <trkpt lat="45.1133" lon="2.67235">
        <ele>1571.4</ele>
        <time>2018-08-08T10:41:42Z</time>
      </trkpt>
      <trkpt lat="45.11279" lon="2.6726">
        <ele>1579.1</ele>
        <time>2018-08-08T10:42:42Z</time>
      </trkpt>
      <trkpt lat="45.11253" lon="2.67299">
        <ele>1577.2</ele>
        <time>2018-08-08T10:43:42Z</time>
      </trkpt>
      <trkpt lat="45.11207" lon="2.67316">
        <ele>1591.1</ele>
        <time>2018-08-08T10:44:42Z</time>
      </trkpt>
      <trkpt lat="45.11183" lon="2.67341">
        <ele>1598.2</ele>
        <time>2018-08-08T10:45:42Z</time>
      </trkpt>
      <trkpt lat="45.11136" lon="2.67372">
        <ele>1610.7</ele>
        <time>2018-08-08T10:46:42Z</time>
      </trkpt>
      <trkpt lat="45.11104" lon="2.67386">
        <ele>1620.8</ele>
        <time>2018-08-08T10:47:42Z</time>
      </trkpt>
      <trkpt lat="45.11095" lon="2.67425">
        <ele>1618</ele>
        <time>2018-08-08T10:48:42Z</time>
      </trkpt>
      <trkpt lat="45.11053" lon="2.67448">
        <ele>1636.2</ele>
        <time>2018-08-08T10:49:42Z</time>
      </trkpt>
      <trkpt lat="45.11014" lon="2.67474">
        <ele>1657.2</ele>
        <time>2018-08-08T10:50:42Z</time>
      </trkpt>
      <trkpt lat="45.10998" lon="2.6749">
        <ele>1666</ele>
        <time>2018-08-08T10:51:42Z</time>
      </trkpt>
      <trkpt lat="45.10963" lon="2.67503">
        <ele>1684.1</ele>
        <time>2018-08-08T10:52:42Z</time>
      </trkpt>
      <trkpt lat="45.10963" lon="2.67538">
        <ele>1681.1</ele>
        <time>2018-08-08T10:53:42Z</time>
      </trkpt>
      <trkpt lat="45.1095" lon="2.67605">
        <ele>1680.6</ele>
        <time>2018-08-08T10:54:42Z</time>
      </trkpt>
      <trkpt lat="45.10929" lon="2.67612">
        <ele>1696.6</ele>
        <time>2018-08-08T10:55:42Z</time>
      </trkpt>
      <trkpt lat="45.1096" lon="2.67599">
        <ele>1674</ele>
        <time>2018-08-08T10:56:42Z</time>
      </trkpt>
      <trkpt lat="45.10949" lon="2.67605">
        <ele>1681.5</ele>
        <time>2018-08-08T10:57:42Z</time>
      </trkpt>
      <trkpt lat="45.1096" lon="2.676">
        <ele>1674</ele>
        <time>2018-08-08T10:58:42Z</time>
      </trkpt>
      <trkpt lat="45.10939" lon="2.67638">
        <ele>1677.8</ele>
        <time>2018-08-08T10:59:42Z</time>
      </trkpt>
      <trkpt lat="45.10947" lon="2.67702">
        <ele>1655.1</ele>
        <time>2018-08-08T11:00:42Z</time>
      </trkpt>
      <trkpt lat="45.10932" lon="2.6773">
        <ele>1662.9</ele>
        <time>2018-08-08T11:01:42Z</time>
      </trkpt>
      <trkpt lat="45.10888" lon="2.67757">
        <ele>1689.6</ele>
        <time>2018-08-08T11:02:42Z</time>
      </trkpt>
      <trkpt lat="45.10871" lon="2.67779">
        <ele>1694.4</ele>
        <time>2018-08-08T11:03:42Z</time>
      </trkpt>
      <trkpt lat="45.10869" lon="2.67799">
        <ele>1688.9</ele>
        <time>2018-08-08T11:04:42Z</time>
      </trkpt>
      <trkpt lat="45.1084" lon="2.67821">
        <ele>1695</ele>
        <time>2018-08-08T11:05:42Z</time>
      </trkpt>
      <trkpt lat="45.10818" lon="2.67852">
        <ele>1683.9</ele>
        <time>2018-08-08T11:06:42Z</time>
      </trkpt>
      <trkpt lat="45.10798" lon="2.67886">
        <ele>1671.2</ele>
        <time>2018-08-08T11:07:42Z</time>
      </trkpt>
      <trkpt lat="45.10769" lon="2.67924">
        <ele>1657.7</ele>
        <time>2018-08-08T11:08:42Z</time>
      </trkpt>
      <trkpt lat="45.10735" lon="2.6798">
        <ele>1629.8</ele>
        <time>2018-08-08T11:09:42Z</time>
      </trkpt>
      <trkpt lat="45.10709" lon="2.68049">
        <ele>1598.8</ele>
        <time>2018-08-08T11:10:42Z</time>
      </trkpt>
      <trkpt lat="45.10665" lon="2.6813">
        <ele>1558</ele>
        <time>2018-08-08T11:11:42Z</time>
      </trkpt>
      <trkpt lat="45.10615" lon="2.68184">
        <ele>1551.2</ele>
        <time>2018-08-08T11:12:42Z</time>
      </trkpt>
      <trkpt lat="45.10561" lon="2.68228">
        <ele>1551</ele>
        <time>2018-08-08T11:13:42Z</time>
      </trkpt>
      <trkpt lat="45.1054" lon="2.68267">
        <ele>1547.9</ele>
        <time>2018-08-08T11:14:42Z</time>
      </trkpt>
      <trkpt lat="45.10488" lon="2.68337">
        <ele>1554.9</ele>
        <time>2018-08-08T11:15:42Z</time>
      </trkpt>
      <trkpt lat="45.10437" lon="2.68382">
        <ele>1572.3</ele>
        <time>2018-08-08T11:16:42Z</time>
      </trkpt>
      <trkpt lat="45.10423" lon="2.68479">
        <ele>1553.8</ele>
        <time>2018-08-08T11:17:42Z</time>
      </trkpt>
      <trkpt lat="45.10402" lon="2.68542">
        <ele>1549.1</ele>
        <time>2018-08-08T11:18:42Z</time>
      </trkpt>
      <trkpt lat="45.1039" lon="2.68602">
        <ele>1545.7</ele>
        <time>2018-08-08T11:19:42Z</time>
      </trkpt>
      <trkpt lat="45.10397" lon="2.68592">
        <ele>1538.8</ele>
        <time>2018-08-08T11:20:42Z</time>
      </trkpt>
      <trkpt lat="45.10395" lon="2.68632">
        <ele>1536.9</ele>
        <time>2018-08-08T11:21:42Z</time>
      </trkpt>
      <trkpt lat="45.1039" lon="2.68701">
        <ele>1544.5</ele>
        <time>2018-08-08T11:22:42Z</time>
      </trkpt>
      <trkpt lat="45.10382" lon="2.6878">
        <ele>1567.8</ele>
        <time>2018-08-08T11:23:42Z</time>
      </trkpt>
      <trkpt lat="45.1038" lon="2.68887">
        <ele>1579.5</ele>
        <time>2018-08-08T11:24:42Z</time>
      </trkpt>
      <trkpt lat="45.10348" lon="2.68973">
        <ele>1602.2</ele>
        <time>2018-08-08T11:25:42Z</time>
      </trkpt>
      <trkpt lat="45.10314" lon="2.69058">
        <ele>1607.7</ele>
        <time>2018-08-08T11:26:42Z</time>
      </trkpt>
      <trkpt lat="45.10285" lon="2.69158">
        <ele>1618.3</ele>
        <time>2018-08-08T11:27:42Z</time>
      </trkpt>
      <trkpt lat="45.10265" lon="2.69264">
        <ele>1622.9</ele>
        <time>2018-08-08T11:28:42Z</time>
      </trkpt>
      <trkpt lat="45.10268" lon="2.69358">
        <ele>1628.8</ele>
        <time>2018-08-08T11:29:42Z</time>
      </trkpt>
      <trkpt lat="45.10284" lon="2.69434">
        <ele>1614.3</ele>
        <time>2018-08-08T11:30:42Z</time>
      </trkpt>
      <trkpt lat="45.10315" lon="2.6948">
        <ele>1598.9</ele>
        <time>2018-08-08T11:31:42Z</time>
      </trkpt>
      <trkpt lat="45.10366" lon="2.6953">
        <ele>1579.9</ele>
        <time>2018-08-08T11:32:42Z</time>
      </trkpt>
      <trkpt lat="45.10378" lon="2.69621">
        <ele>1590.9</ele>
        <time>2018-08-08T11:33:42Z</time>
      </trkpt>
      <trkpt lat="45.104" lon="2.69716">
        <ele>1597.2</ele>
        <time>2018-08-08T11:34:42Z</time>
      </trkpt>
      <trkpt lat="45.10424" lon="2.69811">
        <ele>1601.2</ele>
        <time>2018-08-08T11:35:42Z</time>
      </trkpt>
      <trkpt lat="45.10456" lon="2.69904">
        <ele>1609</ele>
        <time>2018-08-08T11:36:42Z</time>
      </trkpt>
      <trkpt lat="45.10511" lon="2.69965">
        <ele>1605.3</ele>
        <time>2018-08-08T11:37:42Z</time>
      </trkpt>
      <trkpt lat="45.10555" lon="2.70029">
        <ele>1610.4</ele>
        <time>2018-08-08T11:38:42Z</time>
      </trkpt>
      <trkpt lat="45.10567" lon="2.7009">
        <ele>1621.8</ele>
        <time>2018-08-08T11:39:42Z</time>
      </trkpt>
      <trkpt lat="45.1057" lon="2.702">
        <ele>1648</ele>
        <time>2018-08-08T11:40:42Z</time>
      </trkpt>
      <trkpt lat="45.10573" lon="2.70258">
        <ele>1659.8</ele>
        <time>2018-08-08T11:41:42Z</time>
      </trkpt>
      <trkpt lat="45.10587" lon="2.70352">
        <ele>1667</ele>
        <time>2018-08-08T11:42:42Z</time>
      </trkpt>
      <trkpt lat="45.1061" lon="2.70457">
        <ele>1666.7</ele>
        <time>2018-08-08T11:43:42Z</time>
      </trkpt>
      <trkpt lat="45.10607" lon="2.70565">
        <ele>1654.2</ele>
        <time>2018-08-08T11:44:42Z</time>
      </trkpt>
      <trkpt lat="45.10664" lon="2.70634">
        <ele>1664.6</ele>
        <time>2018-08-08T11:45:42Z</time>
      </trkpt>
      <trkpt lat="45.10702" lon="2.7071">
        <ele>1666.4</ele>
        <time>2018-08-08T11:46:42Z</time>
      </trkpt>
      <trkpt lat="45.10709" lon="2.70816">
        <ele>1658.7</ele>
        <time>2018-08-08T11:47:42Z</time>
      </trkpt>
      <trkpt lat="45.10692" lon="2.70915">
        <ele>1648.9</ele>
        <time>2018-08-08T11:48:42Z</time>
      </trkpt>
      <trkpt lat="45.10713" lon="2.70985">
        <ele>1657.5</ele>
        <time>2018-08-08T11:49:42Z</time>
      </trkpt>
      <trkpt lat="45.10671" lon="2.71069">
        <ele>1634</ele>
        <time>2018-08-08T11:50:42Z</time>
      </trkpt>
      <trkpt lat="45.10603" lon="2.71133">
        <ele>1613.7</ele>
        <time>2018-08-08T11:51:42Z</time>
      </trkpt>
      <trkpt lat="45.10562" lon="2.71224">
        <ele>1618.3</ele>
        <time>2018-08-08T11:52:42Z</time>
      </trkpt>
      <trkpt lat="45.10511" lon="2.713">
        <ele>1600</ele>
        <time>2018-08-08T11:53:42Z</time>
      </trkpt>
      <trkpt lat="45.10432" lon="2.71336">
        <ele>1572.8</ele>
        <time>2018-08-08T11:54:42Z</time>
      </trkpt>
      <trkpt lat="45.10455" lon="2.71377">
        <ele>1577.1</ele>
        <time>2018-08-08T11:55:42Z</time>
      </trkpt>
      <trkpt lat="45.10454" lon="2.71457">
        <ele>1560.3</ele>
        <time>2018-08-08T11:56:42Z</time>
      </trkpt>
      <trkpt lat="45.10406" lon="2.71557">
        <ele>1523.2</ele>
        <time>2018-08-08T11:57:42Z</time>
      </trkpt>
      <trkpt lat="45.10357" lon="2.71621">
        <ele>1510</ele>
        <time>2018-08-08T11:58:42Z</time>
      </trkpt>
      <trkpt lat="45.10298" lon="2.71642">
        <ele>1515.1</ele>
        <time>2018-08-08T11:59:42Z</time>
      </trkpt>
      <trkpt lat="45.10217" lon="2.71627">
        <ele>1523.2</ele>
        <time>2018-08-08T12:00:42Z</time>
      </trkpt>
      <trkpt lat="45.10139" lon="2.71638">
        <ele>1528.1</ele>
        <time>2018-08-08T12:01:42Z</time>
      </trkpt>
      <trkpt lat="45.1007" lon="2.71653">
        <ele>1532.1</ele>
        <time>2018-08-08T12:02:42Z</time>
      </trkpt>
      <trkpt lat="45.09996" lon="2.71638">
        <ele>1521.3</ele>
        <time>2018-08-08T12:03:42Z</time>
      </trkpt>
      <trkpt lat="45.09922" lon="2.71649">
        <ele>1533.3</ele>
        <time>2018-08-08T12:04:42Z</time>
      </trkpt>
      <trkpt lat="45.09839" lon="2.71676">
        <ele>1547.9</ele>
        <time>2018-08-08T12:05:42Z</time>
      </trkpt>
      <trkpt lat="45.09772" lon="2.71693">
        <ele>1552.7</ele>
        <time>2018-08-08T12:06:42Z</time>
      </trkpt>
      <trkpt lat="45.09699" lon="2.71726">
        <ele>1560.4</ele>
        <time>2018-08-08T12:07:42Z</time>
      </trkpt>
      <trkpt lat="45.09632" lon="2.71752">
        <ele>1558.5</ele>
        <time>2018-08-08T12:08:42Z</time>
      </trkpt>
      <trkpt lat="45.09559" lon="2.71763">
        <ele>1544.4</ele>
        <time>2018-08-08T12:09:42Z</time>
      </trkpt>
      <trkpt lat="45.09549" lon="2.71761">
        <ele>1542.8</ele>
        <time>2018-08-08T12:10:42Z</time>
      </trkpt>
      <trkpt lat="45.09474" lon="2.71752">
        <ele>1536.1</ele>
        <time>2018-08-08T12:11:42Z</time>
      </trkpt>
      <trkpt lat="45.09404" lon="2.71724">
        <ele>1529.2</ele>
        <time>2018-08-08T12:12:42Z</time>
      </trkpt>
      <trkpt lat="45.09334" lon="2.71695">
        <ele>1526.5</ele>
        <time>2018-08-08T12:13:42Z</time>
      </trkpt>
      <trkpt lat="45.09319" lon="2.71676">
        <ele>1523.4</ele>
        <time>2018-08-08T12:14:42Z</time>
      </trkpt>
      <trkpt lat="45.09316" lon="2.71659">
        <ele>1520</ele>
        <time>2018-08-08T12:15:42Z</time>
      </trkpt>
      <trkpt lat="45.093" lon="2.71659">
        <ele>1522.3</ele>
        <time>2018-08-08T12:16:42Z</time>
      </trkpt>
      <trkpt lat="45.09318" lon="2.71663">
        <ele>1520.5</ele>
        <time>2018-08-08T12:17:42Z</time>
      </trkpt>
      <trkpt lat="45.09306" lon="2.7166">
        <ele>1521.7</ele>
        <time>2018-08-08T12:18:42Z</time>
      </trkpt>
      <trkpt lat="45.09318" lon="2.71659">
        <ele>1519.7</ele>
        <time>2018-08-08T12:19:42Z</time>
      </trkpt>
      <trkpt lat="45.09306" lon="2.71659">
        <ele>1521.4</ele>
        <time>2018-08-08T12:20:42Z</time>
      </trkpt>
      <trkpt lat="45.09316" lon="2.71673">
        <ele>1523.1</ele>
        <time>2018-08-08T12:21:42Z</time>
      </trkpt>
      <trkpt lat="45.09312" lon="2.7166">
        <ele>1520.8</ele>
        <time>2018-08-08T12:22:42Z</time>
      </trkpt>
      <trkpt lat="45.09298" lon="2.71659">
        <ele>1522.6</ele>
        <time>2018-08-08T12:23:42Z</time>
      </trkpt>
      <trkpt lat="45.09317" lon="2.71661">
        <ele>1520.1</ele>
        <time>2018-08-08T12:24:42Z</time>
      </trkpt>
      <trkpt lat="45.09302" lon="2.71659">
        <ele>1522</ele>
        <time>2018-08-08T12:25:42Z</time>
      </trkpt>
      <trkpt lat="45.09315" lon="2.71667">
        <ele>1521.6</ele>
        <time>2018-08-08T12:26:42Z</time>
      </trkpt>
      <trkpt lat="45.09306" lon="2.71658">
        <ele>1521.2</ele>
        <time>2018-08-08T12:27:42Z</time>
      </trkpt>
      <trkpt lat="45.09311" lon="2.71673">
        <ele>1523.7</ele>
        <time>2018-08-08T12:28:42Z</time>
      </trkpt>
      <trkpt lat="45.09243" lon="2.71673">
        <ele>1531.7</ele>
        <time>2018-08-08T12:29:42Z</time>
      </trkpt>
      <trkpt lat="45.09247" lon="2.71655">
        <ele>1528.8</ele>
        <time>2018-08-08T12:30:42Z</time>
      </trkpt>
      <trkpt lat="45.09232" lon="2.71669">
        <ele>1531.1</ele>
        <time>2018-08-08T12:31:42Z</time>
      </trkpt>
      <trkpt lat="45.0916" lon="2.71688">
        <ele>1528.9</ele>
        <time>2018-08-08T12:32:42Z</time>
      </trkpt>
      <trkpt lat="45.09103" lon="2.71704">
        <ele>1523.9</ele>
        <time>2018-08-08T12:33:42Z</time>
      </trkpt>
      <trkpt lat="45.09093" lon="2.7171">
        <ele>1521.3</ele>
        <time>2018-08-08T12:34:42Z</time>
      </trkpt>
      <trkpt lat="45.0906" lon="2.71736">
        <ele>1511.8</ele>
        <time>2018-08-08T12:35:42Z</time>
      </trkpt>
      <trkpt lat="45.09023" lon="2.71829">
        <ele>1491.5</ele>
        <time>2018-08-08T12:36:42Z</time>
      </trkpt>
      <trkpt lat="45.0902" lon="2.7192">
        <ele>1476.7</ele>
        <time>2018-08-08T12:37:42Z</time>
      </trkpt>
      <trkpt lat="45.08974" lon="2.71998">
        <ele>1465.2</ele>
        <time>2018-08-08T12:38:42Z</time>
      </trkpt>
      <trkpt lat="45.08947" lon="2.72077">
        <ele>1454</ele>
        <time>2018-08-08T12:39:42Z</time>
      </trkpt>
      <trkpt lat="45.08941" lon="2.72174">
        <ele>1439.9</ele>
        <time>2018-08-08T12:40:42Z</time>
      </trkpt>
      <trkpt lat="45.08914" lon="2.7226">
        <ele>1437.9</ele>
        <time>2018-08-08T12:41:42Z</time>
      </trkpt>
      <trkpt lat="45.08857" lon="2.72304">
        <ele>1436.4</ele>
        <time>2018-08-08T12:42:42Z</time>
      </trkpt>
      <trkpt lat="45.08811" lon="2.72386">
        <ele>1416.9</ele>
        <time>2018-08-08T12:43:42Z</time>
      </trkpt>
      <trkpt lat="45.08763" lon="2.72462">
        <ele>1402.8</ele>
        <time>2018-08-08T12:44:42Z</time>
      </trkpt>
      <trkpt lat="45.08764" lon="2.72546">
        <ele>1379.2</ele>
        <time>2018-08-08T12:45:42Z</time>
      </trkpt>
      <trkpt lat="45.08708" lon="2.72608">
        <ele>1385.8</ele>
        <time>2018-08-08T12:46:42Z</time>
      </trkpt>
      <trkpt lat="45.08681" lon="2.72693">
        <ele>1381.9</ele>
        <time>2018-08-08T12:47:42Z</time>
      </trkpt>
      <trkpt lat="45.087" lon="2.72803">
        <ele>1358.4</ele>
        <time>2018-08-08T12:48:42Z</time>
      </trkpt>
      <trkpt lat="45.08707" lon="2.72876">
        <ele>1342.5</ele>
        <time>2018-08-08T12:49:42Z</time>
      </trkpt>
      <trkpt lat="45.08712" lon="2.7297">
        <ele>1325</ele>
        <time>2018-08-08T12:50:42Z</time>
      </trkpt>
      <trkpt lat="45.08681" lon="2.73064">
        <ele>1330.6</ele>
        <time>2018-08-08T12:51:42Z</time>
      </trkpt>
      <trkpt lat="45.08653" lon="2.73142">
        <ele>1331.7</ele>
        <time>2018-08-08T12:52:42Z</time>
      </trkpt>
      <trkpt lat="45.08607" lon="2.73213">
        <ele>1336.4</ele>
        <time>2018-08-08T12:53:42Z</time>
      </trkpt>
      <trkpt lat="45.08602" lon="2.73317">
        <ele>1330.6</ele>
        <time>2018-08-08T12:54:42Z</time>
      </trkpt>
      <trkpt lat="45.08566" lon="2.73411">
        <ele>1319</ele>
        <time>2018-08-08T12:55:42Z</time>
      </trkpt>
      <trkpt lat="45.08544" lon="2.73447">
        <ele>1308.8</ele>
        <time>2018-08-08T12:56:42Z</time>
      </trkpt>
      <trkpt lat="45.08526" lon="2.73537">
        <ele>1293.2</ele>
        <time>2018-08-08T12:57:42Z</time>
      </trkpt>
      <trkpt lat="45.08538" lon="2.73638">
        <ele>1276.6</ele>
        <time>2018-08-08T12:58:42Z</time>
      </trkpt>
      <trkpt lat="45.08531" lon="2.73747">
        <ele>1263.9</ele>
        <time>2018-08-08T12:59:42Z</time>
      </trkpt>
      <trkpt lat="45.08582" lon="2.73848">
        <ele>1244.3</ele>
        <time>2018-08-08T13:00:42Z</time>
      </trkpt>
      <trkpt lat="45.08595" lon="2.7397">
        <ele>1236.4</ele>
        <time>2018-08-08T13:01:42Z</time>
      </trkpt>
      <trkpt lat="45.08566" lon="2.74034">
        <ele>1243.8</ele>
        <time>2018-08-08T13:02:42Z</time>
      </trkpt>
      <trkpt lat="45.0855" lon="2.7411">
        <ele>1244.9</ele>
        <time>2018-08-08T13:03:42Z</time>
      </trkpt>
      <trkpt lat="45.08546" lon="2.74191">
        <ele>1239.8</ele>
        <time>2018-08-08T13:04:42Z</time>
      </trkpt>
      <trkpt lat="45.08546" lon="2.74297">
        <ele>1234.6</ele>
        <time>2018-08-08T13:05:42Z</time>
      </trkpt>
      <trkpt lat="45.0853" lon="2.74363">
        <ele>1234.2</ele>
        <time>2018-08-08T13:06:42Z</time>
      </trkpt>
      <trkpt lat="45.08504" lon="2.7446">
        <ele>1236.8</ele>
        <time>2018-08-08T13:07:42Z</time>
      </trkpt>
      <trkpt lat="45.08511" lon="2.74552">
        <ele>1236.4</ele>
        <time>2018-08-08T13:08:42Z</time>
      </trkpt>
      <trkpt lat="45.08489" lon="2.74627">
        <ele>1247.9</ele>
        <time>2018-08-08T13:09:42Z</time>
      </trkpt>
      <trkpt lat="45.08479" lon="2.74584">
        <ele>1251.2</ele>
        <time>2018-08-08T13:10:42Z</time>
      </trkpt>
      <trkpt lat="45.08498" lon="2.74581">
        <ele>1243.6</ele>
        <time>2018-08-08T13:11:42Z</time>
      </trkpt>
      <trkpt lat="45.08497" lon="2.74608">
        <ele>1244.7</ele>
        <time>2018-08-08T13:12:42Z</time>
      </trkpt>
      <trkpt lat="45.08435" lon="2.74631">
        <ele>1267.2</ele>
        <time>2018-08-08T13:13:42Z</time>
      </trkpt>
      <trkpt lat="45.08374" lon="2.74629">
        <ele>1277.3</ele>
        <time>2018-08-08T13:14:42Z</time>
      </trkpt>
      <trkpt lat="45.08299" lon="2.74683">
        <ele>1268.2</ele>
        <time>2018-08-08T13:15:42Z</time>
      </trkpt>
      <trkpt lat="45.08243" lon="2.74718">
        <ele>1257.4</ele>
        <time>2018-08-08T13:16:42Z</time>
      </trkpt>
      <trkpt lat="45.08232" lon="2.74805">
        <ele>1244.3</ele>
        <time>2018-08-08T13:17:42Z</time>
      </trkpt>
      <trkpt lat="45.08238" lon="2.74882">
        <ele>1240.1</ele>
        <time>2018-08-08T13:18:42Z</time>
      </trkpt>
      <trkpt lat="45.08248" lon="2.74936">
        <ele>1238.4</ele>
        <time>2018-08-08T13:19:42Z</time>
      </trkpt>
      <trkpt lat="45.08248" lon="2.74951">
        <ele>1238.5</ele>
        <time>2018-08-08T13:20:42Z</time>
      </trkpt>
      <trkpt lat="45.08238" lon="2.74936">
        <ele>1239.1</ele>
        <time>2018-08-08T13:21:42Z</time>
      </trkpt>
      <trkpt lat="45.08248" lon="2.74943">
        <ele>1238.5</ele>
        <time>2018-08-08T13:22:42Z</time>
      </trkpt>
      <trkpt lat="45.08248" lon="2.74925">
        <ele>1238.3</ele>
        <time>2018-08-08T13:23:42Z</time>
      </trkpt>
      <trkpt lat="45.08253" lon="2.74946">
        <ele>1238.2</ele>
        <time>2018-08-08T13:24:42Z</time>
      </trkpt>
      <trkpt lat="45.08242" lon="2.74927">
        <ele>1238.7</ele>
        <time>2018-08-08T13:25:42Z</time>
      </trkpt>
      <trkpt lat="45.08174" lon="2.74902">
        <ele>1244.4</ele>
        <time>2018-08-08T13:26:42Z</time>
      </trkpt>
      <trkpt lat="45.08108" lon="2.74894">
        <ele>1241.5</ele>
        <time>2018-08-08T13:27:42Z</time>
      </trkpt>
      <trkpt lat="45.0806" lon="2.74945">
        <ele>1242.3</ele>
        <time>2018-08-08T13:28:42Z</time>
      </trkpt>
      <trkpt lat="45.08047" lon="2.75012">
        <ele>1249</ele>
        <time>2018-08-08T13:29:42Z</time>
      </trkpt>
      <trkpt lat="45.07986" lon="2.75112">
        <ele>1264.9</ele>
        <time>2018-08-08T13:30:42Z</time>
      </trkpt>
      <trkpt lat="45.07943" lon="2.75116">
        <ele>1268.6</ele>
        <time>2018-08-08T13:31:42Z</time>
      </trkpt>
      <trkpt lat="45.07888" lon="2.75086">
        <ele>1274.5</ele>
        <time>2018-08-08T13:32:42Z</time>
      </trkpt>
      <trkpt lat="45.07846" lon="2.75099">
        <ele>1280.6</ele>
        <time>2018-08-08T13:33:42Z</time>
      </trkpt>
      <trkpt lat="45.07787" lon="2.75098">
        <ele>1288.7</ele>
        <time>2018-08-08T13:34:42Z</time>
      </trkpt>
      <trkpt lat="45.07733" lon="2.75129">
        <ele>1296.2</ele>
        <time>2018-08-08T13:35:42Z</time>
      </trkpt>
      <trkpt lat="45.07696" lon="2.75174">
        <ele>1301.2</ele>
        <time>2018-08-08T13:36:42Z</time>
      </trkpt>
      <trkpt lat="45.07636" lon="2.752">
        <ele>1313.8</ele>
        <time>2018-08-08T13:37:42Z</time>
      </trkpt>
      <trkpt lat="45.07573" lon="2.75215">
        <ele>1328.7</ele>
        <time>2018-08-08T13:38:42Z</time>
      </trkpt>
      <trkpt lat="45.07524" lon="2.75239">
        <ele>1334.7</ele>
        <time>2018-08-08T13:39:42Z</time>
      </trkpt>
      <trkpt lat="45.07467" lon="2.75282">
        <ele>1341.9</ele>
        <time>2018-08-08T13:40:42Z</time>
      </trkpt>
      <trkpt lat="45.07408" lon="2.75274">
        <ele>1355.3</ele>
        <time>2018-08-08T13:41:42Z</time>
      </trkpt>
      <trkpt lat="45.0736" lon="2.75251">
        <ele>1367.2</ele>
        <time>2018-08-08T13:42:42Z</time>
      </trkpt>
      <trkpt lat="45.07298" lon="2.75246">
        <ele>1376.8</ele>
        <time>2018-08-08T13:43:42Z</time>
      </trkpt>
      <trkpt lat="45.07233" lon="2.7529">
        <ele>1380.2</ele>
        <time>2018-08-08T13:44:42Z</time>
      </trkpt>
      <trkpt lat="45.07205" lon="2.75343">
        <ele>1380.7</ele>
        <time>2018-08-08T13:45:42Z</time>
      </trkpt>
      <trkpt lat="45.07232" lon="2.7543">
        <ele>1377.7</ele>
        <time>2018-08-08T13:46:42Z</time>
      </trkpt>
      <trkpt lat="45.07233" lon="2.7552">
        <ele>1391.6</ele>
        <time>2018-08-08T13:47:42Z</time>
      </trkpt>
      <trkpt lat="45.07221" lon="2.75608">
        <ele>1410.5</ele>
        <time>2018-08-08T13:48:42Z</time>
      </trkpt>
      <trkpt lat="45.07195" lon="2.75683">
        <ele>1425.1</ele>
        <time>2018-08-08T13:49:42Z</time>
      </trkpt>
      <trkpt lat="45.07173" lon="2.75767">
        <ele>1443.7</ele>
        <time>2018-08-08T13:50:42Z</time>
      </trkpt>
      <trkpt lat="45.07138" lon="2.75853">
        <ele>1464</ele>
        <time>2018-08-08T13:51:42Z</time>
      </trkpt>
      <trkpt lat="45.07136" lon="2.75906">
        <ele>1477</ele>
        <time>2018-08-08T13:52:42Z</time>
      </trkpt>
      <trkpt lat="45.07161" lon="2.75974">
        <ele>1502.2</ele>
        <time>2018-08-08T13:53:42Z</time>
      </trkpt>
      <trkpt lat="45.07211" lon="2.75963">
        <ele>1512.2</ele>
        <time>2018-08-08T13:54:42Z</time>
      </trkpt>
      <trkpt lat="45.07273" lon="2.75959">
        <ele>1520</ele>
        <time>2018-08-08T13:55:42Z</time>
      </trkpt>
      <trkpt lat="45.07257" lon="2.75996">
        <ele>1534.5</ele>
        <time>2018-08-08T13:56:42Z</time>
      </trkpt>
      <trkpt lat="45.07237" lon="2.76047">
        <ele>1541.8</ele>
        <time>2018-08-08T13:57:42Z</time>
      </trkpt>
      <trkpt lat="45.07206" lon="2.76083">
        <ele>1542.7</ele>
        <time>2018-08-08T13:58:42Z</time>
      </trkpt>
      <trkpt lat="45.07186" lon="2.76166">
        <ele>1555.4</ele>
        <time>2018-08-08T13:59:42Z</time>
      </trkpt>
      <trkpt lat="45.07207" lon="2.76177">
        <ele>1560</ele>
        <time>2018-08-08T14:00:42Z</time>
      </trkpt>
      <trkpt lat="45.07257" lon="2.76125">
        <ele>1554.7</ele>
        <time>2018-08-08T14:01:42Z</time>
      </trkpt>
      <trkpt lat="45.07319" lon="2.76091">
        <ele>1541.5</ele>
        <time>2018-08-08T14:02:42Z</time>
      </trkpt>
      <trkpt lat="45.0735" lon="2.76127">
        <ele>1528.8</ele>
        <time>2018-08-08T14:03:42Z</time>
      </trkpt>
      <trkpt lat="45.07344" lon="2.76194">
        <ele>1530.3</ele>
        <time>2018-08-08T14:04:42Z</time>
      </trkpt>
      <trkpt lat="45.07332" lon="2.76254">
        <ele>1543.4</ele>
        <time>2018-08-08T14:05:42Z</time>
      </trkpt>
      <trkpt lat="45.07324" lon="2.76291">
        <ele>1554.2</ele>
        <time>2018-08-08T14:06:42Z</time>
      </trkpt>
      <trkpt lat="45.07305" lon="2.76321">
        <ele>1568.9</ele>
        <time>2018-08-08T14:07:42Z</time>
      </trkpt>
      <trkpt lat="45.07301" lon="2.76356">
        <ele>1580.1</ele>
        <time>2018-08-08T14:08:42Z</time>
      </trkpt>
      <trkpt lat="45.07319" lon="2.76407">
        <ele>1588</ele>
        <time>2018-08-08T14:09:42Z</time>
      </trkpt>
      <trkpt lat="45.07303" lon="2.76425">
        <ele>1600.2</ele>
        <time>2018-08-08T14:10:42Z</time>
      </trkpt>
      <trkpt lat="45.07237" lon="2.76464">
        <ele>1635.4</ele>
        <time>2018-08-08T14:11:42Z</time>
      </trkpt>
      <trkpt lat="45.07187" lon="2.76513">
        <ele>1661.4</ele>
        <time>2018-08-08T14:12:42Z</time>
      </trkpt>
      <trkpt lat="45.07131" lon="2.76541">
        <ele>1675.5</ele>
        <time>2018-08-08T14:13:42Z</time>
      </trkpt>
      <trkpt lat="45.07075" lon="2.76553">
        <ele>1677.7</ele>
        <time>2018-08-08T14:14:42Z</time>
      </trkpt>
      <trkpt lat="45.0704" lon="2.7662">
        <ele>1706.6</ele>
        <time>2018-08-08T14:15:42Z</time>
      </trkpt>
      <trkpt lat="45.06965" lon="2.76648">
        <ele>1710</ele>
        <time>2018-08-08T14:16:42Z</time>
      </trkpt>
      <trkpt lat="45.06898" lon="2.76656">
        <ele>1704.6</ele>
        <time>2018-08-08T14:17:42Z</time>
      </trkpt>
      <trkpt lat="45.06835" lon="2.76647">
        <ele>1696.7</ele>
        <time>2018-08-08T14:18:42Z</time>
      </trkpt>
      <trkpt lat="45.06773" lon="2.76598">
        <ele>1686.6</ele>
        <time>2018-08-08T14:19:42Z</time>
      </trkpt>
      <trkpt lat="45.06719" lon="2.76588">
        <ele>1699.8</ele>
        <time>2018-08-08T14:20:42Z</time>
      </trkpt>
      <trkpt lat="45.06658" lon="2.76567">
        <ele>1720.3</ele>
        <time>2018-08-08T14:21:42Z</time>
      </trkpt>
      <trkpt lat="45.06608" lon="2.765">
        <ele>1734.5</ele>
        <time>2018-08-08T14:22:42Z</time>
      </trkpt>
      <trkpt lat="45.06567" lon="2.76419">
        <ele>1752.3</ele>
        <time>2018-08-08T14:23:42Z</time>
      </trkpt>
      <trkpt lat="45.06521" lon="2.76332">
        <ele>1761.4</ele>
        <time>2018-08-08T14:24:42Z</time>
      </trkpt>
      <trkpt lat="45.06467" lon="2.76255">
        <ele>1759.5</ele>
        <time>2018-08-08T14:25:42Z</time>
      </trkpt>
      <trkpt lat="45.06419" lon="2.762">
        <ele>1759.9</ele>
        <time>2018-08-08T14:26:42Z</time>
      </trkpt>
      <trkpt lat="45.06354" lon="2.76114">
        <ele>1763.6</ele>
        <time>2018-08-08T14:27:42Z</time>
      </trkpt>
      <trkpt lat="45.06315" lon="2.76091">
        <ele>1776.2</ele>
        <time>2018-08-08T14:28:42Z</time>
      </trkpt>
      <trkpt lat="45.06241" lon="2.76106">
        <ele>1794.7</ele>
        <time>2018-08-08T14:29:42Z</time>
      </trkpt>
      <trkpt lat="45.06179" lon="2.76121">
        <ele>1795.5</ele>
        <time>2018-08-08T14:30:42Z</time>
      </trkpt>
      <trkpt lat="45.06102" lon="2.76146">
        <ele>1799.4</ele>
        <time>2018-08-08T14:31:42Z</time>
      </trkpt>
      <trkpt lat="45.06034" lon="2.76157">
        <ele>1805.9</ele>
        <time>2018-08-08T14:32:42Z</time>
      </trkpt>
      <trkpt lat="45.05979" lon="2.76151">
        <ele>1810.6</ele>
        <time>2018-08-08T14:33:42Z</time>
      </trkpt>
      <trkpt lat="45.05927" lon="2.7616">
        <ele>1815.6</ele>
        <time>2018-08-08T14:34:42Z</time>
      </trkpt>
      <trkpt lat="45.05894" lon="2.76104">
        <ele>1813.8</ele>
        <time>2018-08-08T14:35:42Z</time>
      </trkpt>
      <trkpt lat="45.05909" lon="2.76103">
        <ele>1812.3</ele>
        <time>2018-08-08T14:36:42Z</time>
      </trkpt>
      <trkpt lat="45.05898" lon="2.76115">
        <ele>1814.5</ele>
        <time>2018-08-08T14:37:42Z</time>
      </trkpt>
      <trkpt lat="45.0591" lon="2.76106">
        <ele>1812.5</ele>
        <time>2018-08-08T14:38:42Z</time>
      </trkpt>
      <trkpt lat="45.05879" lon="2.76117">
        <ele>1816.6</ele>
        <time>2018-08-08T14:39:42Z</time>
      </trkpt>
      <trkpt lat="45.05843" lon="2.76131">
        <ele>1822.2</ele>
        <time>2018-08-08T14:40:42Z</time>
      </trkpt>
      <trkpt lat="45.05807" lon="2.76137">
        <ele>1824</ele>
        <time>2018-08-08T14:41:42Z</time>
      </trkpt>
      <trkpt lat="45.05762" lon="2.76198">
        <ele>1818.1</ele>
        <time>2018-08-08T14:42:42Z</time>
      </trkpt>
      <trkpt lat="45.05713" lon="2.76267">
        <ele>1793.5</ele>
        <time>2018-08-08T14:43:42Z</time>
      </trkpt>
      <trkpt lat="45.05699" lon="2.76345">
        <ele>1771.2</ele>
        <time>2018-08-08T14:44:42Z</time>
      </trkpt>
      <trkpt lat="45.05673" lon="2.7642">
        <ele>1753.1</ele>
        <time>2018-08-08T14:45:42Z</time>
      </trkpt>
      <trkpt lat="45.05657" lon="2.76506">
        <ele>1739</ele>
        <time>2018-08-08T14:46:42Z</time>
      </trkpt>
      <trkpt lat="45.05629" lon="2.76586">
        <ele>1726.9</ele>
        <time>2018-08-08T14:47:42Z</time>
      </trkpt>
      <trkpt lat="45.05611" lon="2.767">
        <ele>1715.2</ele>
        <time>2018-08-08T14:48:42Z</time>
      </trkpt>
      <trkpt lat="45.05585" lon="2.76797">
        <ele>1704.3</ele>
        <time>2018-08-08T14:49:42Z</time>
      </trkpt>
      <trkpt lat="45.05546" lon="2.76861">
        <ele>1693.4</ele>
        <time>2018-08-08T14:50:42Z</time>
      </trkpt>
      <trkpt lat="45.05508" lon="2.76965">
        <ele>1675.7</ele>
        <time>2018-08-08T14:51:42Z</time>
      </trkpt>
      <trkpt lat="45.05475" lon="2.77058">
        <ele>1662.6</ele>
        <time>2018-08-08T14:52:42Z</time>
      </trkpt>
      <trkpt lat="45.05447" lon="2.77157">
        <ele>1646.9</ele>
        <time>2018-08-08T14:53:42Z</time>
      </trkpt>
      <trkpt lat="45.05422" lon="2.7724">
        <ele>1623.9</ele>
        <time>2018-08-08T14:54:42Z</time>
      </trkpt>
      <trkpt lat="45.054" lon="2.77312">
        <ele>1606.2</ele>
        <time>2018-08-08T14:55:42Z</time>
      </trkpt>
      <trkpt lat="45.05449" lon="2.7734">
        <ele>1593</ele>
        <time>2018-08-08T14:56:42Z</time>
      </trkpt>
      <trkpt lat="45.05491" lon="2.77369">
        <ele>1582.6</ele>
        <time>2018-08-08T14:57:42Z</time>
      </trkpt>
      <trkpt lat="45.05493" lon="2.77461">
        <ele>1562.9</ele>
        <time>2018-08-08T14:58:42Z</time>
      </trkpt>
      <trkpt lat="45.05439" lon="2.77529">
        <ele>1548.4</ele>
        <time>2018-08-08T14:59:42Z</time>
      </trkpt>
      <trkpt lat="45.05393" lon="2.77615">
        <ele>1522.7</ele>
        <time>2018-08-08T15:00:42Z</time>
      </trkpt>
      <trkpt lat="45.05365" lon="2.77691">
        <ele>1505</ele>
        <time>2018-08-08T15:01:42Z</time>
      </trkpt>
      <trkpt lat="45.0534" lon="2.77756">
        <ele>1494.5</ele>
        <time>2018-08-08T15:02:42Z</time>
      </trkpt>
      <trkpt lat="45.05327" lon="2.77865">
        <ele>1478.1</ele>
        <time>2018-08-08T15:03:42Z</time>
      </trkpt>
      <trkpt lat="45.05321" lon="2.77975">
        <ele>1465.4</ele>
        <time>2018-08-08T15:04:42Z</time>
      </trkpt>
      <trkpt lat="45.05306" lon="2.78073">
        <ele>1454.6</ele>
        <time>2018-08-08T15:05:42Z</time>
      </trkpt>
      <trkpt lat="45.05292" lon="2.78174">
        <ele>1442.1</ele>
        <time>2018-08-08T15:06:42Z</time>
      </trkpt>
      <trkpt lat="45.05283" lon="2.78286">
        <ele>1428.6</ele>
        <time>2018-08-08T15:07:42Z</time>
      </trkpt>
      <trkpt lat="45.05273" lon="2.78384">
        <ele>1421.1</ele>
        <time>2018-08-08T15:08:42Z</time>
      </trkpt>
      <trkpt lat="45.05282" lon="2.78514">
        <ele>1414.8</ele>
        <time>2018-08-08T15:09:42Z</time>
      </trkpt>
      <trkpt lat="45.05294" lon="2.78558">
        <ele>1413</ele>
        <time>2018-08-08T15:10:42Z</time>
      </trkpt>
      <trkpt lat="45.053" lon="2.78668">
        <ele>1410</ele>
        <time>2018-08-08T15:11:42Z</time>
      </trkpt>
      <trkpt lat="45.05321" lon="2.7878">
        <ele>1408.1</ele>
        <time>2018-08-08T15:12:42Z</time>
      </trkpt>
      <trkpt lat="45.05348" lon="2.78867">
        <ele>1406.1</ele>
        <time>2018-08-08T15:13:42Z</time>
      </trkpt>
      <trkpt lat="45.05327" lon="2.78985">
        <ele>1391.4</ele>
        <time>2018-08-08T15:14:42Z</time>
      </trkpt>
      <trkpt lat="45.05312" lon="2.79096">
        <ele>1381.1</ele>
        <time>2018-08-08T15:15:42Z</time>
      </trkpt>
      <trkpt lat="45.05324" lon="2.79209">
        <ele>1376.1</ele>
        <time>2018-08-08T15:16:42Z</time>
      </trkpt>
      <trkpt lat="45.05332" lon="2.79296">
        <ele>1374.1</ele>
        <time>2018-08-08T15:17:42Z</time>
      </trkpt>
      <trkpt lat="45.05377" lon="2.79354">
        <ele>1371.4</ele>
        <time>2018-08-08T15:18:42Z</time>
      </trkpt>
      <trkpt lat="45.05453" lon="2.79341">
        <ele>1367</ele>
        <time>2018-08-08T15:19:42Z</time>
      </trkpt>
      <trkpt lat="45.05519" lon="2.79386">
        <ele>1361.5</ele>
        <time>2018-08-08T15:20:42Z</time>
      </trkpt>
      <trkpt lat="45.05562" lon="2.7948">
        <ele>1351</ele>
        <time>2018-08-08T15:21:42Z</time>
      </trkpt>
      <trkpt lat="45.05608" lon="2.79569">
        <ele>1335.7</ele>
        <time>2018-08-08T15:22:42Z</time>
      </trkpt>
      <trkpt lat="45.05609" lon="2.79488">
        <ele>1341.1</ele>
        <time>2018-08-08T15:23:42Z</time>
      </trkpt>
      <trkpt lat="45.05646" lon="2.79475">
        <ele>1331.7</ele>
        <time>2018-08-08T15:24:42Z</time>
      </trkpt>
      <trkpt lat="45.0568" lon="2.79543">
        <ele>1317.1</ele>
        <time>2018-08-08T15:25:42Z</time>
      </trkpt>
      <trkpt lat="45.05711" lon="2.79592">
        <ele>1305.7</ele>
        <time>2018-08-08T15:26:42Z</time>
      </trkpt>
      <trkpt lat="45.05741" lon="2.79554">
        <ele>1301.1</ele>
        <time>2018-08-08T15:27:42Z</time>
      </trkpt>
      <trkpt lat="45.0576" lon="2.79563">
        <ele>1297.4</ele>
        <time>2018-08-08T15:28:42Z</time>
      </trkpt>
      <trkpt lat="45.05748" lon="2.79621">
        <ele>1296</ele>
        <time>2018-08-08T15:29:42Z</time>
      </trkpt>
      <trkpt lat="45.0576" lon="2.79526">
        <ele>1301.1</ele>
        <time>2018-08-08T15:30:42Z</time>
      </trkpt>
      <trkpt lat="45.05817" lon="2.79465">
        <ele>1312</ele>
        <time>2018-08-08T15:31:42Z</time>
      </trkpt>
      <trkpt lat="45.05891" lon="2.79427">
        <ele>1323.2</ele>
        <time>2018-08-08T15:32:42Z</time>
      </trkpt>
      <trkpt lat="45.05977" lon="2.79439">
        <ele>1334.7</ele>
        <time>2018-08-08T15:33:42Z</time>
      </trkpt>
      <trkpt lat="45.06047" lon="2.79462">
        <ele>1354.7</ele>
        <time>2018-08-08T15:34:42Z</time>
      </trkpt>
      <trkpt lat="45.06127" lon="2.79511">
        <ele>1374.5</ele>
        <time>2018-08-08T15:35:42Z</time>
      </trkpt>
      <trkpt lat="45.06185" lon="2.79596">
        <ele>1374.4</ele>
        <time>2018-08-08T15:36:42Z</time>
      </trkpt>
      <trkpt lat="45.0628" lon="2.79764">
        <ele>1360.6</ele>
        <time>2018-08-08T15:37:42Z</time>
      </trkpt>
      <trkpt lat="45.0633" lon="2.79864">
        <ele>1357.6</ele>
        <time>2018-08-08T15:38:42Z</time>
      </trkpt>
      <trkpt lat="45.06381" lon="2.79949">
        <ele>1356.4</ele>
        <time>2018-08-08T15:39:42Z</time>
      </trkpt>
      <trkpt lat="45.06431" lon="2.80034">
        <ele>1344.8</ele>
        <time>2018-08-08T15:40:42Z</time>
      </trkpt>
      <trkpt lat="45.06484" lon="2.80137">
        <ele>1320.2</ele>
        <time>2018-08-08T15:41:42Z</time>
      </trkpt>
      <trkpt lat="45.06494" lon="2.80232">
        <ele>1309.1</ele>
        <time>2018-08-08T15:42:42Z</time>
      </trkpt>
      <trkpt lat="45.06444" lon="2.80303">
        <ele>1306.3</ele>
        <time>2018-08-08T15:43:42Z</time>
      </trkpt>
      <trkpt lat="45.06373" lon="2.80311">
        <ele>1304.4</ele>
        <time>2018-08-08T15:44:42Z</time>
      </trkpt>
      <trkpt lat="45.06344" lon="2.80363">
        <ele>1296.9</ele>
        <time>2018-08-08T15:45:42Z</time>
      </trkpt>
      <trkpt lat="45.06308" lon="2.80382">
        <ele>1289.9</ele>
        <time>2018-08-08T15:46:42Z</time>
      </trkpt>
      <trkpt lat="45.06258" lon="2.80457">
        <ele>1275</ele>
        <time>2018-08-08T15:47:42Z</time>
      </trkpt>
      <trkpt lat="45.06273" lon="2.80567">
        <ele>1267.1</ele>
        <time>2018-08-08T15:48:42Z</time>
      </trkpt>
      <trkpt lat="45.06267" lon="2.80664">
        <ele>1260.6</ele>
        <time>2018-08-08T15:49:42Z</time>
      </trkpt>
      <trkpt lat="45.063" lon="2.8075">
        <ele>1254.6</ele>
        <time>2018-08-08T15:50:42Z</time>
      </trkpt>
      <trkpt lat="45.06342" lon="2.80836">
        <ele>1245.5</ele>
        <time>2018-08-08T15:51:42Z</time>
      </trkpt>
      <trkpt lat="45.0636" lon="2.80938">
        <ele>1236.5</ele>
        <time>2018-08-08T15:52:42Z</time>
      </trkpt>
      <trkpt lat="45.06386" lon="2.81041">
        <ele>1229.3</ele>
        <time>2018-08-08T15:53:42Z</time>
      </trkpt>
      <trkpt lat="45.06389" lon="2.81154">
        <ele>1220.6</ele>
        <time>2018-08-08T15:54:42Z</time>
      </trkpt>
      <trkpt lat="45.06395" lon="2.8125">
        <ele>1212.2</ele>
        <time>2018-08-08T15:55:42Z</time>
      </trkpt>
      <trkpt lat="45.06373" lon="2.81459">
        <ele>1189.2</ele>
        <time>2018-08-08T15:56:42Z</time>
      </trkpt>
      <trkpt lat="45.06353" lon="2.81537">
        <ele>1178.1</ele>
        <time>2018-08-08T15:57:42Z</time>
      </trkpt>
      <trkpt lat="45.06389" lon="2.81607">
        <ele>1173.8</ele>
        <time>2018-08-08T15:58:42Z</time>
      </trkpt>
      <trkpt lat="45.06406" lon="2.81623">
        <ele>1172.9</ele>
        <time>2018-08-08T15:59:42Z</time>
      </trkpt>
      <trkpt lat="45.06407" lon="2.81664">
        <ele>1164</ele>
        <time>2018-08-08T16:00:42Z</time>
      </trkpt>
      <trkpt lat="45.06443" lon="2.81767">
        <ele>1150.3</ele>
        <time>2018-08-08T16:01:42Z</time>
      </trkpt>
      <trkpt lat="45.06469" lon="2.81862">
        <ele>1140.9</ele>
        <time>2018-08-08T16:02:42Z</time>
      </trkpt>
      <trkpt lat="45.065" lon="2.81964">
        <ele>1131.7</ele>
        <time>2018-08-08T16:03:42Z</time>
      </trkpt>
      <trkpt lat="45.06523" lon="2.81977">
        <ele>1131</ele>
        <time>2018-08-08T16:04:42Z</time>
      </trkpt>
      <trkpt lat="45.06579" lon="2.82061">
        <ele>1125.2</ele>
        <time>2018-08-08T16:05:42Z</time>
      </trkpt>
      <trkpt lat="45.06656" lon="2.82021">
        <ele>1125.9</ele>
        <time>2018-08-08T16:06:42Z</time>
      </trkpt>
      <trkpt lat="45.06736" lon="2.82022">
        <ele>1128.3</ele>
        <time>2018-08-08T16:07:42Z</time>
      </trkpt>
      <trkpt lat="45.06811" lon="2.82029">
        <ele>1135</ele>
        <time>2018-08-08T16:08:42Z</time>
      </trkpt>
      <trkpt lat="45.06893" lon="2.82065">
        <ele>1143.4</ele>
        <time>2018-08-08T16:09:42Z</time>
      </trkpt>
      <trkpt lat="45.06952" lon="2.82134">
        <ele>1145.9</ele>
        <time>2018-08-08T16:10:42Z</time>
      </trkpt>
      <trkpt lat="45.07003" lon="2.82235">
        <ele>1143.8</ele>
        <time>2018-08-08T16:11:42Z</time>
      </trkpt>
      <trkpt lat="45.07042" lon="2.82325">
        <ele>1138.5</ele>
        <time>2018-08-08T16:12:42Z</time>
      </trkpt>
      <trkpt lat="45.071" lon="2.82413">
        <ele>1141</ele>
        <time>2018-08-08T16:13:42Z</time>
      </trkpt>
      <trkpt lat="45.07136" lon="2.82511">
        <ele>1139</ele>
        <time>2018-08-08T16:14:42Z</time>
      </trkpt>
      <trkpt lat="45.07162" lon="2.82618">
        <ele>1135.5</ele>
        <time>2018-08-08T16:15:42Z</time>
      </trkpt>
      <trkpt lat="45.0719" lon="2.82712">
        <ele>1128.6</ele>
        <time>2018-08-08T16:16:42Z</time>
      </trkpt>
      <trkpt lat="45.07255" lon="2.82794">
        <ele>1121.3</ele>
        <time>2018-08-08T16:17:42Z</time>
      </trkpt>
      <trkpt lat="45.0733" lon="2.82836">
        <ele>1115.9</ele>
        <time>2018-08-08T16:18:42Z</time>
      </trkpt>
      <trkpt lat="45.07394" lon="2.82905">
        <ele>1109.6</ele>
        <time>2018-08-08T16:19:42Z</time>
      </trkpt>
      <trkpt lat="45.07463" lon="2.8299">
        <ele>1098.8</ele>
        <time>2018-08-08T16:20:42Z</time>
      </trkpt>
      <trkpt lat="45.07496" lon="2.83058">
        <ele>1090.7</ele>
        <time>2018-08-08T16:21:42Z</time>
      </trkpt>
      <trkpt lat="45.07498" lon="2.83084">
        <ele>1089.4</ele>
        <time>2018-08-08T16:22:42Z</time>
      </trkpt>
      <trkpt lat="45.07553" lon="2.83163">
        <ele>1069</ele>
        <time>2018-08-08T16:23:42Z</time>
      </trkpt>
      <trkpt lat="45.0761" lon="2.83223">
        <ele>1052.3</ele>
        <time>2018-08-08T16:24:42Z</time>
      </trkpt>
      <trkpt lat="45.07653" lon="2.8314">
        <ele>1053.4</ele>
        <time>2018-08-08T16:25:42Z</time>
      </trkpt>
      <trkpt lat="45.07658" lon="2.83182">
        <ele>1050.2</ele>
        <time>2018-08-08T16:26:42Z</time>
      </trkpt>
      <trkpt lat="45.07711" lon="2.83163">
        <ele>1049</ele>
        <time>2018-08-08T16:27:42Z</time>
      </trkpt>
      <trkpt lat="45.07773" lon="2.8322">
        <ele>1049</ele>
        <time>2018-08-08T16:28:42Z</time>
      </trkpt>
      <trkpt lat="45.07829" lon="2.83234">
        <ele>1047.4</ele>
        <time>2018-08-08T16:29:42Z</time>
      </trkpt>
      <trkpt lat="45.07897" lon="2.83205">
        <ele>1040.5</ele>
        <time>2018-08-08T16:30:42Z</time>
      </trkpt>
      <trkpt lat="45.07948" lon="2.83249">
        <ele>1037.7</ele>
        <time>2018-08-08T16:31:42Z</time>
      </trkpt>
      <trkpt lat="45.08004" lon="2.83313">
        <ele>1035.3</ele>
        <time>2018-08-08T16:32:42Z</time>
      </trkpt>
      <trkpt lat="45.08011" lon="2.83332">
        <ele>1035.6</ele>
        <time>2018-08-08T16:33:42Z</time>
      </trkpt>
      <trkpt lat="45.08022" lon="2.8332">
        <ele>1034.9</ele>
        <time>2018-08-08T16:34:42Z</time>
      </trkpt>
      <trkpt lat="45.0801" lon="2.83331">
        <ele>1035.6</ele>
        <time>2018-08-08T16:35:42Z</time>
      </trkpt>
      <trkpt lat="45.0803" lon="2.83296">
        <ele>1034</ele>
        <time>2018-08-08T16:36:42Z</time>
      </trkpt>
      <trkpt lat="45.08086" lon="2.83333">
        <ele>1032.9</ele>
        <time>2018-08-08T16:37:42Z</time>
      </trkpt>
      <trkpt lat="45.08145" lon="2.83384">
        <ele>1031.4</ele>
        <time>2018-08-08T16:38:42Z</time>
      </trkpt>
      <trkpt lat="45.08227" lon="2.83437">
        <ele>1030.6</ele>
        <time>2018-08-08T16:39:42Z</time>
      </trkpt>
      <trkpt lat="45.083" lon="2.83497">
        <ele>1029.6</ele>
        <time>2018-08-08T16:40:42Z</time>
      </trkpt>
      <trkpt lat="45.08348" lon="2.83545">
        <ele>1028.2</ele>
        <time>2018-08-08T16:41:42Z</time>
      </trkpt>
      <trkpt lat="45.08413" lon="2.83603">
        <ele>1024.6</ele>
        <time>2018-08-08T16:42:42Z</time>
      </trkpt>
      <trkpt lat="45.08496" lon="2.83607">
        <ele>1029.2</ele>
        <time>2018-08-08T16:43:42Z</time>
      </trkpt>
      <trkpt lat="45.08552" lon="2.83677">
        <ele>1026.3</ele>
        <time>2018-08-08T16:44:42Z</time>
      </trkpt>
      <trkpt lat="45.08621" lon="2.83729">
        <ele>1023.8</ele>
        <time>2018-08-08T16:45:42Z</time>
      </trkpt>
      <trkpt lat="45.08678" lon="2.83802">
        <ele>1020.1</ele>
        <time>2018-08-08T16:46:42Z</time>
      </trkpt>
      <trkpt lat="45.08746" lon="2.83857">
        <ele>1020.4</ele>
        <time>2018-08-08T16:47:42Z</time>
      </trkpt>
      <trkpt lat="45.08811" lon="2.8389">
        <ele>1021.8</ele>
        <time>2018-08-08T16:48:42Z</time>
      </trkpt>
      <trkpt lat="45.08897" lon="2.83942">
        <ele>1019.7</ele>
        <time>2018-08-08T16:49:42Z</time>
      </trkpt>
      <trkpt lat="45.08962" lon="2.83984">
        <ele>1019.9</ele>
        <time>2018-08-08T16:50:42Z</time>
      </trkpt>
      <trkpt lat="45.09041" lon="2.84037">
        <ele>1021.9</ele>
        <time>2018-08-08T16:51:42Z</time>
      </trkpt>
      <trkpt lat="45.09103" lon="2.84105">
        <ele>1021.6</ele>
        <time>2018-08-08T16:52:42Z</time>
      </trkpt>
      <trkpt lat="45.09185" lon="2.84126">
        <ele>1035.1</ele>
        <time>2018-08-08T16:53:42Z</time>
      </trkpt>
      <trkpt lat="45.09237" lon="2.84208">
        <ele>1032.9</ele>
        <time>2018-08-08T16:54:42Z</time>
      </trkpt>
      <trkpt lat="45.09268" lon="2.84279">
        <ele>1029.3</ele>
        <time>2018-08-08T16:55:42Z</time>
      </trkpt>
      <trkpt lat="45.0932" lon="2.8431">
        <ele>1042.4</ele>
        <time>2018-08-08T16:56:42Z</time>
      </trkpt>
      <trkpt lat="45.0939" lon="2.84362">
        <ele>1050.1</ele>
        <time>2018-08-08T16:57:42Z</time>
      </trkpt>
      <trkpt lat="45.09393" lon="2.84387">
        <ele>1045.3</ele>
        <time>2018-08-08T16:58:42Z</time>
      </trkpt>
      <trkpt lat="45.09346" lon="2.84334">
        <ele>1046</ele>
        <time>2018-08-08T16:59:42Z</time>
      </trkpt>
      <trkpt lat="45.09276" lon="2.84276">
        <ele>1032.4</ele>
        <time>2018-08-08T17:00:42Z</time>
      </trkpt>
      <trkpt lat="45.09212" lon="2.84319">
        <ele>1011.2</ele>
        <time>2018-08-08T17:01:42Z</time>
      </trkpt>
      <trkpt lat="45.09211" lon="2.84404">
        <ele>1000.3</ele>
        <time>2018-08-08T17:02:42Z</time>
      </trkpt>
      <trkpt lat="45.09236" lon="2.84459">
        <ele>992</ele>
        <time>2018-08-08T17:03:42Z</time>
      </trkpt>
      <trkpt lat="45.0928" lon="2.84531">
        <ele>988.4</ele>
        <time>2018-08-08T17:04:42Z</time>
      </trkpt>
      <trkpt lat="45.09306" lon="2.84644">
        <ele>987</ele>
        <time>2018-08-08T17:05:42Z</time>
      </trkpt>
      <trkpt lat="45.09365" lon="2.84743">
        <ele>985.2</ele>
        <time>2018-08-08T17:06:42Z</time>
      </trkpt>
      <trkpt lat="45.09418" lon="2.84827">
        <ele>975.3</ele>
        <time>2018-08-08T17:07:42Z</time>
      </trkpt>
      <trkpt lat="45.09482" lon="2.84878">
        <ele>973.8</ele>
        <time>2018-08-08T17:08:42Z</time>
      </trkpt>
      <trkpt lat="45.09556" lon="2.8496">
        <ele>963.8</ele>
        <time>2018-08-08T17:09:42Z</time>
      </trkpt>
      <trkpt lat="45.09606" lon="2.85049">
        <ele>959.5</ele>
        <time>2018-08-08T17:10:42Z</time>
      </trkpt>
      <trkpt lat="45.09644" lon="2.85156">
        <ele>957</ele>
        <time>2018-08-08T17:11:42Z</time>
      </trkpt>
      <trkpt lat="45.09652" lon="2.8525">
        <ele>963</ele>
        <time>2018-08-08T17:12:42Z</time>
      </trkpt>
      <trkpt lat="45.09682" lon="2.85354">
        <ele>954.9</ele>
        <time>2018-08-08T17:13:42Z</time>
      </trkpt>
      <trkpt lat="45.09687" lon="2.85466">
        <ele>957.3</ele>
        <time>2018-08-08T17:14:42Z</time>
      </trkpt>
      <trkpt lat="45.09719" lon="2.85571">
        <ele>953.1</ele>
        <time>2018-08-08T17:15:42Z</time>
      </trkpt>
      <trkpt lat="45.09743" lon="2.85686">
        <ele>953.6</ele>
        <time>2018-08-08T17:16:42Z</time>
      </trkpt>
      <trkpt lat="45.0977" lon="2.85789">
        <ele>940.6</ele>
        <time>2018-08-08T17:17:42Z</time>
      </trkpt>
      <trkpt lat="45.09771" lon="2.859">
        <ele>942.5</ele>
        <time>2018-08-08T17:18:42Z</time>
      </trkpt>
      <trkpt lat="45.09788" lon="2.86008">
        <ele>943</ele>
        <time>2018-08-08T17:19:42Z</time>
      </trkpt>
      <trkpt lat="45.09805" lon="2.86108">
        <ele>939.3</ele>
        <time>2018-08-08T17:20:42Z</time>
      </trkpt>
      <trkpt lat="45.09825" lon="2.86241">
        <ele>934</ele>
        <time>2018-08-08T17:21:42Z</time>
      </trkpt>
      <trkpt lat="45.09845" lon="2.86361">
        <ele>935.7</ele>
        <time>2018-08-08T17:22:42Z</time>
      </trkpt>
      <trkpt lat="45.09858" lon="2.86456">
        <ele>937.7</ele>
        <time>2018-08-08T17:23:42Z</time>
      </trkpt>
      <trkpt lat="45.09873" lon="2.8658">
        <ele>938.5</ele>
        <time>2018-08-08T17:24:42Z</time>
      </trkpt>
      <trkpt lat="45.09886" lon="2.86688">
        <ele>942</ele>
        <time>2018-08-08T17:25:42Z</time>
      </trkpt>
      <trkpt lat="45.09951" lon="2.86778">
        <ele>937.7</ele>
        <time>2018-08-08T17:26:42Z</time>
      </trkpt>
      <trkpt lat="45.10004" lon="2.86873">
        <ele>941.4</ele>
        <time>2018-08-08T17:27:42Z</time>
      </trkpt>
      <trkpt lat="45.10057" lon="2.8696">
        <ele>941</ele>
        <time>2018-08-08T17:28:42Z</time>
      </trkpt>
      <trkpt lat="45.10117" lon="2.87056">
        <ele>944.3</ele>
        <time>2018-08-08T17:29:42Z</time>
      </trkpt>
      <trkpt lat="45.10151" lon="2.87148">
        <ele>956</ele>
        <time>2018-08-08T17:30:42Z</time>
      </trkpt>
      <trkpt lat="45.10206" lon="2.87209">
        <ele>963.6</ele>
        <time>2018-08-08T17:31:42Z</time>
      </trkpt>
      <trkpt lat="45.10283" lon="2.87238">
        <ele>953.5</ele>
        <time>2018-08-08T17:32:42Z</time>
      </trkpt>
      <trkpt lat="45.10361" lon="2.87192">
        <ele>915.5</ele>
        <time>2018-08-08T17:33:42Z</time>
      </trkpt>
      <trkpt lat="45.10361" lon="2.87116">
        <ele>905.4</ele>
        <time>2018-08-08T17:34:42Z</time>
      </trkpt>
      <trkpt lat="45.10434" lon="2.87105">
        <ele>884.7</ele>
        <time>2018-08-08T17:35:42Z</time>
      </trkpt>
      <trkpt lat="45.10446" lon="2.8714">
        <ele>887.1</ele>
        <time>2018-08-08T17:36:42Z</time>
      </trkpt>
      <trkpt lat="45.10511" lon="2.87179">
        <ele>888.5</ele>
        <time>2018-08-08T17:37:42Z</time>
      </trkpt>
      <trkpt lat="45.10577" lon="2.87243">
        <ele>897.2</ele>
        <time>2018-08-08T17:38:42Z</time>
      </trkpt>
      <trkpt lat="45.10622" lon="2.8728">
        <ele>897.2</ele>
        <time>2018-08-08T17:39:42Z</time>
      </trkpt>
      <trkpt lat="45.10664" lon="2.87325">
        <ele>897.2</ele>
        <time>2018-08-08T17:40:42Z</time>
      </trkpt>
      <trkpt lat="45.10769" lon="2.8734">
        <ele>896.3</ele>
        <time>2018-08-08T17:41:42Z</time>
      </trkpt>
      <trkpt lat="45.10835" lon="2.87299">
        <ele>903.5</ele>
        <time>2018-08-08T17:42:42Z</time>
      </trkpt>
      <trkpt lat="45.10876" lon="2.87229">
        <ele>909.3</ele>
        <time>2018-08-08T17:43:42Z</time>
      </trkpt>
      <trkpt lat="45.10928" lon="2.87224">
        <ele>915</ele>
        <time>2018-08-08T17:44:42Z</time>
      </trkpt>
      <trkpt lat="45.10931" lon="2.87211">
        <ele>915.4</ele>
        <time>2018-08-08T17:45:42Z</time>
      </trkpt>
      <trkpt lat="45.10903" lon="2.87216">
        <ele>911.8</ele>
        <time>2018-08-08T17:46:42Z</time>
      </trkpt>
      <trkpt lat="45.10875" lon="2.87084">
        <ele>907</ele>
        <time>2018-08-08T17:47:42Z</time>
      </trkpt>
      <trkpt lat="45.1095" lon="2.87064">
        <ele>914.1</ele>
        <time>2018-08-08T17:48:42Z</time>
      </trkpt>
      <trkpt lat="45.1096" lon="2.86975">
        <ele>914.6</ele>
        <time>2018-08-08T17:49:42Z</time>
      </trkpt>
      <trkpt lat="45.10956" lon="2.86854">
        <ele>912.6</ele>
        <time>2018-08-08T17:50:42Z</time>
      </trkpt>
    </trkseg>
  </trk>
</gpx>